<?xml version="1.0" encoding="UTF-8" standalone="no" ?>
<gpx xmlns="http://www.topografix.com/GPX/1/1" xmlns:xsi="http://www.w3.org/2001/XMLSchema-instance" xsi:schemaLocation="http://www.topografix.com/GPX/1/1 http://www.topografix.com/GPX/1/1/gpx.xsd" version="1.1" creator="VisuGPX - https://www.visugpx.com">
  <metadata>
    <name>Villefontaine - Larina</name>
    <desc><![CDATA[Mon premier rêve de piéton rapide!]]></desc>
  </metadata>
  <trk>
    <name><![CDATA[20150927-run-vlf-dizimieu-larina-chatelan]]></name>
    <trkseg>
      <trkpt lat="45.61653" lon="5.15442">
        <ele>257.29</ele>
        <time>2015-09-27T05:11:24Z</time>
      </trkpt>
      <trkpt lat="45.61653" lon="5.15447">
        <ele>257.29</ele>
        <time>2015-09-27T05:11:26Z</time>
      </trkpt>
      <trkpt lat="45.61665" lon="5.15462">
        <ele>256.81</ele>
        <time>2015-09-27T05:11:35Z</time>
      </trkpt>
      <trkpt lat="45.6167" lon="5.15469">
        <ele>257.29</ele>
        <time>2015-09-27T05:11:39Z</time>
      </trkpt>
      <trkpt lat="45.6168" lon="5.15478">
        <ele>257.29</ele>
        <time>2015-09-27T05:11:48Z</time>
      </trkpt>
      <trkpt lat="45.61684" lon="5.15496">
        <ele>256.33</ele>
        <time>2015-09-27T05:11:55Z</time>
      </trkpt>
      <trkpt lat="45.61684" lon="5.15511">
        <ele>255.85</ele>
        <time>2015-09-27T05:11:59Z</time>
      </trkpt>
      <trkpt lat="45.61686" lon="5.15543">
        <ele>254.41</ele>
        <time>2015-09-27T05:12:08Z</time>
      </trkpt>
      <trkpt lat="45.61686" lon="5.15561">
        <ele>253.93</ele>
        <time>2015-09-27T05:12:13Z</time>
      </trkpt>
      <trkpt lat="45.61672" lon="5.1559">
        <ele>251.52</ele>
        <time>2015-09-27T05:12:22Z</time>
      </trkpt>
      <trkpt lat="45.61654" lon="5.15607">
        <ele>249.6</ele>
        <time>2015-09-27T05:12:30Z</time>
      </trkpt>
      <trkpt lat="45.6164" lon="5.15629">
        <ele>248.16</ele>
        <time>2015-09-27T05:12:38Z</time>
      </trkpt>
      <trkpt lat="45.61639" lon="5.15659">
        <ele>246.23</ele>
        <time>2015-09-27T05:12:47Z</time>
      </trkpt>
      <trkpt lat="45.6164" lon="5.15684">
        <ele>245.75</ele>
        <time>2015-09-27T05:12:54Z</time>
      </trkpt>
      <trkpt lat="45.61639" lon="5.15714">
        <ele>244.79</ele>
        <time>2015-09-27T05:13:03Z</time>
      </trkpt>
      <trkpt lat="45.61637" lon="5.15744">
        <ele>243.83</ele>
        <time>2015-09-27T05:13:12Z</time>
      </trkpt>
      <trkpt lat="45.61636" lon="5.15772">
        <ele>242.87</ele>
        <time>2015-09-27T05:13:20Z</time>
      </trkpt>
      <trkpt lat="45.61627" lon="5.15804">
        <ele>242.87</ele>
        <time>2015-09-27T05:13:31Z</time>
      </trkpt>
      <trkpt lat="45.61618" lon="5.15826">
        <ele>242.39</ele>
        <time>2015-09-27T05:13:40Z</time>
      </trkpt>
      <trkpt lat="45.61604" lon="5.15844">
        <ele>241.91</ele>
        <time>2015-09-27T05:13:49Z</time>
      </trkpt>
      <trkpt lat="45.61593" lon="5.15861">
        <ele>240.95</ele>
        <time>2015-09-27T05:13:57Z</time>
      </trkpt>
      <trkpt lat="45.61576" lon="5.15886">
        <ele>240.47</ele>
        <time>2015-09-27T05:14:06Z</time>
      </trkpt>
      <trkpt lat="45.61555" lon="5.15899">
        <ele>240.95</ele>
        <time>2015-09-27T05:14:16Z</time>
      </trkpt>
      <trkpt lat="45.61537" lon="5.1591">
        <ele>241.43</ele>
        <time>2015-09-27T05:14:24Z</time>
      </trkpt>
      <trkpt lat="45.61523" lon="5.15931">
        <ele>240.95</ele>
        <time>2015-09-27T05:14:34Z</time>
      </trkpt>
      <trkpt lat="45.6153" lon="5.15956">
        <ele>240.47</ele>
        <time>2015-09-27T05:14:43Z</time>
      </trkpt>
      <trkpt lat="45.61536" lon="5.15978">
        <ele>240.47</ele>
        <time>2015-09-27T05:14:51Z</time>
      </trkpt>
      <trkpt lat="45.61542" lon="5.16003">
        <ele>240.95</ele>
        <time>2015-09-27T05:15:00Z</time>
      </trkpt>
      <trkpt lat="45.61553" lon="5.16027">
        <ele>242.87</ele>
        <time>2015-09-27T05:15:09Z</time>
      </trkpt>
      <trkpt lat="45.61558" lon="5.1605">
        <ele>244.31</ele>
        <time>2015-09-27T05:15:18Z</time>
      </trkpt>
      <trkpt lat="45.61559" lon="5.1607">
        <ele>245.75</ele>
        <time>2015-09-27T05:15:25Z</time>
      </trkpt>
      <trkpt lat="45.61558" lon="5.16087">
        <ele>246.23</ele>
        <time>2015-09-27T05:15:31Z</time>
      </trkpt>
      <trkpt lat="45.61557" lon="5.16105">
        <ele>247.2</ele>
        <time>2015-09-27T05:15:37Z</time>
      </trkpt>
      <trkpt lat="45.6156" lon="5.16136">
        <ele>247.2</ele>
        <time>2015-09-27T05:15:46Z</time>
      </trkpt>
      <trkpt lat="45.6156" lon="5.16156">
        <ele>248.64</ele>
        <time>2015-09-27T05:15:54Z</time>
      </trkpt>
      <trkpt lat="45.61564" lon="5.16196">
        <ele>249.12</ele>
        <time>2015-09-27T05:16:07Z</time>
      </trkpt>
      <trkpt lat="45.61566" lon="5.16223">
        <ele>249.12</ele>
        <time>2015-09-27T05:16:16Z</time>
      </trkpt>
      <trkpt lat="45.6157" lon="5.16256">
        <ele>249.6</ele>
        <time>2015-09-27T05:16:27Z</time>
      </trkpt>
      <trkpt lat="45.61571" lon="5.16285">
        <ele>249.6</ele>
        <time>2015-09-27T05:16:36Z</time>
      </trkpt>
      <trkpt lat="45.61574" lon="5.1631">
        <ele>249.6</ele>
        <time>2015-09-27T05:16:44Z</time>
      </trkpt>
      <trkpt lat="45.6158" lon="5.16333">
        <ele>249.12</ele>
        <time>2015-09-27T05:16:52Z</time>
      </trkpt>
      <trkpt lat="45.61585" lon="5.16359">
        <ele>248.64</ele>
        <time>2015-09-27T05:17:00Z</time>
      </trkpt>
      <trkpt lat="45.61587" lon="5.16399">
        <ele>247.68</ele>
        <time>2015-09-27T05:17:12Z</time>
      </trkpt>
      <trkpt lat="45.6159" lon="5.16435">
        <ele>248.16</ele>
        <time>2015-09-27T05:17:23Z</time>
      </trkpt>
      <trkpt lat="45.61595" lon="5.16464">
        <ele>248.16</ele>
        <time>2015-09-27T05:17:32Z</time>
      </trkpt>
      <trkpt lat="45.61601" lon="5.16487">
        <ele>249.12</ele>
        <time>2015-09-27T05:17:40Z</time>
      </trkpt>
      <trkpt lat="45.61604" lon="5.1651">
        <ele>250.08</ele>
        <time>2015-09-27T05:17:49Z</time>
      </trkpt>
      <trkpt lat="45.61605" lon="5.1652">
        <ele>251.52</ele>
        <time>2015-09-27T05:17:53Z</time>
      </trkpt>
      <trkpt lat="45.61605" lon="5.16543">
        <ele>254.41</ele>
        <time>2015-09-27T05:18:02Z</time>
      </trkpt>
      <trkpt lat="45.61611" lon="5.16569">
        <ele>254.41</ele>
        <time>2015-09-27T05:18:10Z</time>
      </trkpt>
      <trkpt lat="45.61614" lon="5.16604">
        <ele>256.33</ele>
        <time>2015-09-27T05:18:22Z</time>
      </trkpt>
      <trkpt lat="45.61615" lon="5.16625">
        <ele>257.29</ele>
        <time>2015-09-27T05:18:30Z</time>
      </trkpt>
      <trkpt lat="45.61611" lon="5.16651">
        <ele>258.73</ele>
        <time>2015-09-27T05:18:40Z</time>
      </trkpt>
      <trkpt lat="45.61606" lon="5.16686">
        <ele>259.69</ele>
        <time>2015-09-27T05:18:52Z</time>
      </trkpt>
      <trkpt lat="45.61604" lon="5.16706">
        <ele>260.65</ele>
        <time>2015-09-27T05:19:00Z</time>
      </trkpt>
      <trkpt lat="45.616" lon="5.16731">
        <ele>262.1</ele>
        <time>2015-09-27T05:19:09Z</time>
      </trkpt>
      <trkpt lat="45.61592" lon="5.16754">
        <ele>263.54</ele>
        <time>2015-09-27T05:19:18Z</time>
      </trkpt>
      <trkpt lat="45.61583" lon="5.16781">
        <ele>264.02</ele>
        <time>2015-09-27T05:19:28Z</time>
      </trkpt>
      <trkpt lat="45.61575" lon="5.16807">
        <ele>264.5</ele>
        <time>2015-09-27T05:19:38Z</time>
      </trkpt>
      <trkpt lat="45.61567" lon="5.16836">
        <ele>264.5</ele>
        <time>2015-09-27T05:19:48Z</time>
      </trkpt>
      <trkpt lat="45.61561" lon="5.16856">
        <ele>264.98</ele>
        <time>2015-09-27T05:19:55Z</time>
      </trkpt>
      <trkpt lat="45.6155" lon="5.1689">
        <ele>264.98</ele>
        <time>2015-09-27T05:20:06Z</time>
      </trkpt>
      <trkpt lat="45.61542" lon="5.16922">
        <ele>264.98</ele>
        <time>2015-09-27T05:20:16Z</time>
      </trkpt>
      <trkpt lat="45.61538" lon="5.16946">
        <ele>264.5</ele>
        <time>2015-09-27T05:20:23Z</time>
      </trkpt>
      <trkpt lat="45.61532" lon="5.16979">
        <ele>264.02</ele>
        <time>2015-09-27T05:20:33Z</time>
      </trkpt>
      <trkpt lat="45.61526" lon="5.1701">
        <ele>263.54</ele>
        <time>2015-09-27T05:20:42Z</time>
      </trkpt>
      <trkpt lat="45.61522" lon="5.17034">
        <ele>263.54</ele>
        <time>2015-09-27T05:20:49Z</time>
      </trkpt>
      <trkpt lat="45.61522" lon="5.17052">
        <ele>263.06</ele>
        <time>2015-09-27T05:20:54Z</time>
      </trkpt>
      <trkpt lat="45.61521" lon="5.17076">
        <ele>261.14</ele>
        <time>2015-09-27T05:21:01Z</time>
      </trkpt>
      <trkpt lat="45.61517" lon="5.17098">
        <ele>259.21</ele>
        <time>2015-09-27T05:21:07Z</time>
      </trkpt>
      <trkpt lat="45.61506" lon="5.17127">
        <ele>257.29</ele>
        <time>2015-09-27T05:21:16Z</time>
      </trkpt>
      <trkpt lat="45.61499" lon="5.17145">
        <ele>256.81</ele>
        <time>2015-09-27T05:21:21Z</time>
      </trkpt>
      <trkpt lat="45.61492" lon="5.17162">
        <ele>255.37</ele>
        <time>2015-09-27T05:21:26Z</time>
      </trkpt>
      <trkpt lat="45.61486" lon="5.17189">
        <ele>254.41</ele>
        <time>2015-09-27T05:21:33Z</time>
      </trkpt>
      <trkpt lat="45.6149" lon="5.17206">
        <ele>252</ele>
        <time>2015-09-27T05:21:40Z</time>
      </trkpt>
      <trkpt lat="45.61504" lon="5.17233">
        <ele>248.64</ele>
        <time>2015-09-27T05:21:49Z</time>
      </trkpt>
      <trkpt lat="45.61506" lon="5.17249">
        <ele>245.27</ele>
        <time>2015-09-27T05:21:56Z</time>
      </trkpt>
      <trkpt lat="45.6151" lon="5.17252">
        <ele>243.35</ele>
        <time>2015-09-27T05:21:59Z</time>
      </trkpt>
      <trkpt lat="45.6151" lon="5.17263">
        <ele>240.47</ele>
        <time>2015-09-27T05:22:03Z</time>
      </trkpt>
      <trkpt lat="45.61508" lon="5.17278">
        <ele>238.06</ele>
        <time>2015-09-27T05:22:07Z</time>
      </trkpt>
      <trkpt lat="45.61506" lon="5.17313">
        <ele>236.14</ele>
        <time>2015-09-27T05:22:16Z</time>
      </trkpt>
      <trkpt lat="45.61509" lon="5.17318">
        <ele>235.66</ele>
        <time>2015-09-27T05:22:18Z</time>
      </trkpt>
      <trkpt lat="45.6153" lon="5.17318">
        <ele>235.66</ele>
        <time>2015-09-27T05:22:25Z</time>
      </trkpt>
      <trkpt lat="45.61551" lon="5.17308">
        <ele>236.14</ele>
        <time>2015-09-27T05:22:34Z</time>
      </trkpt>
      <trkpt lat="45.61569" lon="5.173">
        <ele>235.66</ele>
        <time>2015-09-27T05:22:41Z</time>
      </trkpt>
      <trkpt lat="45.61577" lon="5.17295">
        <ele>234.7</ele>
        <time>2015-09-27T05:22:44Z</time>
      </trkpt>
      <trkpt lat="45.61592" lon="5.17296">
        <ele>233.74</ele>
        <time>2015-09-27T05:22:49Z</time>
      </trkpt>
      <trkpt lat="45.61601" lon="5.17297">
        <ele>233.26</ele>
        <time>2015-09-27T05:22:52Z</time>
      </trkpt>
      <trkpt lat="45.61607" lon="5.17296">
        <ele>232.78</ele>
        <time>2015-09-27T05:22:54Z</time>
      </trkpt>
      <trkpt lat="45.61615" lon="5.17296">
        <ele>232.3</ele>
        <time>2015-09-27T05:22:57Z</time>
      </trkpt>
      <trkpt lat="45.6162" lon="5.17297">
        <ele>231.81</ele>
        <time>2015-09-27T05:22:59Z</time>
      </trkpt>
      <trkpt lat="45.61636" lon="5.17296">
        <ele>230.85</ele>
        <time>2015-09-27T05:23:04Z</time>
      </trkpt>
      <trkpt lat="45.61657" lon="5.17296">
        <ele>228.93</ele>
        <time>2015-09-27T05:23:12Z</time>
      </trkpt>
      <trkpt lat="45.61682" lon="5.173">
        <ele>227.49</ele>
        <time>2015-09-27T05:23:21Z</time>
      </trkpt>
      <trkpt lat="45.61707" lon="5.17306">
        <ele>226.05</ele>
        <time>2015-09-27T05:23:30Z</time>
      </trkpt>
      <trkpt lat="45.61733" lon="5.17317">
        <ele>224.12</ele>
        <time>2015-09-27T05:23:41Z</time>
      </trkpt>
      <trkpt lat="45.61756" lon="5.17325">
        <ele>222.2</ele>
        <time>2015-09-27T05:23:50Z</time>
      </trkpt>
      <trkpt lat="45.61772" lon="5.17337">
        <ele>220.76</ele>
        <time>2015-09-27T05:23:58Z</time>
      </trkpt>
      <trkpt lat="45.61782" lon="5.17357">
        <ele>220.28</ele>
        <time>2015-09-27T05:24:05Z</time>
      </trkpt>
      <trkpt lat="45.61796" lon="5.17362">
        <ele>219.8</ele>
        <time>2015-09-27T05:24:10Z</time>
      </trkpt>
      <trkpt lat="45.61799" lon="5.17362">
        <ele>219.8</ele>
        <time>2015-09-27T05:24:11Z</time>
      </trkpt>
      <trkpt lat="45.6182" lon="5.17363">
        <ele>219.32</ele>
        <time>2015-09-27T05:24:19Z</time>
      </trkpt>
      <trkpt lat="45.61839" lon="5.17376">
        <ele>217.4</ele>
        <time>2015-09-27T05:24:27Z</time>
      </trkpt>
      <trkpt lat="45.61858" lon="5.17388">
        <ele>215.47</ele>
        <time>2015-09-27T05:24:34Z</time>
      </trkpt>
      <trkpt lat="45.6187" lon="5.17397">
        <ele>214.51</ele>
        <time>2015-09-27T05:24:39Z</time>
      </trkpt>
      <trkpt lat="45.61882" lon="5.17405">
        <ele>214.51</ele>
        <time>2015-09-27T05:24:45Z</time>
      </trkpt>
      <trkpt lat="45.619" lon="5.17414">
        <ele>214.03</ele>
        <time>2015-09-27T05:24:53Z</time>
      </trkpt>
      <trkpt lat="45.61911" lon="5.17423">
        <ele>214.03</ele>
        <time>2015-09-27T05:25:00Z</time>
      </trkpt>
      <trkpt lat="45.61924" lon="5.17443">
        <ele>214.51</ele>
        <time>2015-09-27T05:25:07Z</time>
      </trkpt>
      <trkpt lat="45.61942" lon="5.17457">
        <ele>214.51</ele>
        <time>2015-09-27T05:25:15Z</time>
      </trkpt>
      <trkpt lat="45.61956" lon="5.17467">
        <ele>214.51</ele>
        <time>2015-09-27T05:25:21Z</time>
      </trkpt>
      <trkpt lat="45.61974" lon="5.1748">
        <ele>214.99</ele>
        <time>2015-09-27T05:25:29Z</time>
      </trkpt>
      <trkpt lat="45.61995" lon="5.17496">
        <ele>214.99</ele>
        <time>2015-09-27T05:25:39Z</time>
      </trkpt>
      <trkpt lat="45.62007" lon="5.17511">
        <ele>215.47</ele>
        <time>2015-09-27T05:25:46Z</time>
      </trkpt>
      <trkpt lat="45.6202" lon="5.17524">
        <ele>215.47</ele>
        <time>2015-09-27T05:25:52Z</time>
      </trkpt>
      <trkpt lat="45.62034" lon="5.17535">
        <ele>215.47</ele>
        <time>2015-09-27T05:25:58Z</time>
      </trkpt>
      <trkpt lat="45.62045" lon="5.17544">
        <ele>215.95</ele>
        <time>2015-09-27T05:26:03Z</time>
      </trkpt>
      <trkpt lat="45.62055" lon="5.17558">
        <ele>215.47</ele>
        <time>2015-09-27T05:26:09Z</time>
      </trkpt>
      <trkpt lat="45.62063" lon="5.17569">
        <ele>214.99</ele>
        <time>2015-09-27T05:26:13Z</time>
      </trkpt>
      <trkpt lat="45.62074" lon="5.17582">
        <ele>215.47</ele>
        <time>2015-09-27T05:26:19Z</time>
      </trkpt>
      <trkpt lat="45.62096" lon="5.17601">
        <ele>215.47</ele>
        <time>2015-09-27T05:26:29Z</time>
      </trkpt>
      <trkpt lat="45.62118" lon="5.17617">
        <ele>215.47</ele>
        <time>2015-09-27T05:26:39Z</time>
      </trkpt>
      <trkpt lat="45.62136" lon="5.17631">
        <ele>215.47</ele>
        <time>2015-09-27T05:26:47Z</time>
      </trkpt>
      <trkpt lat="45.62156" lon="5.17646">
        <ele>214.99</ele>
        <time>2015-09-27T05:26:56Z</time>
      </trkpt>
      <trkpt lat="45.62166" lon="5.17663">
        <ele>214.99</ele>
        <time>2015-09-27T05:27:03Z</time>
      </trkpt>
      <trkpt lat="45.62174" lon="5.17681">
        <ele>214.51</ele>
        <time>2015-09-27T05:27:09Z</time>
      </trkpt>
      <trkpt lat="45.62176" lon="5.17699">
        <ele>214.51</ele>
        <time>2015-09-27T05:27:14Z</time>
      </trkpt>
      <trkpt lat="45.62179" lon="5.17714">
        <ele>214.51</ele>
        <time>2015-09-27T05:27:18Z</time>
      </trkpt>
      <trkpt lat="45.62179" lon="5.1774">
        <ele>214.51</ele>
        <time>2015-09-27T05:27:25Z</time>
      </trkpt>
      <trkpt lat="45.62174" lon="5.17755">
        <ele>214.51</ele>
        <time>2015-09-27T05:27:30Z</time>
      </trkpt>
      <trkpt lat="45.6217" lon="5.17773">
        <ele>214.51</ele>
        <time>2015-09-27T05:27:35Z</time>
      </trkpt>
      <trkpt lat="45.62167" lon="5.17789">
        <ele>214.51</ele>
        <time>2015-09-27T05:27:40Z</time>
      </trkpt>
      <trkpt lat="45.62166" lon="5.17805">
        <ele>214.51</ele>
        <time>2015-09-27T05:27:44Z</time>
      </trkpt>
      <trkpt lat="45.62162" lon="5.17815">
        <ele>214.51</ele>
        <time>2015-09-27T05:27:47Z</time>
      </trkpt>
      <trkpt lat="45.62154" lon="5.17832">
        <ele>214.51</ele>
        <time>2015-09-27T05:27:53Z</time>
      </trkpt>
      <trkpt lat="45.62147" lon="5.17854">
        <ele>214.03</ele>
        <time>2015-09-27T05:27:59Z</time>
      </trkpt>
      <trkpt lat="45.62139" lon="5.17878">
        <ele>214.51</ele>
        <time>2015-09-27T05:28:07Z</time>
      </trkpt>
      <trkpt lat="45.62133" lon="5.1789">
        <ele>214.51</ele>
        <time>2015-09-27T05:28:11Z</time>
      </trkpt>
      <trkpt lat="45.62139" lon="5.179">
        <ele>214.03</ele>
        <time>2015-09-27T05:28:15Z</time>
      </trkpt>
      <trkpt lat="45.62156" lon="5.17915">
        <ele>212.11</ele>
        <time>2015-09-27T05:28:22Z</time>
      </trkpt>
      <trkpt lat="45.62171" lon="5.17925">
        <ele>211.15</ele>
        <time>2015-09-27T05:28:28Z</time>
      </trkpt>
      <trkpt lat="45.62183" lon="5.17935">
        <ele>210.67</ele>
        <time>2015-09-27T05:28:33Z</time>
      </trkpt>
      <trkpt lat="45.62191" lon="5.17947">
        <ele>210.19</ele>
        <time>2015-09-27T05:28:38Z</time>
      </trkpt>
      <trkpt lat="45.62199" lon="5.17953">
        <ele>210.19</ele>
        <time>2015-09-27T05:28:42Z</time>
      </trkpt>
      <trkpt lat="45.62223" lon="5.17974">
        <ele>210.67</ele>
        <time>2015-09-27T05:28:54Z</time>
      </trkpt>
      <trkpt lat="45.62243" lon="5.17993">
        <ele>211.15</ele>
        <time>2015-09-27T05:29:04Z</time>
      </trkpt>
      <trkpt lat="45.62258" lon="5.1801">
        <ele>211.63</ele>
        <time>2015-09-27T05:29:12Z</time>
      </trkpt>
      <trkpt lat="45.62268" lon="5.18019">
        <ele>212.11</ele>
        <time>2015-09-27T05:29:17Z</time>
      </trkpt>
      <trkpt lat="45.62276" lon="5.1803">
        <ele>212.59</ele>
        <time>2015-09-27T05:29:22Z</time>
      </trkpt>
      <trkpt lat="45.62287" lon="5.18044">
        <ele>212.59</ele>
        <time>2015-09-27T05:29:29Z</time>
      </trkpt>
      <trkpt lat="45.62302" lon="5.18059">
        <ele>212.11</ele>
        <time>2015-09-27T05:29:36Z</time>
      </trkpt>
      <trkpt lat="45.6232" lon="5.18079">
        <ele>211.63</ele>
        <time>2015-09-27T05:29:46Z</time>
      </trkpt>
      <trkpt lat="45.62335" lon="5.18097">
        <ele>211.15</ele>
        <time>2015-09-27T05:29:55Z</time>
      </trkpt>
      <trkpt lat="45.62347" lon="5.18111">
        <ele>210.19</ele>
        <time>2015-09-27T05:30:02Z</time>
      </trkpt>
      <trkpt lat="45.62369" lon="5.18133">
        <ele>209.22</ele>
        <time>2015-09-27T05:30:13Z</time>
      </trkpt>
      <trkpt lat="45.62383" lon="5.1815">
        <ele>207.78</ele>
        <time>2015-09-27T05:30:21Z</time>
      </trkpt>
      <trkpt lat="45.62396" lon="5.1817">
        <ele>206.82</ele>
        <time>2015-09-27T05:30:29Z</time>
      </trkpt>
      <trkpt lat="45.62415" lon="5.18197">
        <ele>205.86</ele>
        <time>2015-09-27T05:30:39Z</time>
      </trkpt>
      <trkpt lat="45.62428" lon="5.18216">
        <ele>205.38</ele>
        <time>2015-09-27T05:30:46Z</time>
      </trkpt>
      <trkpt lat="45.62439" lon="5.18233">
        <ele>205.38</ele>
        <time>2015-09-27T05:30:53Z</time>
      </trkpt>
      <trkpt lat="45.62448" lon="5.18245">
        <ele>205.38</ele>
        <time>2015-09-27T05:30:58Z</time>
      </trkpt>
      <trkpt lat="45.62461" lon="5.18261">
        <ele>205.86</ele>
        <time>2015-09-27T05:31:06Z</time>
      </trkpt>
      <trkpt lat="45.62477" lon="5.18279">
        <ele>206.34</ele>
        <time>2015-09-27T05:31:15Z</time>
      </trkpt>
      <trkpt lat="45.62488" lon="5.18298">
        <ele>206.82</ele>
        <time>2015-09-27T05:31:23Z</time>
      </trkpt>
      <trkpt lat="45.62502" lon="5.18317">
        <ele>206.82</ele>
        <time>2015-09-27T05:31:31Z</time>
      </trkpt>
      <trkpt lat="45.62506" lon="5.18321">
        <ele>206.82</ele>
        <time>2015-09-27T05:31:33Z</time>
      </trkpt>
      <trkpt lat="45.62518" lon="5.18316">
        <ele>206.34</ele>
        <time>2015-09-27T05:31:38Z</time>
      </trkpt>
      <trkpt lat="45.62529" lon="5.18297">
        <ele>204.9</ele>
        <time>2015-09-27T05:31:45Z</time>
      </trkpt>
      <trkpt lat="45.62547" lon="5.18271">
        <ele>204.9</ele>
        <time>2015-09-27T05:31:55Z</time>
      </trkpt>
      <trkpt lat="45.62563" lon="5.18247">
        <ele>205.38</ele>
        <time>2015-09-27T05:32:05Z</time>
      </trkpt>
      <trkpt lat="45.62577" lon="5.18223">
        <ele>204.9</ele>
        <time>2015-09-27T05:32:14Z</time>
      </trkpt>
      <trkpt lat="45.62581" lon="5.18218">
        <ele>204.9</ele>
        <time>2015-09-27T05:32:16Z</time>
      </trkpt>
      <trkpt lat="45.62596" lon="5.18193">
        <ele>204.9</ele>
        <time>2015-09-27T05:32:26Z</time>
      </trkpt>
      <trkpt lat="45.62611" lon="5.18166">
        <ele>204.9</ele>
        <time>2015-09-27T05:32:37Z</time>
      </trkpt>
      <trkpt lat="45.62619" lon="5.18152">
        <ele>203.94</ele>
        <time>2015-09-27T05:32:44Z</time>
      </trkpt>
      <trkpt lat="45.62619" lon="5.18176">
        <ele>203.46</ele>
        <time>2015-09-27T05:32:52Z</time>
      </trkpt>
      <trkpt lat="45.62635" lon="5.1819">
        <ele>202.98</ele>
        <time>2015-09-27T05:32:59Z</time>
      </trkpt>
      <trkpt lat="45.62653" lon="5.18212">
        <ele>202.98</ele>
        <time>2015-09-27T05:33:09Z</time>
      </trkpt>
      <trkpt lat="45.62669" lon="5.18232">
        <ele>202.98</ele>
        <time>2015-09-27T05:33:18Z</time>
      </trkpt>
      <trkpt lat="45.62689" lon="5.18256">
        <ele>202.98</ele>
        <time>2015-09-27T05:33:29Z</time>
      </trkpt>
      <trkpt lat="45.62699" lon="5.1827">
        <ele>202.98</ele>
        <time>2015-09-27T05:33:35Z</time>
      </trkpt>
      <trkpt lat="45.62712" lon="5.18286">
        <ele>202.98</ele>
        <time>2015-09-27T05:33:42Z</time>
      </trkpt>
      <trkpt lat="45.62722" lon="5.18299">
        <ele>202.98</ele>
        <time>2015-09-27T05:33:47Z</time>
      </trkpt>
      <trkpt lat="45.62733" lon="5.18311">
        <ele>202.98</ele>
        <time>2015-09-27T05:33:52Z</time>
      </trkpt>
      <trkpt lat="45.62741" lon="5.18319">
        <ele>202.98</ele>
        <time>2015-09-27T05:33:56Z</time>
      </trkpt>
      <trkpt lat="45.6275" lon="5.18332">
        <ele>202.98</ele>
        <time>2015-09-27T05:34:01Z</time>
      </trkpt>
      <trkpt lat="45.62761" lon="5.18344">
        <ele>202.98</ele>
        <time>2015-09-27T05:34:07Z</time>
      </trkpt>
      <trkpt lat="45.62774" lon="5.18363">
        <ele>203.46</ele>
        <time>2015-09-27T05:34:15Z</time>
      </trkpt>
      <trkpt lat="45.62788" lon="5.18381">
        <ele>203.46</ele>
        <time>2015-09-27T05:34:23Z</time>
      </trkpt>
      <trkpt lat="45.62798" lon="5.18394">
        <ele>203.94</ele>
        <time>2015-09-27T05:34:29Z</time>
      </trkpt>
      <trkpt lat="45.62805" lon="5.18404">
        <ele>203.46</ele>
        <time>2015-09-27T05:34:33Z</time>
      </trkpt>
      <trkpt lat="45.62813" lon="5.18417">
        <ele>203.46</ele>
        <time>2015-09-27T05:34:38Z</time>
      </trkpt>
      <trkpt lat="45.62823" lon="5.18429">
        <ele>203.94</ele>
        <time>2015-09-27T05:34:43Z</time>
      </trkpt>
      <trkpt lat="45.62828" lon="5.18435">
        <ele>203.94</ele>
        <time>2015-09-27T05:34:46Z</time>
      </trkpt>
      <trkpt lat="45.62835" lon="5.18444">
        <ele>203.46</ele>
        <time>2015-09-27T05:34:50Z</time>
      </trkpt>
      <trkpt lat="45.62846" lon="5.18461">
        <ele>203.94</ele>
        <time>2015-09-27T05:34:56Z</time>
      </trkpt>
      <trkpt lat="45.62858" lon="5.18474">
        <ele>203.46</ele>
        <time>2015-09-27T05:35:02Z</time>
      </trkpt>
      <trkpt lat="45.62872" lon="5.1849">
        <ele>202.98</ele>
        <time>2015-09-27T05:35:09Z</time>
      </trkpt>
      <trkpt lat="45.62884" lon="5.18504">
        <ele>202.01</ele>
        <time>2015-09-27T05:35:15Z</time>
      </trkpt>
      <trkpt lat="45.62898" lon="5.1852">
        <ele>202.01</ele>
        <time>2015-09-27T05:35:22Z</time>
      </trkpt>
      <trkpt lat="45.62909" lon="5.18534">
        <ele>202.01</ele>
        <time>2015-09-27T05:35:28Z</time>
      </trkpt>
      <trkpt lat="45.6292" lon="5.18548">
        <ele>202.01</ele>
        <time>2015-09-27T05:35:34Z</time>
      </trkpt>
      <trkpt lat="45.62931" lon="5.1856">
        <ele>202.01</ele>
        <time>2015-09-27T05:35:40Z</time>
      </trkpt>
      <trkpt lat="45.62942" lon="5.18573">
        <ele>202.01</ele>
        <time>2015-09-27T05:35:46Z</time>
      </trkpt>
      <trkpt lat="45.6295" lon="5.18581">
        <ele>202.01</ele>
        <time>2015-09-27T05:35:50Z</time>
      </trkpt>
      <trkpt lat="45.62959" lon="5.18594">
        <ele>201.53</ele>
        <time>2015-09-27T05:35:55Z</time>
      </trkpt>
      <trkpt lat="45.62973" lon="5.1861">
        <ele>201.53</ele>
        <time>2015-09-27T05:36:02Z</time>
      </trkpt>
      <trkpt lat="45.62982" lon="5.18622">
        <ele>201.53</ele>
        <time>2015-09-27T05:36:07Z</time>
      </trkpt>
      <trkpt lat="45.62989" lon="5.18629">
        <ele>201.53</ele>
        <time>2015-09-27T05:36:11Z</time>
      </trkpt>
      <trkpt lat="45.63002" lon="5.18643">
        <ele>201.53</ele>
        <time>2015-09-27T05:36:18Z</time>
      </trkpt>
      <trkpt lat="45.6301" lon="5.18653">
        <ele>201.53</ele>
        <time>2015-09-27T05:36:23Z</time>
      </trkpt>
      <trkpt lat="45.63024" lon="5.18669">
        <ele>201.05</ele>
        <time>2015-09-27T05:36:30Z</time>
      </trkpt>
      <trkpt lat="45.63039" lon="5.18688">
        <ele>201.53</ele>
        <time>2015-09-27T05:36:39Z</time>
      </trkpt>
      <trkpt lat="45.63049" lon="5.18705">
        <ele>201.53</ele>
        <time>2015-09-27T05:36:46Z</time>
      </trkpt>
      <trkpt lat="45.63065" lon="5.18722">
        <ele>201.53</ele>
        <time>2015-09-27T05:36:54Z</time>
      </trkpt>
      <trkpt lat="45.63072" lon="5.18733">
        <ele>201.05</ele>
        <time>2015-09-27T05:36:59Z</time>
      </trkpt>
      <trkpt lat="45.63084" lon="5.18749">
        <ele>201.05</ele>
        <time>2015-09-27T05:37:06Z</time>
      </trkpt>
      <trkpt lat="45.63092" lon="5.18763">
        <ele>201.53</ele>
        <time>2015-09-27T05:37:12Z</time>
      </trkpt>
      <trkpt lat="45.63105" lon="5.18776">
        <ele>201.53</ele>
        <time>2015-09-27T05:37:18Z</time>
      </trkpt>
      <trkpt lat="45.63123" lon="5.18784">
        <ele>201.53</ele>
        <time>2015-09-27T05:37:25Z</time>
      </trkpt>
      <trkpt lat="45.63133" lon="5.18786">
        <ele>201.53</ele>
        <time>2015-09-27T05:37:29Z</time>
      </trkpt>
      <trkpt lat="45.6315" lon="5.18786">
        <ele>201.53</ele>
        <time>2015-09-27T05:37:36Z</time>
      </trkpt>
      <trkpt lat="45.6318" lon="5.18786">
        <ele>201.53</ele>
        <time>2015-09-27T05:37:48Z</time>
      </trkpt>
      <trkpt lat="45.63203" lon="5.18788">
        <ele>201.05</ele>
        <time>2015-09-27T05:37:58Z</time>
      </trkpt>
      <trkpt lat="45.63213" lon="5.18763">
        <ele>201.05</ele>
        <time>2015-09-27T05:38:07Z</time>
      </trkpt>
      <trkpt lat="45.63222" lon="5.18739">
        <ele>201.05</ele>
        <time>2015-09-27T05:38:15Z</time>
      </trkpt>
      <trkpt lat="45.63232" lon="5.18713">
        <ele>201.05</ele>
        <time>2015-09-27T05:38:24Z</time>
      </trkpt>
      <trkpt lat="45.63243" lon="5.1868">
        <ele>201.05</ele>
        <time>2015-09-27T05:38:34Z</time>
      </trkpt>
      <trkpt lat="45.63255" lon="5.18645">
        <ele>201.05</ele>
        <time>2015-09-27T05:38:45Z</time>
      </trkpt>
      <trkpt lat="45.63265" lon="5.1862">
        <ele>201.05</ele>
        <time>2015-09-27T05:38:54Z</time>
      </trkpt>
      <trkpt lat="45.63277" lon="5.1859">
        <ele>201.05</ele>
        <time>2015-09-27T05:39:04Z</time>
      </trkpt>
      <trkpt lat="45.63288" lon="5.18559">
        <ele>201.05</ele>
        <time>2015-09-27T05:39:14Z</time>
      </trkpt>
      <trkpt lat="45.63301" lon="5.18528">
        <ele>200.57</ele>
        <time>2015-09-27T05:39:24Z</time>
      </trkpt>
      <trkpt lat="45.63312" lon="5.18502">
        <ele>200.57</ele>
        <time>2015-09-27T05:39:33Z</time>
      </trkpt>
      <trkpt lat="45.63327" lon="5.18466">
        <ele>200.57</ele>
        <time>2015-09-27T05:39:45Z</time>
      </trkpt>
      <trkpt lat="45.63337" lon="5.18443">
        <ele>200.57</ele>
        <time>2015-09-27T05:39:53Z</time>
      </trkpt>
      <trkpt lat="45.63348" lon="5.1842">
        <ele>200.57</ele>
        <time>2015-09-27T05:40:01Z</time>
      </trkpt>
      <trkpt lat="45.63358" lon="5.18397">
        <ele>200.57</ele>
        <time>2015-09-27T05:40:09Z</time>
      </trkpt>
      <trkpt lat="45.63366" lon="5.18377">
        <ele>200.57</ele>
        <time>2015-09-27T05:40:16Z</time>
      </trkpt>
      <trkpt lat="45.63378" lon="5.18355">
        <ele>200.57</ele>
        <time>2015-09-27T05:40:24Z</time>
      </trkpt>
      <trkpt lat="45.63388" lon="5.18328">
        <ele>200.57</ele>
        <time>2015-09-27T05:40:33Z</time>
      </trkpt>
      <trkpt lat="45.63401" lon="5.183">
        <ele>200.57</ele>
        <time>2015-09-27T05:40:43Z</time>
      </trkpt>
      <trkpt lat="45.63411" lon="5.18274">
        <ele>200.57</ele>
        <time>2015-09-27T05:40:52Z</time>
      </trkpt>
      <trkpt lat="45.63423" lon="5.18256">
        <ele>200.57</ele>
        <time>2015-09-27T05:40:59Z</time>
      </trkpt>
      <trkpt lat="45.63436" lon="5.18234">
        <ele>200.57</ele>
        <time>2015-09-27T05:41:07Z</time>
      </trkpt>
      <trkpt lat="45.63449" lon="5.18209">
        <ele>200.09</ele>
        <time>2015-09-27T05:41:16Z</time>
      </trkpt>
      <trkpt lat="45.63464" lon="5.18183">
        <ele>200.09</ele>
        <time>2015-09-27T05:41:26Z</time>
      </trkpt>
      <trkpt lat="45.63478" lon="5.18159">
        <ele>200.09</ele>
        <time>2015-09-27T05:41:35Z</time>
      </trkpt>
      <trkpt lat="45.63491" lon="5.18134">
        <ele>200.09</ele>
        <time>2015-09-27T05:41:44Z</time>
      </trkpt>
      <trkpt lat="45.63507" lon="5.18108">
        <ele>200.09</ele>
        <time>2015-09-27T05:41:54Z</time>
      </trkpt>
      <trkpt lat="45.63522" lon="5.18083">
        <ele>200.09</ele>
        <time>2015-09-27T05:42:03Z</time>
      </trkpt>
      <trkpt lat="45.63538" lon="5.18058">
        <ele>200.09</ele>
        <time>2015-09-27T05:42:12Z</time>
      </trkpt>
      <trkpt lat="45.63553" lon="5.18033">
        <ele>200.09</ele>
        <time>2015-09-27T05:42:22Z</time>
      </trkpt>
      <trkpt lat="45.6357" lon="5.18007">
        <ele>200.57</ele>
        <time>2015-09-27T05:42:32Z</time>
      </trkpt>
      <trkpt lat="45.63584" lon="5.17981">
        <ele>200.09</ele>
        <time>2015-09-27T05:42:41Z</time>
      </trkpt>
      <trkpt lat="45.63599" lon="5.17958">
        <ele>200.09</ele>
        <time>2015-09-27T05:42:50Z</time>
      </trkpt>
      <trkpt lat="45.63613" lon="5.17936">
        <ele>200.09</ele>
        <time>2015-09-27T05:42:58Z</time>
      </trkpt>
      <trkpt lat="45.63634" lon="5.17903">
        <ele>200.09</ele>
        <time>2015-09-27T05:43:10Z</time>
      </trkpt>
      <trkpt lat="45.63651" lon="5.17877">
        <ele>199.61</ele>
        <time>2015-09-27T05:43:20Z</time>
      </trkpt>
      <trkpt lat="45.63666" lon="5.1785">
        <ele>200.09</ele>
        <time>2015-09-27T05:43:30Z</time>
      </trkpt>
      <trkpt lat="45.63683" lon="5.17821">
        <ele>200.09</ele>
        <time>2015-09-27T05:43:41Z</time>
      </trkpt>
      <trkpt lat="45.637" lon="5.17796">
        <ele>200.09</ele>
        <time>2015-09-27T05:43:51Z</time>
      </trkpt>
      <trkpt lat="45.63715" lon="5.17772">
        <ele>200.09</ele>
        <time>2015-09-27T05:44:00Z</time>
      </trkpt>
      <trkpt lat="45.63724" lon="5.17779">
        <ele>199.61</ele>
        <time>2015-09-27T05:44:06Z</time>
      </trkpt>
      <trkpt lat="45.63731" lon="5.17796">
        <ele>200.57</ele>
        <time>2015-09-27T05:44:13Z</time>
      </trkpt>
      <trkpt lat="45.63719" lon="5.17813">
        <ele>201.05</ele>
        <time>2015-09-27T05:44:20Z</time>
      </trkpt>
      <trkpt lat="45.6371" lon="5.17827">
        <ele>201.05</ele>
        <time>2015-09-27T05:44:26Z</time>
      </trkpt>
      <trkpt lat="45.63702" lon="5.17839">
        <ele>200.09</ele>
        <time>2015-09-27T05:44:31Z</time>
      </trkpt>
      <trkpt lat="45.63693" lon="5.17854">
        <ele>200.09</ele>
        <time>2015-09-27T05:44:36Z</time>
      </trkpt>
      <trkpt lat="45.63687" lon="5.17865">
        <ele>200.09</ele>
        <time>2015-09-27T05:44:40Z</time>
      </trkpt>
      <trkpt lat="45.63679" lon="5.17878">
        <ele>200.09</ele>
        <time>2015-09-27T05:44:45Z</time>
      </trkpt>
      <trkpt lat="45.63671" lon="5.17891">
        <ele>200.09</ele>
        <time>2015-09-27T05:44:50Z</time>
      </trkpt>
      <trkpt lat="45.63654" lon="5.17919">
        <ele>200.09</ele>
        <time>2015-09-27T05:45:01Z</time>
      </trkpt>
      <trkpt lat="45.6364" lon="5.17943">
        <ele>200.09</ele>
        <time>2015-09-27T05:45:10Z</time>
      </trkpt>
      <trkpt lat="45.63633" lon="5.17954">
        <ele>200.09</ele>
        <time>2015-09-27T05:45:15Z</time>
      </trkpt>
      <trkpt lat="45.63624" lon="5.1797">
        <ele>200.09</ele>
        <time>2015-09-27T05:45:21Z</time>
      </trkpt>
      <trkpt lat="45.63616" lon="5.17982">
        <ele>200.09</ele>
        <time>2015-09-27T05:45:26Z</time>
      </trkpt>
      <trkpt lat="45.63609" lon="5.17993">
        <ele>200.09</ele>
        <time>2015-09-27T05:45:31Z</time>
      </trkpt>
      <trkpt lat="45.636" lon="5.18006">
        <ele>200.09</ele>
        <time>2015-09-27T05:45:36Z</time>
      </trkpt>
      <trkpt lat="45.63591" lon="5.1802">
        <ele>200.57</ele>
        <time>2015-09-27T05:45:41Z</time>
      </trkpt>
      <trkpt lat="45.63583" lon="5.18035">
        <ele>200.09</ele>
        <time>2015-09-27T05:45:47Z</time>
      </trkpt>
      <trkpt lat="45.63575" lon="5.18049">
        <ele>200.57</ele>
        <time>2015-09-27T05:45:52Z</time>
      </trkpt>
      <trkpt lat="45.63567" lon="5.18064">
        <ele>200.57</ele>
        <time>2015-09-27T05:45:57Z</time>
      </trkpt>
      <trkpt lat="45.63557" lon="5.18081">
        <ele>200.09</ele>
        <time>2015-09-27T05:46:03Z</time>
      </trkpt>
      <trkpt lat="45.6355" lon="5.18096">
        <ele>200.09</ele>
        <time>2015-09-27T05:46:08Z</time>
      </trkpt>
      <trkpt lat="45.63543" lon="5.18106">
        <ele>200.09</ele>
        <time>2015-09-27T05:46:12Z</time>
      </trkpt>
      <trkpt lat="45.63536" lon="5.18117">
        <ele>200.09</ele>
        <time>2015-09-27T05:46:17Z</time>
      </trkpt>
      <trkpt lat="45.63528" lon="5.18129">
        <ele>200.09</ele>
        <time>2015-09-27T05:46:22Z</time>
      </trkpt>
      <trkpt lat="45.63519" lon="5.18142">
        <ele>200.09</ele>
        <time>2015-09-27T05:46:27Z</time>
      </trkpt>
      <trkpt lat="45.6351" lon="5.18161">
        <ele>199.61</ele>
        <time>2015-09-27T05:46:33Z</time>
      </trkpt>
      <trkpt lat="45.635" lon="5.18176">
        <ele>199.61</ele>
        <time>2015-09-27T05:46:39Z</time>
      </trkpt>
      <trkpt lat="45.63491" lon="5.18192">
        <ele>199.61</ele>
        <time>2015-09-27T05:46:45Z</time>
      </trkpt>
      <trkpt lat="45.63479" lon="5.18214">
        <ele>199.61</ele>
        <time>2015-09-27T05:46:53Z</time>
      </trkpt>
      <trkpt lat="45.63465" lon="5.18241">
        <ele>200.09</ele>
        <time>2015-09-27T05:47:02Z</time>
      </trkpt>
      <trkpt lat="45.63457" lon="5.18256">
        <ele>200.09</ele>
        <time>2015-09-27T05:47:07Z</time>
      </trkpt>
      <trkpt lat="45.63446" lon="5.18274">
        <ele>200.09</ele>
        <time>2015-09-27T05:47:14Z</time>
      </trkpt>
      <trkpt lat="45.63437" lon="5.18289">
        <ele>200.09</ele>
        <time>2015-09-27T05:47:20Z</time>
      </trkpt>
      <trkpt lat="45.6343" lon="5.18302">
        <ele>200.09</ele>
        <time>2015-09-27T05:47:25Z</time>
      </trkpt>
      <trkpt lat="45.63425" lon="5.18312">
        <ele>200.57</ele>
        <time>2015-09-27T05:47:32Z</time>
      </trkpt>
      <trkpt lat="45.6342" lon="5.18325">
        <ele>200.09</ele>
        <time>2015-09-27T05:47:37Z</time>
      </trkpt>
      <trkpt lat="45.63415" lon="5.18335">
        <ele>200.09</ele>
        <time>2015-09-27T05:47:41Z</time>
      </trkpt>
      <trkpt lat="45.63408" lon="5.18356">
        <ele>200.09</ele>
        <time>2015-09-27T05:47:48Z</time>
      </trkpt>
      <trkpt lat="45.63395" lon="5.18382">
        <ele>200.09</ele>
        <time>2015-09-27T05:47:57Z</time>
      </trkpt>
      <trkpt lat="45.63384" lon="5.18405">
        <ele>200.57</ele>
        <time>2015-09-27T05:48:05Z</time>
      </trkpt>
      <trkpt lat="45.63376" lon="5.18422">
        <ele>200.09</ele>
        <time>2015-09-27T05:48:11Z</time>
      </trkpt>
      <trkpt lat="45.6337" lon="5.18436">
        <ele>200.09</ele>
        <time>2015-09-27T05:48:16Z</time>
      </trkpt>
      <trkpt lat="45.63364" lon="5.18451">
        <ele>200.09</ele>
        <time>2015-09-27T05:48:21Z</time>
      </trkpt>
      <trkpt lat="45.63356" lon="5.18469">
        <ele>200.09</ele>
        <time>2015-09-27T05:48:27Z</time>
      </trkpt>
      <trkpt lat="45.63347" lon="5.18488">
        <ele>200.57</ele>
        <time>2015-09-27T05:48:33Z</time>
      </trkpt>
      <trkpt lat="45.63339" lon="5.1851">
        <ele>200.09</ele>
        <time>2015-09-27T05:48:41Z</time>
      </trkpt>
      <trkpt lat="45.63348" lon="5.1852">
        <ele>200.57</ele>
        <time>2015-09-27T05:48:46Z</time>
      </trkpt>
      <trkpt lat="45.63359" lon="5.18529">
        <ele>200.57</ele>
        <time>2015-09-27T05:48:51Z</time>
      </trkpt>
      <trkpt lat="45.63369" lon="5.1854">
        <ele>200.57</ele>
        <time>2015-09-27T05:48:57Z</time>
      </trkpt>
      <trkpt lat="45.63382" lon="5.18553">
        <ele>200.57</ele>
        <time>2015-09-27T05:49:04Z</time>
      </trkpt>
      <trkpt lat="45.63394" lon="5.18564">
        <ele>201.05</ele>
        <time>2015-09-27T05:49:10Z</time>
      </trkpt>
      <trkpt lat="45.63415" lon="5.18585">
        <ele>201.05</ele>
        <time>2015-09-27T05:49:21Z</time>
      </trkpt>
      <trkpt lat="45.63437" lon="5.18606">
        <ele>201.53</ele>
        <time>2015-09-27T05:49:32Z</time>
      </trkpt>
      <trkpt lat="45.63447" lon="5.18615">
        <ele>201.05</ele>
        <time>2015-09-27T05:49:37Z</time>
      </trkpt>
      <trkpt lat="45.63471" lon="5.18635">
        <ele>201.05</ele>
        <time>2015-09-27T05:49:48Z</time>
      </trkpt>
      <trkpt lat="45.63486" lon="5.18648">
        <ele>201.05</ele>
        <time>2015-09-27T05:49:55Z</time>
      </trkpt>
      <trkpt lat="45.63493" lon="5.18655">
        <ele>201.05</ele>
        <time>2015-09-27T05:49:59Z</time>
      </trkpt>
      <trkpt lat="45.63504" lon="5.1867">
        <ele>201.53</ele>
        <time>2015-09-27T05:50:05Z</time>
      </trkpt>
      <trkpt lat="45.63512" lon="5.18682">
        <ele>201.53</ele>
        <time>2015-09-27T05:50:10Z</time>
      </trkpt>
      <trkpt lat="45.63521" lon="5.187">
        <ele>202.01</ele>
        <time>2015-09-27T05:50:16Z</time>
      </trkpt>
      <trkpt lat="45.6353" lon="5.18716">
        <ele>202.01</ele>
        <time>2015-09-27T05:50:22Z</time>
      </trkpt>
      <trkpt lat="45.6354" lon="5.18734">
        <ele>202.01</ele>
        <time>2015-09-27T05:50:29Z</time>
      </trkpt>
      <trkpt lat="45.63555" lon="5.18759">
        <ele>202.49</ele>
        <time>2015-09-27T05:50:39Z</time>
      </trkpt>
      <trkpt lat="45.63572" lon="5.18786">
        <ele>202.49</ele>
        <time>2015-09-27T05:50:50Z</time>
      </trkpt>
      <trkpt lat="45.63584" lon="5.18808">
        <ele>202.49</ele>
        <time>2015-09-27T05:50:58Z</time>
      </trkpt>
      <trkpt lat="45.63597" lon="5.18828">
        <ele>202.49</ele>
        <time>2015-09-27T05:51:06Z</time>
      </trkpt>
      <trkpt lat="45.63613" lon="5.18855">
        <ele>202.49</ele>
        <time>2015-09-27T05:51:16Z</time>
      </trkpt>
      <trkpt lat="45.63618" lon="5.18875">
        <ele>202.98</ele>
        <time>2015-09-27T05:51:22Z</time>
      </trkpt>
      <trkpt lat="45.63623" lon="5.18893">
        <ele>202.98</ele>
        <time>2015-09-27T05:51:28Z</time>
      </trkpt>
      <trkpt lat="45.63629" lon="5.1891">
        <ele>202.98</ele>
        <time>2015-09-27T05:51:34Z</time>
      </trkpt>
      <trkpt lat="45.63642" lon="5.18941">
        <ele>202.98</ele>
        <time>2015-09-27T05:51:44Z</time>
      </trkpt>
      <trkpt lat="45.63653" lon="5.1897">
        <ele>202.98</ele>
        <time>2015-09-27T05:51:54Z</time>
      </trkpt>
      <trkpt lat="45.63662" lon="5.18991">
        <ele>202.49</ele>
        <time>2015-09-27T05:52:01Z</time>
      </trkpt>
      <trkpt lat="45.63673" lon="5.1901">
        <ele>202.49</ele>
        <time>2015-09-27T05:52:08Z</time>
      </trkpt>
      <trkpt lat="45.63691" lon="5.1904">
        <ele>202.49</ele>
        <time>2015-09-27T05:52:19Z</time>
      </trkpt>
      <trkpt lat="45.63708" lon="5.19071">
        <ele>202.98</ele>
        <time>2015-09-27T05:52:31Z</time>
      </trkpt>
      <trkpt lat="45.6372" lon="5.19098">
        <ele>202.98</ele>
        <time>2015-09-27T05:52:41Z</time>
      </trkpt>
      <trkpt lat="45.63731" lon="5.19128">
        <ele>202.98</ele>
        <time>2015-09-27T05:52:51Z</time>
      </trkpt>
      <trkpt lat="45.63736" lon="5.19145">
        <ele>202.98</ele>
        <time>2015-09-27T05:52:56Z</time>
      </trkpt>
      <trkpt lat="45.63745" lon="5.19171">
        <ele>202.98</ele>
        <time>2015-09-27T05:53:05Z</time>
      </trkpt>
      <trkpt lat="45.63755" lon="5.19205">
        <ele>202.98</ele>
        <time>2015-09-27T05:53:16Z</time>
      </trkpt>
      <trkpt lat="45.63762" lon="5.19241">
        <ele>203.46</ele>
        <time>2015-09-27T05:53:27Z</time>
      </trkpt>
      <trkpt lat="45.63763" lon="5.19272">
        <ele>202.98</ele>
        <time>2015-09-27T05:53:36Z</time>
      </trkpt>
      <trkpt lat="45.63763" lon="5.19296">
        <ele>202.98</ele>
        <time>2015-09-27T05:53:43Z</time>
      </trkpt>
      <trkpt lat="45.63762" lon="5.19313">
        <ele>202.98</ele>
        <time>2015-09-27T05:53:48Z</time>
      </trkpt>
      <trkpt lat="45.63765" lon="5.19334">
        <ele>202.98</ele>
        <time>2015-09-27T05:53:54Z</time>
      </trkpt>
      <trkpt lat="45.63767" lon="5.19365">
        <ele>202.49</ele>
        <time>2015-09-27T05:54:03Z</time>
      </trkpt>
      <trkpt lat="45.6377" lon="5.19391">
        <ele>202.98</ele>
        <time>2015-09-27T05:54:13Z</time>
      </trkpt>
      <trkpt lat="45.63761" lon="5.19384">
        <ele>202.49</ele>
        <time>2015-09-27T05:54:18Z</time>
      </trkpt>
      <trkpt lat="45.63739" lon="5.19375">
        <ele>202.98</ele>
        <time>2015-09-27T05:54:28Z</time>
      </trkpt>
      <trkpt lat="45.63711" lon="5.19363">
        <ele>202.98</ele>
        <time>2015-09-27T05:54:40Z</time>
      </trkpt>
      <trkpt lat="45.63687" lon="5.19357">
        <ele>202.98</ele>
        <time>2015-09-27T05:54:51Z</time>
      </trkpt>
      <trkpt lat="45.6367" lon="5.19368">
        <ele>202.49</ele>
        <time>2015-09-27T05:54:58Z</time>
      </trkpt>
      <trkpt lat="45.6365" lon="5.19376">
        <ele>202.49</ele>
        <time>2015-09-27T05:55:07Z</time>
      </trkpt>
      <trkpt lat="45.63642" lon="5.19379">
        <ele>202.49</ele>
        <time>2015-09-27T05:55:10Z</time>
      </trkpt>
      <trkpt lat="45.63633" lon="5.19388">
        <ele>202.01</ele>
        <time>2015-09-27T05:55:14Z</time>
      </trkpt>
      <trkpt lat="45.63623" lon="5.1942">
        <ele>202.49</ele>
        <time>2015-09-27T05:55:24Z</time>
      </trkpt>
      <trkpt lat="45.63614" lon="5.19449">
        <ele>202.01</ele>
        <time>2015-09-27T05:55:33Z</time>
      </trkpt>
      <trkpt lat="45.63608" lon="5.19471">
        <ele>202.01</ele>
        <time>2015-09-27T05:55:40Z</time>
      </trkpt>
      <trkpt lat="45.63596" lon="5.19509">
        <ele>202.01</ele>
        <time>2015-09-27T05:55:52Z</time>
      </trkpt>
      <trkpt lat="45.63589" lon="5.19535">
        <ele>201.53</ele>
        <time>2015-09-27T05:56:01Z</time>
      </trkpt>
      <trkpt lat="45.63584" lon="5.19555">
        <ele>202.01</ele>
        <time>2015-09-27T05:56:07Z</time>
      </trkpt>
      <trkpt lat="45.63577" lon="5.19585">
        <ele>202.01</ele>
        <time>2015-09-27T05:56:16Z</time>
      </trkpt>
      <trkpt lat="45.63564" lon="5.19619">
        <ele>202.49</ele>
        <time>2015-09-27T05:56:27Z</time>
      </trkpt>
      <trkpt lat="45.63555" lon="5.19648">
        <ele>202.49</ele>
        <time>2015-09-27T05:56:36Z</time>
      </trkpt>
      <trkpt lat="45.6356" lon="5.19661">
        <ele>202.98</ele>
        <time>2015-09-27T05:56:41Z</time>
      </trkpt>
      <trkpt lat="45.63579" lon="5.19682">
        <ele>202.98</ele>
        <time>2015-09-27T05:56:51Z</time>
      </trkpt>
      <trkpt lat="45.63598" lon="5.19701">
        <ele>203.46</ele>
        <time>2015-09-27T05:57:00Z</time>
      </trkpt>
      <trkpt lat="45.63615" lon="5.19721">
        <ele>203.46</ele>
        <time>2015-09-27T05:57:09Z</time>
      </trkpt>
      <trkpt lat="45.63627" lon="5.19737">
        <ele>203.46</ele>
        <time>2015-09-27T05:57:16Z</time>
      </trkpt>
      <trkpt lat="45.63637" lon="5.19746">
        <ele>203.46</ele>
        <time>2015-09-27T05:57:24Z</time>
      </trkpt>
      <trkpt lat="45.63635" lon="5.19745">
        <ele>203.94</ele>
        <time>2015-09-27T05:57:40Z</time>
      </trkpt>
      <trkpt lat="45.6364" lon="5.19754">
        <ele>203.94</ele>
        <time>2015-09-27T05:57:53Z</time>
      </trkpt>
      <trkpt lat="45.63662" lon="5.19782">
        <ele>203.94</ele>
        <time>2015-09-27T05:58:06Z</time>
      </trkpt>
      <trkpt lat="45.63686" lon="5.19811">
        <ele>204.42</ele>
        <time>2015-09-27T05:58:18Z</time>
      </trkpt>
      <trkpt lat="45.63705" lon="5.19833">
        <ele>204.9</ele>
        <time>2015-09-27T05:58:29Z</time>
      </trkpt>
      <trkpt lat="45.63719" lon="5.1985">
        <ele>205.38</ele>
        <time>2015-09-27T05:58:37Z</time>
      </trkpt>
      <trkpt lat="45.63733" lon="5.19867">
        <ele>205.86</ele>
        <time>2015-09-27T05:58:46Z</time>
      </trkpt>
      <trkpt lat="45.63753" lon="5.19887">
        <ele>206.34</ele>
        <time>2015-09-27T05:58:57Z</time>
      </trkpt>
      <trkpt lat="45.63769" lon="5.19903">
        <ele>206.82</ele>
        <time>2015-09-27T05:59:06Z</time>
      </trkpt>
      <trkpt lat="45.63783" lon="5.1992">
        <ele>207.3</ele>
        <time>2015-09-27T05:59:14Z</time>
      </trkpt>
      <trkpt lat="45.638" lon="5.19943">
        <ele>207.78</ele>
        <time>2015-09-27T05:59:24Z</time>
      </trkpt>
      <trkpt lat="45.63816" lon="5.1996">
        <ele>208.26</ele>
        <time>2015-09-27T05:59:32Z</time>
      </trkpt>
      <trkpt lat="45.6383" lon="5.19978">
        <ele>209.22</ele>
        <time>2015-09-27T05:59:41Z</time>
      </trkpt>
      <trkpt lat="45.63841" lon="5.19994">
        <ele>209.7</ele>
        <time>2015-09-27T05:59:48Z</time>
      </trkpt>
      <trkpt lat="45.63855" lon="5.20009">
        <ele>210.67</ele>
        <time>2015-09-27T05:59:57Z</time>
      </trkpt>
      <trkpt lat="45.63872" lon="5.20025">
        <ele>212.11</ele>
        <time>2015-09-27T06:00:06Z</time>
      </trkpt>
      <trkpt lat="45.63881" lon="5.20037">
        <ele>213.55</ele>
        <time>2015-09-27T06:00:13Z</time>
      </trkpt>
      <trkpt lat="45.63895" lon="5.20035">
        <ele>215.47</ele>
        <time>2015-09-27T06:00:20Z</time>
      </trkpt>
      <trkpt lat="45.63904" lon="5.20025">
        <ele>216.43</ele>
        <time>2015-09-27T06:00:26Z</time>
      </trkpt>
      <trkpt lat="45.63916" lon="5.20036">
        <ele>217.88</ele>
        <time>2015-09-27T06:00:36Z</time>
      </trkpt>
      <trkpt lat="45.63927" lon="5.20047">
        <ele>219.32</ele>
        <time>2015-09-27T06:00:44Z</time>
      </trkpt>
      <trkpt lat="45.63932" lon="5.20062">
        <ele>221.24</ele>
        <time>2015-09-27T06:00:53Z</time>
      </trkpt>
      <trkpt lat="45.6393" lon="5.20077">
        <ele>223.16</ele>
        <time>2015-09-27T06:01:02Z</time>
      </trkpt>
      <trkpt lat="45.63929" lon="5.20079">
        <ele>223.64</ele>
        <time>2015-09-27T06:01:03Z</time>
      </trkpt>
      <trkpt lat="45.63927" lon="5.20098">
        <ele>227.01</ele>
        <time>2015-09-27T06:01:16Z</time>
      </trkpt>
      <trkpt lat="45.63911" lon="5.20117">
        <ele>229.41</ele>
        <time>2015-09-27T06:01:26Z</time>
      </trkpt>
      <trkpt lat="45.63899" lon="5.20138">
        <ele>231.33</ele>
        <time>2015-09-27T06:01:37Z</time>
      </trkpt>
      <trkpt lat="45.63898" lon="5.2014">
        <ele>231.81</ele>
        <time>2015-09-27T06:01:38Z</time>
      </trkpt>
      <trkpt lat="45.6389" lon="5.2016">
        <ele>234.22</ele>
        <time>2015-09-27T06:01:48Z</time>
      </trkpt>
      <trkpt lat="45.63878" lon="5.20183">
        <ele>236.14</ele>
        <time>2015-09-27T06:01:59Z</time>
      </trkpt>
      <trkpt lat="45.63869" lon="5.20201">
        <ele>238.54</ele>
        <time>2015-09-27T06:02:09Z</time>
      </trkpt>
      <trkpt lat="45.63864" lon="5.20223">
        <ele>240.95</ele>
        <time>2015-09-27T06:02:20Z</time>
      </trkpt>
      <trkpt lat="45.63867" lon="5.20242">
        <ele>242.87</ele>
        <time>2015-09-27T06:02:29Z</time>
      </trkpt>
      <trkpt lat="45.63865" lon="5.20263">
        <ele>244.31</ele>
        <time>2015-09-27T06:02:38Z</time>
      </trkpt>
      <trkpt lat="45.63861" lon="5.20283">
        <ele>245.75</ele>
        <time>2015-09-27T06:02:47Z</time>
      </trkpt>
      <trkpt lat="45.63855" lon="5.20305">
        <ele>247.2</ele>
        <time>2015-09-27T06:02:57Z</time>
      </trkpt>
      <trkpt lat="45.63849" lon="5.20332">
        <ele>248.64</ele>
        <time>2015-09-27T06:03:07Z</time>
      </trkpt>
      <trkpt lat="45.63845" lon="5.20348">
        <ele>249.12</ele>
        <time>2015-09-27T06:03:15Z</time>
      </trkpt>
      <trkpt lat="45.63837" lon="5.20378">
        <ele>250.08</ele>
        <time>2015-09-27T06:03:25Z</time>
      </trkpt>
      <trkpt lat="45.63827" lon="5.20406">
        <ele>250.56</ele>
        <time>2015-09-27T06:03:36Z</time>
      </trkpt>
      <trkpt lat="45.63816" lon="5.20426">
        <ele>251.04</ele>
        <time>2015-09-27T06:03:44Z</time>
      </trkpt>
      <trkpt lat="45.63808" lon="5.20444">
        <ele>252.96</ele>
        <time>2015-09-27T06:03:53Z</time>
      </trkpt>
      <trkpt lat="45.63801" lon="5.20467">
        <ele>254.89</ele>
        <time>2015-09-27T06:04:04Z</time>
      </trkpt>
      <trkpt lat="45.63795" lon="5.20489">
        <ele>256.81</ele>
        <time>2015-09-27T06:04:14Z</time>
      </trkpt>
      <trkpt lat="45.6379" lon="5.20504">
        <ele>259.21</ele>
        <time>2015-09-27T06:04:23Z</time>
      </trkpt>
      <trkpt lat="45.63781" lon="5.2053">
        <ele>261.62</ele>
        <time>2015-09-27T06:04:34Z</time>
      </trkpt>
      <trkpt lat="45.63779" lon="5.2056">
        <ele>264.02</ele>
        <time>2015-09-27T06:04:44Z</time>
      </trkpt>
      <trkpt lat="45.63775" lon="5.2058">
        <ele>266.42</ele>
        <time>2015-09-27T06:04:54Z</time>
      </trkpt>
      <trkpt lat="45.63771" lon="5.20602">
        <ele>268.83</ele>
        <time>2015-09-27T06:05:05Z</time>
      </trkpt>
      <trkpt lat="45.63774" lon="5.20613">
        <ele>270.27</ele>
        <time>2015-09-27T06:05:11Z</time>
      </trkpt>
      <trkpt lat="45.63777" lon="5.20632">
        <ele>272.19</ele>
        <time>2015-09-27T06:05:21Z</time>
      </trkpt>
      <trkpt lat="45.63777" lon="5.20647">
        <ele>273.15</ele>
        <time>2015-09-27T06:05:28Z</time>
      </trkpt>
      <trkpt lat="45.63784" lon="5.20672">
        <ele>275.56</ele>
        <time>2015-09-27T06:05:39Z</time>
      </trkpt>
      <trkpt lat="45.63791" lon="5.20698">
        <ele>278.92</ele>
        <time>2015-09-27T06:05:52Z</time>
      </trkpt>
      <trkpt lat="45.63798" lon="5.20716">
        <ele>278.92</ele>
        <time>2015-09-27T06:06:00Z</time>
      </trkpt>
      <trkpt lat="45.63819" lon="5.20738">
        <ele>279.4</ele>
        <time>2015-09-27T06:06:10Z</time>
      </trkpt>
      <trkpt lat="45.63836" lon="5.20747">
        <ele>279.4</ele>
        <time>2015-09-27T06:06:18Z</time>
      </trkpt>
      <trkpt lat="45.63853" lon="5.20754">
        <ele>279.4</ele>
        <time>2015-09-27T06:06:26Z</time>
      </trkpt>
      <trkpt lat="45.63876" lon="5.20764">
        <ele>278.92</ele>
        <time>2015-09-27T06:06:37Z</time>
      </trkpt>
      <trkpt lat="45.63899" lon="5.20774">
        <ele>279.4</ele>
        <time>2015-09-27T06:06:47Z</time>
      </trkpt>
      <trkpt lat="45.63918" lon="5.20782">
        <ele>279.88</ele>
        <time>2015-09-27T06:06:56Z</time>
      </trkpt>
      <trkpt lat="45.6394" lon="5.20789">
        <ele>280.84</ele>
        <time>2015-09-27T06:07:06Z</time>
      </trkpt>
      <trkpt lat="45.63957" lon="5.20791">
        <ele>281.8</ele>
        <time>2015-09-27T06:07:14Z</time>
      </trkpt>
      <trkpt lat="45.63974" lon="5.20796">
        <ele>282.28</ele>
        <time>2015-09-27T06:07:23Z</time>
      </trkpt>
      <trkpt lat="45.63997" lon="5.20806">
        <ele>284.21</ele>
        <time>2015-09-27T06:07:35Z</time>
      </trkpt>
      <trkpt lat="45.64014" lon="5.20817">
        <ele>286.13</ele>
        <time>2015-09-27T06:07:46Z</time>
      </trkpt>
      <trkpt lat="45.64031" lon="5.20835">
        <ele>287.57</ele>
        <time>2015-09-27T06:07:57Z</time>
      </trkpt>
      <trkpt lat="45.64045" lon="5.20851">
        <ele>288.53</ele>
        <time>2015-09-27T06:08:06Z</time>
      </trkpt>
      <trkpt lat="45.64056" lon="5.20864">
        <ele>289.01</ele>
        <time>2015-09-27T06:08:13Z</time>
      </trkpt>
      <trkpt lat="45.6407" lon="5.20877">
        <ele>289.97</ele>
        <time>2015-09-27T06:08:21Z</time>
      </trkpt>
      <trkpt lat="45.6408" lon="5.20888">
        <ele>290.46</ele>
        <time>2015-09-27T06:08:27Z</time>
      </trkpt>
      <trkpt lat="45.64091" lon="5.20899">
        <ele>291.42</ele>
        <time>2015-09-27T06:08:34Z</time>
      </trkpt>
      <trkpt lat="45.64109" lon="5.20913">
        <ele>291.9</ele>
        <time>2015-09-27T06:08:44Z</time>
      </trkpt>
      <trkpt lat="45.64132" lon="5.20926">
        <ele>292.86</ele>
        <time>2015-09-27T06:08:55Z</time>
      </trkpt>
      <trkpt lat="45.64144" lon="5.20927">
        <ele>293.82</ele>
        <time>2015-09-27T06:09:03Z</time>
      </trkpt>
      <trkpt lat="45.64161" lon="5.20926">
        <ele>293.82</ele>
        <time>2015-09-27T06:09:12Z</time>
      </trkpt>
      <trkpt lat="45.64179" lon="5.20923">
        <ele>294.78</ele>
        <time>2015-09-27T06:09:21Z</time>
      </trkpt>
      <trkpt lat="45.64186" lon="5.2092">
        <ele>302.95</ele>
        <time>2015-09-27T06:09:25Z</time>
      </trkpt>
      <trkpt lat="45.64188" lon="5.20919">
        <ele>302.95</ele>
        <time>2015-09-27T06:09:26Z</time>
      </trkpt>
      <trkpt lat="45.64203" lon="5.20911">
        <ele>303.43</ele>
        <time>2015-09-27T06:09:34Z</time>
      </trkpt>
      <trkpt lat="45.64213" lon="5.20906">
        <ele>303.91</ele>
        <time>2015-09-27T06:09:39Z</time>
      </trkpt>
      <trkpt lat="45.64225" lon="5.20897">
        <ele>304.39</ele>
        <time>2015-09-27T06:09:45Z</time>
      </trkpt>
      <trkpt lat="45.64245" lon="5.20883">
        <ele>304.88</ele>
        <time>2015-09-27T06:09:55Z</time>
      </trkpt>
      <trkpt lat="45.64264" lon="5.20876">
        <ele>305.84</ele>
        <time>2015-09-27T06:10:04Z</time>
      </trkpt>
      <trkpt lat="45.64279" lon="5.20877">
        <ele>306.32</ele>
        <time>2015-09-27T06:10:11Z</time>
      </trkpt>
      <trkpt lat="45.64291" lon="5.20877">
        <ele>307.28</ele>
        <time>2015-09-27T06:10:17Z</time>
      </trkpt>
      <trkpt lat="45.64299" lon="5.20878">
        <ele>307.76</ele>
        <time>2015-09-27T06:10:21Z</time>
      </trkpt>
      <trkpt lat="45.64315" lon="5.2088">
        <ele>308.72</ele>
        <time>2015-09-27T06:10:29Z</time>
      </trkpt>
      <trkpt lat="45.64333" lon="5.20882">
        <ele>309.68</ele>
        <time>2015-09-27T06:10:38Z</time>
      </trkpt>
      <trkpt lat="45.64342" lon="5.20885">
        <ele>310.16</ele>
        <time>2015-09-27T06:10:43Z</time>
      </trkpt>
      <trkpt lat="45.64352" lon="5.20893">
        <ele>311.12</ele>
        <time>2015-09-27T06:10:49Z</time>
      </trkpt>
      <trkpt lat="45.64361" lon="5.2091">
        <ele>311.6</ele>
        <time>2015-09-27T06:10:56Z</time>
      </trkpt>
      <trkpt lat="45.64362" lon="5.20913">
        <ele>311.6</ele>
        <time>2015-09-27T06:10:57Z</time>
      </trkpt>
      <trkpt lat="45.64373" lon="5.20936">
        <ele>312.09</ele>
        <time>2015-09-27T06:11:06Z</time>
      </trkpt>
      <trkpt lat="45.64384" lon="5.20959">
        <ele>313.05</ele>
        <time>2015-09-27T06:11:15Z</time>
      </trkpt>
      <trkpt lat="45.64398" lon="5.20989">
        <ele>314.97</ele>
        <time>2015-09-27T06:11:27Z</time>
      </trkpt>
      <trkpt lat="45.64406" lon="5.21011">
        <ele>316.89</ele>
        <time>2015-09-27T06:11:37Z</time>
      </trkpt>
      <trkpt lat="45.64414" lon="5.21028">
        <ele>319.78</ele>
        <time>2015-09-27T06:11:46Z</time>
      </trkpt>
      <trkpt lat="45.64421" lon="5.21048">
        <ele>322.66</ele>
        <time>2015-09-27T06:11:56Z</time>
      </trkpt>
      <trkpt lat="45.64429" lon="5.2107">
        <ele>325.06</ele>
        <time>2015-09-27T06:12:07Z</time>
      </trkpt>
      <trkpt lat="45.6444" lon="5.21088">
        <ele>326.5</ele>
        <time>2015-09-27T06:12:16Z</time>
      </trkpt>
      <trkpt lat="45.64451" lon="5.21106">
        <ele>327.95</ele>
        <time>2015-09-27T06:12:25Z</time>
      </trkpt>
      <trkpt lat="45.64456" lon="5.21121">
        <ele>329.39</ele>
        <time>2015-09-27T06:12:32Z</time>
      </trkpt>
      <trkpt lat="45.64463" lon="5.21137">
        <ele>329.87</ele>
        <time>2015-09-27T06:12:40Z</time>
      </trkpt>
      <trkpt lat="45.64468" lon="5.21145">
        <ele>330.83</ele>
        <time>2015-09-27T06:12:48Z</time>
      </trkpt>
      <trkpt lat="45.64468" lon="5.21144">
        <ele>331.31</ele>
        <time>2015-09-27T06:12:55Z</time>
      </trkpt>
      <trkpt lat="45.64469" lon="5.2115">
        <ele>331.79</ele>
        <time>2015-09-27T06:13:11Z</time>
      </trkpt>
      <trkpt lat="45.64475" lon="5.21178">
        <ele>332.75</ele>
        <time>2015-09-27T06:13:20Z</time>
      </trkpt>
      <trkpt lat="45.64474" lon="5.21203">
        <ele>334.2</ele>
        <time>2015-09-27T06:13:29Z</time>
      </trkpt>
      <trkpt lat="45.64469" lon="5.21223">
        <ele>334.68</ele>
        <time>2015-09-27T06:13:36Z</time>
      </trkpt>
      <trkpt lat="45.64468" lon="5.2123">
        <ele>334.2</ele>
        <time>2015-09-27T06:13:43Z</time>
      </trkpt>
      <trkpt lat="45.64468" lon="5.21229">
        <ele>334.68</ele>
        <time>2015-09-27T06:13:49Z</time>
      </trkpt>
      <trkpt lat="45.64475" lon="5.21222">
        <ele>334.68</ele>
        <time>2015-09-27T06:13:54Z</time>
      </trkpt>
      <trkpt lat="45.64481" lon="5.21217">
        <ele>335.16</ele>
        <time>2015-09-27T06:13:57Z</time>
      </trkpt>
      <trkpt lat="45.64498" lon="5.21231">
        <ele>338.04</ele>
        <time>2015-09-27T06:14:08Z</time>
      </trkpt>
      <trkpt lat="45.64503" lon="5.21233">
        <ele>338.52</ele>
        <time>2015-09-27T06:14:11Z</time>
      </trkpt>
      <trkpt lat="45.64509" lon="5.21236">
        <ele>339.48</ele>
        <time>2015-09-27T06:14:14Z</time>
      </trkpt>
      <trkpt lat="45.64519" lon="5.21239">
        <ele>340.92</ele>
        <time>2015-09-27T06:14:20Z</time>
      </trkpt>
      <trkpt lat="45.6453" lon="5.21246">
        <ele>340.92</ele>
        <time>2015-09-27T06:14:26Z</time>
      </trkpt>
      <trkpt lat="45.64546" lon="5.21255">
        <ele>341.41</ele>
        <time>2015-09-27T06:14:34Z</time>
      </trkpt>
      <trkpt lat="45.64555" lon="5.21263">
        <ele>341.41</ele>
        <time>2015-09-27T06:14:39Z</time>
      </trkpt>
      <trkpt lat="45.6457" lon="5.21276">
        <ele>341.41</ele>
        <time>2015-09-27T06:14:48Z</time>
      </trkpt>
      <trkpt lat="45.6459" lon="5.21293">
        <ele>341.41</ele>
        <time>2015-09-27T06:15:01Z</time>
      </trkpt>
      <trkpt lat="45.64602" lon="5.21304">
        <ele>341.89</ele>
        <time>2015-09-27T06:15:08Z</time>
      </trkpt>
      <trkpt lat="45.64612" lon="5.21313">
        <ele>342.37</ele>
        <time>2015-09-27T06:15:14Z</time>
      </trkpt>
      <trkpt lat="45.64618" lon="5.21319">
        <ele>341.41</ele>
        <time>2015-09-27T06:15:19Z</time>
      </trkpt>
      <trkpt lat="45.64629" lon="5.21334">
        <ele>341.41</ele>
        <time>2015-09-27T06:15:25Z</time>
      </trkpt>
      <trkpt lat="45.6464" lon="5.21361">
        <ele>340.92</ele>
        <time>2015-09-27T06:15:34Z</time>
      </trkpt>
      <trkpt lat="45.6465" lon="5.2139">
        <ele>339.96</ele>
        <time>2015-09-27T06:15:44Z</time>
      </trkpt>
      <trkpt lat="45.64656" lon="5.21405">
        <ele>339.96</ele>
        <time>2015-09-27T06:15:49Z</time>
      </trkpt>
      <trkpt lat="45.64665" lon="5.21426">
        <ele>340.44</ele>
        <time>2015-09-27T06:15:58Z</time>
      </trkpt>
      <trkpt lat="45.64683" lon="5.21442">
        <ele>339.96</ele>
        <time>2015-09-27T06:16:09Z</time>
      </trkpt>
      <trkpt lat="45.6469" lon="5.21446">
        <ele>338.52</ele>
        <time>2015-09-27T06:16:12Z</time>
      </trkpt>
      <trkpt lat="45.6471" lon="5.21437">
        <ele>338.04</ele>
        <time>2015-09-27T06:16:22Z</time>
      </trkpt>
      <trkpt lat="45.6471" lon="5.21438">
        <ele>338.04</ele>
        <time>2015-09-27T06:16:23Z</time>
      </trkpt>
      <trkpt lat="45.64694" lon="5.21451">
        <ele>338.04</ele>
        <time>2015-09-27T06:16:32Z</time>
      </trkpt>
      <trkpt lat="45.64696" lon="5.21479">
        <ele>337.56</ele>
        <time>2015-09-27T06:16:40Z</time>
      </trkpt>
      <trkpt lat="45.64695" lon="5.21505">
        <ele>336.6</ele>
        <time>2015-09-27T06:16:48Z</time>
      </trkpt>
      <trkpt lat="45.64693" lon="5.21538">
        <ele>336.12</ele>
        <time>2015-09-27T06:16:58Z</time>
      </trkpt>
      <trkpt lat="45.64709" lon="5.21561">
        <ele>335.64</ele>
        <time>2015-09-27T06:17:06Z</time>
      </trkpt>
      <trkpt lat="45.64718" lon="5.21565">
        <ele>334.68</ele>
        <time>2015-09-27T06:17:10Z</time>
      </trkpt>
      <trkpt lat="45.64739" lon="5.21574">
        <ele>333.71</ele>
        <time>2015-09-27T06:17:19Z</time>
      </trkpt>
      <trkpt lat="45.64754" lon="5.21596">
        <ele>331.79</ele>
        <time>2015-09-27T06:17:27Z</time>
      </trkpt>
      <trkpt lat="45.64761" lon="5.21611">
        <ele>330.83</ele>
        <time>2015-09-27T06:17:32Z</time>
      </trkpt>
      <trkpt lat="45.64773" lon="5.21642">
        <ele>328.43</ele>
        <time>2015-09-27T06:17:42Z</time>
      </trkpt>
      <trkpt lat="45.64787" lon="5.21663">
        <ele>326.99</ele>
        <time>2015-09-27T06:17:50Z</time>
      </trkpt>
      <trkpt lat="45.648" lon="5.21688">
        <ele>326.02</ele>
        <time>2015-09-27T06:17:59Z</time>
      </trkpt>
      <trkpt lat="45.64813" lon="5.21707">
        <ele>325.06</ele>
        <time>2015-09-27T06:18:06Z</time>
      </trkpt>
      <trkpt lat="45.64828" lon="5.21727">
        <ele>323.14</ele>
        <time>2015-09-27T06:18:14Z</time>
      </trkpt>
      <trkpt lat="45.64841" lon="5.21746">
        <ele>320.74</ele>
        <time>2015-09-27T06:18:21Z</time>
      </trkpt>
      <trkpt lat="45.64843" lon="5.21764">
        <ele>319.3</ele>
        <time>2015-09-27T06:18:26Z</time>
      </trkpt>
      <trkpt lat="45.64843" lon="5.21767">
        <ele>318.81</ele>
        <time>2015-09-27T06:18:27Z</time>
      </trkpt>
      <trkpt lat="45.64841" lon="5.2179">
        <ele>317.85</ele>
        <time>2015-09-27T06:18:33Z</time>
      </trkpt>
      <trkpt lat="45.6484" lon="5.2181">
        <ele>316.41</ele>
        <time>2015-09-27T06:18:38Z</time>
      </trkpt>
      <trkpt lat="45.64838" lon="5.21833">
        <ele>315.45</ele>
        <time>2015-09-27T06:18:45Z</time>
      </trkpt>
      <trkpt lat="45.64842" lon="5.21856">
        <ele>314.97</ele>
        <time>2015-09-27T06:18:53Z</time>
      </trkpt>
      <trkpt lat="45.64848" lon="5.21876">
        <ele>314.01</ele>
        <time>2015-09-27T06:19:00Z</time>
      </trkpt>
      <trkpt lat="45.64862" lon="5.21903">
        <ele>313.05</ele>
        <time>2015-09-27T06:19:08Z</time>
      </trkpt>
      <trkpt lat="45.64875" lon="5.21937">
        <ele>312.09</ele>
        <time>2015-09-27T06:19:19Z</time>
      </trkpt>
      <trkpt lat="45.64881" lon="5.21962">
        <ele>310.64</ele>
        <time>2015-09-27T06:19:26Z</time>
      </trkpt>
      <trkpt lat="45.64893" lon="5.21992">
        <ele>308.24</ele>
        <time>2015-09-27T06:19:35Z</time>
      </trkpt>
      <trkpt lat="45.64907" lon="5.22022">
        <ele>306.32</ele>
        <time>2015-09-27T06:19:45Z</time>
      </trkpt>
      <trkpt lat="45.64915" lon="5.22047">
        <ele>304.39</ele>
        <time>2015-09-27T06:19:53Z</time>
      </trkpt>
      <trkpt lat="45.6492" lon="5.22072">
        <ele>301.99</ele>
        <time>2015-09-27T06:20:00Z</time>
      </trkpt>
      <trkpt lat="45.6493" lon="5.22095">
        <ele>300.07</ele>
        <time>2015-09-27T06:20:07Z</time>
      </trkpt>
      <trkpt lat="45.64943" lon="5.22117">
        <ele>297.67</ele>
        <time>2015-09-27T06:20:14Z</time>
      </trkpt>
      <trkpt lat="45.64953" lon="5.22114">
        <ele>295.74</ele>
        <time>2015-09-27T06:20:19Z</time>
      </trkpt>
      <trkpt lat="45.64972" lon="5.22088">
        <ele>294.78</ele>
        <time>2015-09-27T06:20:30Z</time>
      </trkpt>
      <trkpt lat="45.64984" lon="5.22068">
        <ele>294.3</ele>
        <time>2015-09-27T06:20:37Z</time>
      </trkpt>
      <trkpt lat="45.64996" lon="5.22045">
        <ele>293.82</ele>
        <time>2015-09-27T06:20:46Z</time>
      </trkpt>
      <trkpt lat="45.65007" lon="5.22031">
        <ele>293.34</ele>
        <time>2015-09-27T06:20:53Z</time>
      </trkpt>
      <trkpt lat="45.65022" lon="5.22018">
        <ele>293.34</ele>
        <time>2015-09-27T06:21:00Z</time>
      </trkpt>
      <trkpt lat="45.65033" lon="5.21999">
        <ele>292.86</ele>
        <time>2015-09-27T06:21:07Z</time>
      </trkpt>
      <trkpt lat="45.65043" lon="5.2196">
        <ele>292.38</ele>
        <time>2015-09-27T06:21:16Z</time>
      </trkpt>
      <trkpt lat="45.65043" lon="5.21932">
        <ele>292.86</ele>
        <time>2015-09-27T06:21:25Z</time>
      </trkpt>
      <trkpt lat="45.65045" lon="5.21907">
        <ele>293.82</ele>
        <time>2015-09-27T06:21:34Z</time>
      </trkpt>
      <trkpt lat="45.6505" lon="5.21882">
        <ele>295.26</ele>
        <time>2015-09-27T06:21:43Z</time>
      </trkpt>
      <trkpt lat="45.65053" lon="5.21857">
        <ele>296.7</ele>
        <time>2015-09-27T06:21:52Z</time>
      </trkpt>
      <trkpt lat="45.65056" lon="5.21832">
        <ele>298.15</ele>
        <time>2015-09-27T06:22:02Z</time>
      </trkpt>
      <trkpt lat="45.65065" lon="5.21809">
        <ele>299.11</ele>
        <time>2015-09-27T06:22:11Z</time>
      </trkpt>
      <trkpt lat="45.65075" lon="5.21783">
        <ele>300.07</ele>
        <time>2015-09-27T06:22:21Z</time>
      </trkpt>
      <trkpt lat="45.65087" lon="5.21754">
        <ele>302.47</ele>
        <time>2015-09-27T06:22:32Z</time>
      </trkpt>
      <trkpt lat="45.65098" lon="5.21731">
        <ele>304.39</ele>
        <time>2015-09-27T06:22:41Z</time>
      </trkpt>
      <trkpt lat="45.65108" lon="5.21712">
        <ele>305.84</ele>
        <time>2015-09-27T06:22:50Z</time>
      </trkpt>
      <trkpt lat="45.65117" lon="5.2169">
        <ele>306.32</ele>
        <time>2015-09-27T06:22:59Z</time>
      </trkpt>
      <trkpt lat="45.65126" lon="5.21673">
        <ele>306.8</ele>
        <time>2015-09-27T06:23:07Z</time>
      </trkpt>
      <trkpt lat="45.6514" lon="5.21651">
        <ele>308.72</ele>
        <time>2015-09-27T06:23:18Z</time>
      </trkpt>
      <trkpt lat="45.65153" lon="5.21636">
        <ele>310.64</ele>
        <time>2015-09-27T06:23:29Z</time>
      </trkpt>
      <trkpt lat="45.65168" lon="5.21614">
        <ele>311.12</ele>
        <time>2015-09-27T06:23:41Z</time>
      </trkpt>
      <trkpt lat="45.65183" lon="5.21598">
        <ele>312.57</ele>
        <time>2015-09-27T06:23:50Z</time>
      </trkpt>
      <trkpt lat="45.65196" lon="5.21592">
        <ele>314.01</ele>
        <time>2015-09-27T06:23:57Z</time>
      </trkpt>
      <trkpt lat="45.65212" lon="5.2158">
        <ele>316.41</ele>
        <time>2015-09-27T06:24:06Z</time>
      </trkpt>
      <trkpt lat="45.65226" lon="5.21566">
        <ele>316.89</ele>
        <time>2015-09-27T06:24:14Z</time>
      </trkpt>
      <trkpt lat="45.65241" lon="5.21554">
        <ele>315.93</ele>
        <time>2015-09-27T06:24:22Z</time>
      </trkpt>
      <trkpt lat="45.65255" lon="5.21544">
        <ele>315.93</ele>
        <time>2015-09-27T06:24:29Z</time>
      </trkpt>
      <trkpt lat="45.65271" lon="5.2153">
        <ele>315.93</ele>
        <time>2015-09-27T06:24:38Z</time>
      </trkpt>
      <trkpt lat="45.65291" lon="5.21511">
        <ele>316.89</ele>
        <time>2015-09-27T06:24:48Z</time>
      </trkpt>
      <trkpt lat="45.65301" lon="5.21495">
        <ele>317.85</ele>
        <time>2015-09-27T06:24:56Z</time>
      </trkpt>
      <trkpt lat="45.65309" lon="5.21483">
        <ele>320.26</ele>
        <time>2015-09-27T06:25:04Z</time>
      </trkpt>
      <trkpt lat="45.65326" lon="5.21472">
        <ele>321.7</ele>
        <time>2015-09-27T06:25:13Z</time>
      </trkpt>
      <trkpt lat="45.65337" lon="5.21463">
        <ele>322.66</ele>
        <time>2015-09-27T06:25:20Z</time>
      </trkpt>
      <trkpt lat="45.65349" lon="5.21457">
        <ele>324.58</ele>
        <time>2015-09-27T06:25:28Z</time>
      </trkpt>
      <trkpt lat="45.65365" lon="5.2145">
        <ele>325.06</ele>
        <time>2015-09-27T06:25:36Z</time>
      </trkpt>
      <trkpt lat="45.65389" lon="5.21439">
        <ele>326.5</ele>
        <time>2015-09-27T06:25:48Z</time>
      </trkpt>
      <trkpt lat="45.65402" lon="5.2143">
        <ele>327.47</ele>
        <time>2015-09-27T06:25:55Z</time>
      </trkpt>
      <trkpt lat="45.65416" lon="5.21418">
        <ele>327.47</ele>
        <time>2015-09-27T06:26:03Z</time>
      </trkpt>
      <trkpt lat="45.65434" lon="5.21407">
        <ele>326.99</ele>
        <time>2015-09-27T06:26:12Z</time>
      </trkpt>
      <trkpt lat="45.65447" lon="5.21396">
        <ele>326.99</ele>
        <time>2015-09-27T06:26:19Z</time>
      </trkpt>
      <trkpt lat="45.65473" lon="5.21382">
        <ele>326.02</ele>
        <time>2015-09-27T06:26:30Z</time>
      </trkpt>
      <trkpt lat="45.6549" lon="5.21365">
        <ele>326.99</ele>
        <time>2015-09-27T06:26:41Z</time>
      </trkpt>
      <trkpt lat="45.65502" lon="5.21342">
        <ele>326.99</ele>
        <time>2015-09-27T06:26:51Z</time>
      </trkpt>
      <trkpt lat="45.65512" lon="5.21315">
        <ele>327.95</ele>
        <time>2015-09-27T06:27:01Z</time>
      </trkpt>
      <trkpt lat="45.65522" lon="5.21291">
        <ele>329.87</ele>
        <time>2015-09-27T06:27:11Z</time>
      </trkpt>
      <trkpt lat="45.65535" lon="5.21274">
        <ele>329.39</ele>
        <time>2015-09-27T06:27:19Z</time>
      </trkpt>
      <trkpt lat="45.65549" lon="5.21256">
        <ele>329.39</ele>
        <time>2015-09-27T06:27:28Z</time>
      </trkpt>
      <trkpt lat="45.65567" lon="5.21235">
        <ele>330.35</ele>
        <time>2015-09-27T06:27:40Z</time>
      </trkpt>
      <trkpt lat="45.65583" lon="5.2122">
        <ele>330.83</ele>
        <time>2015-09-27T06:27:48Z</time>
      </trkpt>
      <trkpt lat="45.65605" lon="5.21207">
        <ele>331.79</ele>
        <time>2015-09-27T06:27:58Z</time>
      </trkpt>
      <trkpt lat="45.65624" lon="5.21204">
        <ele>332.75</ele>
        <time>2015-09-27T06:28:07Z</time>
      </trkpt>
      <trkpt lat="45.6564" lon="5.21204">
        <ele>334.2</ele>
        <time>2015-09-27T06:28:15Z</time>
      </trkpt>
      <trkpt lat="45.65653" lon="5.21209">
        <ele>335.64</ele>
        <time>2015-09-27T06:28:22Z</time>
      </trkpt>
      <trkpt lat="45.65666" lon="5.21225">
        <ele>336.6</ele>
        <time>2015-09-27T06:28:31Z</time>
      </trkpt>
      <trkpt lat="45.65677" lon="5.21238">
        <ele>338.52</ele>
        <time>2015-09-27T06:28:41Z</time>
      </trkpt>
      <trkpt lat="45.65691" lon="5.21249">
        <ele>341.41</ele>
        <time>2015-09-27T06:28:51Z</time>
      </trkpt>
      <trkpt lat="45.65707" lon="5.21261">
        <ele>343.33</ele>
        <time>2015-09-27T06:29:02Z</time>
      </trkpt>
      <trkpt lat="45.6572" lon="5.21273">
        <ele>343.33</ele>
        <time>2015-09-27T06:29:11Z</time>
      </trkpt>
      <trkpt lat="45.65732" lon="5.21287">
        <ele>343.33</ele>
        <time>2015-09-27T06:29:20Z</time>
      </trkpt>
      <trkpt lat="45.65756" lon="5.21319">
        <ele>343.81</ele>
        <time>2015-09-27T06:29:32Z</time>
      </trkpt>
      <trkpt lat="45.65769" lon="5.21335">
        <ele>343.33</ele>
        <time>2015-09-27T06:29:40Z</time>
      </trkpt>
      <trkpt lat="45.65791" lon="5.21354">
        <ele>342.85</ele>
        <time>2015-09-27T06:29:52Z</time>
      </trkpt>
      <trkpt lat="45.65807" lon="5.21372">
        <ele>343.33</ele>
        <time>2015-09-27T06:30:01Z</time>
      </trkpt>
      <trkpt lat="45.6582" lon="5.21389">
        <ele>344.29</ele>
        <time>2015-09-27T06:30:10Z</time>
      </trkpt>
      <trkpt lat="45.65834" lon="5.21406">
        <ele>344.29</ele>
        <time>2015-09-27T06:30:19Z</time>
      </trkpt>
      <trkpt lat="45.65847" lon="5.21424">
        <ele>343.33</ele>
        <time>2015-09-27T06:30:27Z</time>
      </trkpt>
      <trkpt lat="45.6586" lon="5.21438">
        <ele>342.85</ele>
        <time>2015-09-27T06:30:34Z</time>
      </trkpt>
      <trkpt lat="45.65874" lon="5.21462">
        <ele>342.85</ele>
        <time>2015-09-27T06:30:43Z</time>
      </trkpt>
      <trkpt lat="45.65888" lon="5.21485">
        <ele>343.33</ele>
        <time>2015-09-27T06:30:52Z</time>
      </trkpt>
      <trkpt lat="45.65898" lon="5.21505">
        <ele>343.33</ele>
        <time>2015-09-27T06:31:00Z</time>
      </trkpt>
      <trkpt lat="45.65909" lon="5.21526">
        <ele>342.85</ele>
        <time>2015-09-27T06:31:09Z</time>
      </trkpt>
      <trkpt lat="45.65917" lon="5.21543">
        <ele>342.37</ele>
        <time>2015-09-27T06:31:16Z</time>
      </trkpt>
      <trkpt lat="45.65922" lon="5.21562">
        <ele>343.33</ele>
        <time>2015-09-27T06:31:24Z</time>
      </trkpt>
      <trkpt lat="45.65927" lon="5.21582">
        <ele>343.81</ele>
        <time>2015-09-27T06:31:32Z</time>
      </trkpt>
      <trkpt lat="45.65927" lon="5.21584">
        <ele>343.81</ele>
        <time>2015-09-27T06:31:33Z</time>
      </trkpt>
      <trkpt lat="45.65933" lon="5.21613">
        <ele>345.73</ele>
        <time>2015-09-27T06:31:44Z</time>
      </trkpt>
      <trkpt lat="45.65951" lon="5.2164">
        <ele>346.21</ele>
        <time>2015-09-27T06:31:52Z</time>
      </trkpt>
      <trkpt lat="45.65962" lon="5.21669">
        <ele>346.69</ele>
        <time>2015-09-27T06:32:01Z</time>
      </trkpt>
      <trkpt lat="45.65969" lon="5.21695">
        <ele>347.17</ele>
        <time>2015-09-27T06:32:11Z</time>
      </trkpt>
      <trkpt lat="45.65978" lon="5.2171">
        <ele>348.13</ele>
        <time>2015-09-27T06:32:19Z</time>
      </trkpt>
      <trkpt lat="45.65988" lon="5.21732">
        <ele>349.58</ele>
        <time>2015-09-27T06:32:28Z</time>
      </trkpt>
      <trkpt lat="45.65996" lon="5.21751">
        <ele>350.54</ele>
        <time>2015-09-27T06:32:36Z</time>
      </trkpt>
      <trkpt lat="45.66008" lon="5.21767">
        <ele>351.02</ele>
        <time>2015-09-27T06:32:46Z</time>
      </trkpt>
      <trkpt lat="45.66023" lon="5.2178">
        <ele>351.98</ele>
        <time>2015-09-27T06:32:55Z</time>
      </trkpt>
      <trkpt lat="45.66034" lon="5.21795">
        <ele>352.94</ele>
        <time>2015-09-27T06:33:02Z</time>
      </trkpt>
      <trkpt lat="45.66044" lon="5.21811">
        <ele>354.38</ele>
        <time>2015-09-27T06:33:10Z</time>
      </trkpt>
      <trkpt lat="45.66052" lon="5.21828">
        <ele>355.34</ele>
        <time>2015-09-27T06:33:17Z</time>
      </trkpt>
      <trkpt lat="45.66064" lon="5.21852">
        <ele>357.27</ele>
        <time>2015-09-27T06:33:27Z</time>
      </trkpt>
      <trkpt lat="45.6607" lon="5.21876">
        <ele>358.71</ele>
        <time>2015-09-27T06:33:37Z</time>
      </trkpt>
      <trkpt lat="45.66077" lon="5.21889">
        <ele>361.11</ele>
        <time>2015-09-27T06:33:45Z</time>
      </trkpt>
      <trkpt lat="45.66087" lon="5.21897">
        <ele>362.55</ele>
        <time>2015-09-27T06:33:53Z</time>
      </trkpt>
      <trkpt lat="45.66097" lon="5.21901">
        <ele>364.48</ele>
        <time>2015-09-27T06:34:01Z</time>
      </trkpt>
      <trkpt lat="45.66103" lon="5.21905">
        <ele>365.92</ele>
        <time>2015-09-27T06:34:07Z</time>
      </trkpt>
      <trkpt lat="45.66112" lon="5.21907">
        <ele>367.36</ele>
        <time>2015-09-27T06:34:13Z</time>
      </trkpt>
      <trkpt lat="45.66127" lon="5.2191">
        <ele>369.28</ele>
        <time>2015-09-27T06:34:22Z</time>
      </trkpt>
      <trkpt lat="45.66142" lon="5.21909">
        <ele>370.73</ele>
        <time>2015-09-27T06:34:31Z</time>
      </trkpt>
      <trkpt lat="45.66156" lon="5.21903">
        <ele>372.65</ele>
        <time>2015-09-27T06:34:39Z</time>
      </trkpt>
      <trkpt lat="45.66171" lon="5.2189">
        <ele>374.09</ele>
        <time>2015-09-27T06:34:49Z</time>
      </trkpt>
      <trkpt lat="45.66183" lon="5.21887">
        <ele>374.57</ele>
        <time>2015-09-27T06:34:56Z</time>
      </trkpt>
      <trkpt lat="45.66197" lon="5.21897">
        <ele>375.53</ele>
        <time>2015-09-27T06:35:04Z</time>
      </trkpt>
      <trkpt lat="45.66211" lon="5.21912">
        <ele>376.97</ele>
        <time>2015-09-27T06:35:13Z</time>
      </trkpt>
      <trkpt lat="45.66225" lon="5.21918">
        <ele>377.94</ele>
        <time>2015-09-27T06:35:21Z</time>
      </trkpt>
      <trkpt lat="45.66241" lon="5.21921">
        <ele>378.9</ele>
        <time>2015-09-27T06:35:30Z</time>
      </trkpt>
      <trkpt lat="45.66261" lon="5.21921">
        <ele>379.86</ele>
        <time>2015-09-27T06:35:40Z</time>
      </trkpt>
      <trkpt lat="45.66273" lon="5.21924">
        <ele>382.26</ele>
        <time>2015-09-27T06:35:49Z</time>
      </trkpt>
      <trkpt lat="45.66284" lon="5.21942">
        <ele>383.7</ele>
        <time>2015-09-27T06:35:59Z</time>
      </trkpt>
      <trkpt lat="45.663" lon="5.21953">
        <ele>384.66</ele>
        <time>2015-09-27T06:36:09Z</time>
      </trkpt>
      <trkpt lat="45.66313" lon="5.21957">
        <ele>385.15</ele>
        <time>2015-09-27T06:36:16Z</time>
      </trkpt>
      <trkpt lat="45.66325" lon="5.21963">
        <ele>386.59</ele>
        <time>2015-09-27T06:36:24Z</time>
      </trkpt>
      <trkpt lat="45.66328" lon="5.21987">
        <ele>385.63</ele>
        <time>2015-09-27T06:36:32Z</time>
      </trkpt>
      <trkpt lat="45.66331" lon="5.22009">
        <ele>384.66</ele>
        <time>2015-09-27T06:36:40Z</time>
      </trkpt>
      <trkpt lat="45.66335" lon="5.22031">
        <ele>384.66</ele>
        <time>2015-09-27T06:36:49Z</time>
      </trkpt>
      <trkpt lat="45.66353" lon="5.22058">
        <ele>384.66</ele>
        <time>2015-09-27T06:37:00Z</time>
      </trkpt>
      <trkpt lat="45.66369" lon="5.22081">
        <ele>383.7</ele>
        <time>2015-09-27T06:37:09Z</time>
      </trkpt>
      <trkpt lat="45.66375" lon="5.22083">
        <ele>383.22</ele>
        <time>2015-09-27T06:37:11Z</time>
      </trkpt>
      <trkpt lat="45.6639" lon="5.22087">
        <ele>382.26</ele>
        <time>2015-09-27T06:37:18Z</time>
      </trkpt>
      <trkpt lat="45.66399" lon="5.22103">
        <ele>380.82</ele>
        <time>2015-09-27T06:37:24Z</time>
      </trkpt>
      <trkpt lat="45.664" lon="5.2211">
        <ele>379.86</ele>
        <time>2015-09-27T06:37:26Z</time>
      </trkpt>
      <trkpt lat="45.66408" lon="5.22135">
        <ele>377.94</ele>
        <time>2015-09-27T06:37:35Z</time>
      </trkpt>
      <trkpt lat="45.66425" lon="5.22157">
        <ele>376.49</ele>
        <time>2015-09-27T06:37:44Z</time>
      </trkpt>
      <trkpt lat="45.66433" lon="5.22167">
        <ele>375.05</ele>
        <time>2015-09-27T06:37:51Z</time>
      </trkpt>
      <trkpt lat="45.6645" lon="5.22179">
        <ele>373.61</ele>
        <time>2015-09-27T06:38:01Z</time>
      </trkpt>
      <trkpt lat="45.66469" lon="5.2219">
        <ele>372.17</ele>
        <time>2015-09-27T06:38:09Z</time>
      </trkpt>
      <trkpt lat="45.66483" lon="5.22209">
        <ele>370.73</ele>
        <time>2015-09-27T06:38:16Z</time>
      </trkpt>
      <trkpt lat="45.66492" lon="5.22231">
        <ele>369.28</ele>
        <time>2015-09-27T06:38:23Z</time>
      </trkpt>
      <trkpt lat="45.66493" lon="5.22258">
        <ele>367.36</ele>
        <time>2015-09-27T06:38:31Z</time>
      </trkpt>
      <trkpt lat="45.66494" lon="5.2228">
        <ele>366.4</ele>
        <time>2015-09-27T06:38:38Z</time>
      </trkpt>
      <trkpt lat="45.66496" lon="5.22308">
        <ele>365.44</ele>
        <time>2015-09-27T06:38:46Z</time>
      </trkpt>
      <trkpt lat="45.66504" lon="5.22354">
        <ele>363.52</ele>
        <time>2015-09-27T06:38:59Z</time>
      </trkpt>
      <trkpt lat="45.66508" lon="5.22381">
        <ele>362.55</ele>
        <time>2015-09-27T06:39:07Z</time>
      </trkpt>
      <trkpt lat="45.66516" lon="5.22409">
        <ele>361.11</ele>
        <time>2015-09-27T06:39:15Z</time>
      </trkpt>
      <trkpt lat="45.66526" lon="5.22422">
        <ele>360.15</ele>
        <time>2015-09-27T06:39:20Z</time>
      </trkpt>
      <trkpt lat="45.6654" lon="5.22451">
        <ele>356.79</ele>
        <time>2015-09-27T06:39:30Z</time>
      </trkpt>
      <trkpt lat="45.66539" lon="5.22461">
        <ele>356.31</ele>
        <time>2015-09-27T06:39:33Z</time>
      </trkpt>
      <trkpt lat="45.66529" lon="5.22488">
        <ele>353.42</ele>
        <time>2015-09-27T06:39:42Z</time>
      </trkpt>
      <trkpt lat="45.66525" lon="5.22495">
        <ele>352.94</ele>
        <time>2015-09-27T06:39:44Z</time>
      </trkpt>
      <trkpt lat="45.66512" lon="5.22525">
        <ele>350.54</ele>
        <time>2015-09-27T06:39:55Z</time>
      </trkpt>
      <trkpt lat="45.66496" lon="5.22555">
        <ele>349.1</ele>
        <time>2015-09-27T06:40:05Z</time>
      </trkpt>
      <trkpt lat="45.66486" lon="5.22589">
        <ele>347.65</ele>
        <time>2015-09-27T06:40:14Z</time>
      </trkpt>
      <trkpt lat="45.66477" lon="5.22612">
        <ele>346.69</ele>
        <time>2015-09-27T06:40:20Z</time>
      </trkpt>
      <trkpt lat="45.66473" lon="5.22636">
        <ele>344.29</ele>
        <time>2015-09-27T06:40:28Z</time>
      </trkpt>
      <trkpt lat="45.66466" lon="5.22668">
        <ele>341.89</ele>
        <time>2015-09-27T06:40:37Z</time>
      </trkpt>
      <trkpt lat="45.6646" lon="5.22696">
        <ele>340.92</ele>
        <time>2015-09-27T06:40:45Z</time>
      </trkpt>
      <trkpt lat="45.66454" lon="5.22724">
        <ele>340.44</ele>
        <time>2015-09-27T06:40:53Z</time>
      </trkpt>
      <trkpt lat="45.66447" lon="5.22752">
        <ele>339.96</ele>
        <time>2015-09-27T06:41:02Z</time>
      </trkpt>
      <trkpt lat="45.66439" lon="5.22782">
        <ele>340.44</ele>
        <time>2015-09-27T06:41:12Z</time>
      </trkpt>
      <trkpt lat="45.66435" lon="5.22807">
        <ele>342.37</ele>
        <time>2015-09-27T06:41:21Z</time>
      </trkpt>
      <trkpt lat="45.66431" lon="5.22838">
        <ele>344.29</ele>
        <time>2015-09-27T06:41:31Z</time>
      </trkpt>
      <trkpt lat="45.66427" lon="5.22866">
        <ele>343.81</ele>
        <time>2015-09-27T06:41:40Z</time>
      </trkpt>
      <trkpt lat="45.66428" lon="5.22896">
        <ele>344.29</ele>
        <time>2015-09-27T06:41:50Z</time>
      </trkpt>
      <trkpt lat="45.66431" lon="5.22934">
        <ele>344.77</ele>
        <time>2015-09-27T06:42:01Z</time>
      </trkpt>
      <trkpt lat="45.66426" lon="5.22964">
        <ele>344.29</ele>
        <time>2015-09-27T06:42:10Z</time>
      </trkpt>
      <trkpt lat="45.6642" lon="5.22995">
        <ele>345.25</ele>
        <time>2015-09-27T06:42:22Z</time>
      </trkpt>
      <trkpt lat="45.66413" lon="5.2302">
        <ele>345.73</ele>
        <time>2015-09-27T06:42:31Z</time>
      </trkpt>
      <trkpt lat="45.664" lon="5.23044">
        <ele>346.69</ele>
        <time>2015-09-27T06:42:41Z</time>
      </trkpt>
      <trkpt lat="45.66394" lon="5.23074">
        <ele>346.69</ele>
        <time>2015-09-27T06:42:49Z</time>
      </trkpt>
      <trkpt lat="45.66402" lon="5.23084">
        <ele>346.21</ele>
        <time>2015-09-27T06:42:54Z</time>
      </trkpt>
      <trkpt lat="45.66414" lon="5.23099">
        <ele>346.21</ele>
        <time>2015-09-27T06:43:06Z</time>
      </trkpt>
      <trkpt lat="45.66429" lon="5.23116">
        <ele>345.73</ele>
        <time>2015-09-27T06:43:13Z</time>
      </trkpt>
      <trkpt lat="45.66438" lon="5.23129">
        <ele>345.25</ele>
        <time>2015-09-27T06:43:19Z</time>
      </trkpt>
      <trkpt lat="45.66453" lon="5.23146">
        <ele>345.25</ele>
        <time>2015-09-27T06:43:27Z</time>
      </trkpt>
      <trkpt lat="45.66472" lon="5.23164">
        <ele>345.25</ele>
        <time>2015-09-27T06:43:37Z</time>
      </trkpt>
      <trkpt lat="45.66479" lon="5.23173">
        <ele>346.21</ele>
        <time>2015-09-27T06:43:42Z</time>
      </trkpt>
      <trkpt lat="45.66489" lon="5.2317">
        <ele>346.69</ele>
        <time>2015-09-27T06:43:48Z</time>
      </trkpt>
      <trkpt lat="45.66497" lon="5.23167">
        <ele>351.02</ele>
        <time>2015-09-27T06:43:53Z</time>
      </trkpt>
      <trkpt lat="45.66498" lon="5.23166">
        <ele>351.02</ele>
        <time>2015-09-27T06:43:54Z</time>
      </trkpt>
      <trkpt lat="45.66511" lon="5.23157">
        <ele>351.5</ele>
        <time>2015-09-27T06:44:03Z</time>
      </trkpt>
      <trkpt lat="45.66529" lon="5.2315">
        <ele>351.98</ele>
        <time>2015-09-27T06:44:11Z</time>
      </trkpt>
      <trkpt lat="45.66543" lon="5.23148">
        <ele>352.46</ele>
        <time>2015-09-27T06:44:19Z</time>
      </trkpt>
      <trkpt lat="45.66564" lon="5.23146">
        <ele>352.94</ele>
        <time>2015-09-27T06:44:28Z</time>
      </trkpt>
      <trkpt lat="45.66575" lon="5.23145">
        <ele>353.9</ele>
        <time>2015-09-27T06:44:35Z</time>
      </trkpt>
      <trkpt lat="45.6659" lon="5.23145">
        <ele>355.83</ele>
        <time>2015-09-27T06:44:43Z</time>
      </trkpt>
      <trkpt lat="45.66608" lon="5.23152">
        <ele>357.75</ele>
        <time>2015-09-27T06:44:52Z</time>
      </trkpt>
      <trkpt lat="45.66627" lon="5.23158">
        <ele>360.15</ele>
        <time>2015-09-27T06:45:02Z</time>
      </trkpt>
      <trkpt lat="45.66643" lon="5.23168">
        <ele>362.07</ele>
        <time>2015-09-27T06:45:13Z</time>
      </trkpt>
      <trkpt lat="45.66656" lon="5.23176">
        <ele>363.52</ele>
        <time>2015-09-27T06:45:20Z</time>
      </trkpt>
      <trkpt lat="45.66667" lon="5.23179">
        <ele>364.96</ele>
        <time>2015-09-27T06:45:26Z</time>
      </trkpt>
      <trkpt lat="45.66678" lon="5.23173">
        <ele>366.4</ele>
        <time>2015-09-27T06:45:35Z</time>
      </trkpt>
      <trkpt lat="45.66691" lon="5.23165">
        <ele>369.28</ele>
        <time>2015-09-27T06:45:45Z</time>
      </trkpt>
      <trkpt lat="45.66701" lon="5.23158">
        <ele>371.21</ele>
        <time>2015-09-27T06:45:53Z</time>
      </trkpt>
      <trkpt lat="45.66703" lon="5.23159">
        <ele>371.69</ele>
        <time>2015-09-27T06:45:55Z</time>
      </trkpt>
      <trkpt lat="45.66704" lon="5.23179">
        <ele>374.57</ele>
        <time>2015-09-27T06:46:06Z</time>
      </trkpt>
      <trkpt lat="45.66713" lon="5.23195">
        <ele>376.97</ele>
        <time>2015-09-27T06:46:18Z</time>
      </trkpt>
      <trkpt lat="45.66721" lon="5.23202">
        <ele>378.9</ele>
        <time>2015-09-27T06:46:26Z</time>
      </trkpt>
      <trkpt lat="45.66728" lon="5.23205">
        <ele>379.86</ele>
        <time>2015-09-27T06:46:34Z</time>
      </trkpt>
      <trkpt lat="45.66747" lon="5.23227">
        <ele>380.82</ele>
        <time>2015-09-27T06:46:47Z</time>
      </trkpt>
      <trkpt lat="45.66758" lon="5.23246">
        <ele>381.3</ele>
        <time>2015-09-27T06:46:55Z</time>
      </trkpt>
      <trkpt lat="45.66776" lon="5.23266">
        <ele>381.3</ele>
        <time>2015-09-27T06:47:04Z</time>
      </trkpt>
      <trkpt lat="45.6679" lon="5.23278">
        <ele>381.78</ele>
        <time>2015-09-27T06:47:12Z</time>
      </trkpt>
      <trkpt lat="45.66803" lon="5.23291">
        <ele>381.78</ele>
        <time>2015-09-27T06:47:21Z</time>
      </trkpt>
      <trkpt lat="45.66822" lon="5.2331">
        <ele>382.74</ele>
        <time>2015-09-27T06:47:32Z</time>
      </trkpt>
      <trkpt lat="45.66827" lon="5.23317">
        <ele>383.22</ele>
        <time>2015-09-27T06:47:37Z</time>
      </trkpt>
      <trkpt lat="45.66844" lon="5.23333">
        <ele>385.15</ele>
        <time>2015-09-27T06:47:49Z</time>
      </trkpt>
      <trkpt lat="45.6686" lon="5.23343">
        <ele>387.55</ele>
        <time>2015-09-27T06:48:01Z</time>
      </trkpt>
      <trkpt lat="45.6688" lon="5.23356">
        <ele>388.99</ele>
        <time>2015-09-27T06:48:09Z</time>
      </trkpt>
      <trkpt lat="45.669" lon="5.23368">
        <ele>390.43</ele>
        <time>2015-09-27T06:48:17Z</time>
      </trkpt>
      <trkpt lat="45.66911" lon="5.23379">
        <ele>391.39</ele>
        <time>2015-09-27T06:48:26Z</time>
      </trkpt>
      <trkpt lat="45.66918" lon="5.23387">
        <ele>392.84</ele>
        <time>2015-09-27T06:48:32Z</time>
      </trkpt>
      <trkpt lat="45.66939" lon="5.2341">
        <ele>393.8</ele>
        <time>2015-09-27T06:48:44Z</time>
      </trkpt>
      <trkpt lat="45.66953" lon="5.23425">
        <ele>394.28</ele>
        <time>2015-09-27T06:48:52Z</time>
      </trkpt>
      <trkpt lat="45.66959" lon="5.23442">
        <ele>394.76</ele>
        <time>2015-09-27T06:49:00Z</time>
      </trkpt>
      <trkpt lat="45.66971" lon="5.23454">
        <ele>395.24</ele>
        <time>2015-09-27T06:49:05Z</time>
      </trkpt>
      <trkpt lat="45.66984" lon="5.23471">
        <ele>396.68</ele>
        <time>2015-09-27T06:49:14Z</time>
      </trkpt>
      <trkpt lat="45.66997" lon="5.23488">
        <ele>398.6</ele>
        <time>2015-09-27T06:49:25Z</time>
      </trkpt>
      <trkpt lat="45.67015" lon="5.23501">
        <ele>400.05</ele>
        <time>2015-09-27T06:49:35Z</time>
      </trkpt>
      <trkpt lat="45.67025" lon="5.23515">
        <ele>401.49</ele>
        <time>2015-09-27T06:49:43Z</time>
      </trkpt>
      <trkpt lat="45.67035" lon="5.23539">
        <ele>403.41</ele>
        <time>2015-09-27T06:49:52Z</time>
      </trkpt>
      <trkpt lat="45.67047" lon="5.23554">
        <ele>404.85</ele>
        <time>2015-09-27T06:50:01Z</time>
      </trkpt>
      <trkpt lat="45.67049" lon="5.23559">
        <ele>405.33</ele>
        <time>2015-09-27T06:50:04Z</time>
      </trkpt>
      <trkpt lat="45.67052" lon="5.2357">
        <ele>405.81</ele>
        <time>2015-09-27T06:50:11Z</time>
      </trkpt>
      <trkpt lat="45.67053" lon="5.23588">
        <ele>407.26</ele>
        <time>2015-09-27T06:50:20Z</time>
      </trkpt>
      <trkpt lat="45.67054" lon="5.2361">
        <ele>408.7</ele>
        <time>2015-09-27T06:50:29Z</time>
      </trkpt>
      <trkpt lat="45.67052" lon="5.23627">
        <ele>410.14</ele>
        <time>2015-09-27T06:50:37Z</time>
      </trkpt>
      <trkpt lat="45.67056" lon="5.23645">
        <ele>412.06</ele>
        <time>2015-09-27T06:50:45Z</time>
      </trkpt>
      <trkpt lat="45.67064" lon="5.23667">
        <ele>413.98</ele>
        <time>2015-09-27T06:50:54Z</time>
      </trkpt>
      <trkpt lat="45.6707" lon="5.23678">
        <ele>413.98</ele>
        <time>2015-09-27T06:50:58Z</time>
      </trkpt>
      <trkpt lat="45.67092" lon="5.23717">
        <ele>412.54</ele>
        <time>2015-09-27T06:51:07Z</time>
      </trkpt>
      <trkpt lat="45.67104" lon="5.23756">
        <ele>410.14</ele>
        <time>2015-09-27T06:51:18Z</time>
      </trkpt>
      <trkpt lat="45.67118" lon="5.23782">
        <ele>409.18</ele>
        <time>2015-09-27T06:51:28Z</time>
      </trkpt>
      <trkpt lat="45.67134" lon="5.23802">
        <ele>409.18</ele>
        <time>2015-09-27T06:51:36Z</time>
      </trkpt>
      <trkpt lat="45.67147" lon="5.2382">
        <ele>409.18</ele>
        <time>2015-09-27T06:51:44Z</time>
      </trkpt>
      <trkpt lat="45.67169" lon="5.23844">
        <ele>408.22</ele>
        <time>2015-09-27T06:51:56Z</time>
      </trkpt>
      <trkpt lat="45.6719" lon="5.2386">
        <ele>406.29</ele>
        <time>2015-09-27T06:52:05Z</time>
      </trkpt>
      <trkpt lat="45.67208" lon="5.2387">
        <ele>404.37</ele>
        <time>2015-09-27T06:52:13Z</time>
      </trkpt>
      <trkpt lat="45.67214" lon="5.2387">
        <ele>403.41</ele>
        <time>2015-09-27T06:52:16Z</time>
      </trkpt>
      <trkpt lat="45.67231" lon="5.23861">
        <ele>401.97</ele>
        <time>2015-09-27T06:52:24Z</time>
      </trkpt>
      <trkpt lat="45.67251" lon="5.23845">
        <ele>401.49</ele>
        <time>2015-09-27T06:52:34Z</time>
      </trkpt>
      <trkpt lat="45.6727" lon="5.23828">
        <ele>400.05</ele>
        <time>2015-09-27T06:52:44Z</time>
      </trkpt>
      <trkpt lat="45.67287" lon="5.23812">
        <ele>398.6</ele>
        <time>2015-09-27T06:52:53Z</time>
      </trkpt>
      <trkpt lat="45.67303" lon="5.238">
        <ele>396.68</ele>
        <time>2015-09-27T06:53:00Z</time>
      </trkpt>
      <trkpt lat="45.67322" lon="5.23788">
        <ele>394.76</ele>
        <time>2015-09-27T06:53:09Z</time>
      </trkpt>
      <trkpt lat="45.6734" lon="5.23795">
        <ele>393.8</ele>
        <time>2015-09-27T06:53:15Z</time>
      </trkpt>
      <trkpt lat="45.67348" lon="5.23819">
        <ele>392.36</ele>
        <time>2015-09-27T06:53:23Z</time>
      </trkpt>
      <trkpt lat="45.67356" lon="5.23838">
        <ele>390.91</ele>
        <time>2015-09-27T06:53:29Z</time>
      </trkpt>
      <trkpt lat="45.67365" lon="5.23859">
        <ele>387.55</ele>
        <time>2015-09-27T06:53:35Z</time>
      </trkpt>
      <trkpt lat="45.67375" lon="5.23888">
        <ele>385.15</ele>
        <time>2015-09-27T06:53:43Z</time>
      </trkpt>
      <trkpt lat="45.67375" lon="5.23915">
        <ele>382.74</ele>
        <time>2015-09-27T06:53:50Z</time>
      </trkpt>
      <trkpt lat="45.67374" lon="5.23945">
        <ele>381.3</ele>
        <time>2015-09-27T06:53:58Z</time>
      </trkpt>
      <trkpt lat="45.6737" lon="5.23971">
        <ele>379.38</ele>
        <time>2015-09-27T06:54:05Z</time>
      </trkpt>
      <trkpt lat="45.67371" lon="5.23998">
        <ele>376.49</ele>
        <time>2015-09-27T06:54:12Z</time>
      </trkpt>
      <trkpt lat="45.67371" lon="5.24006">
        <ele>375.53</ele>
        <time>2015-09-27T06:54:14Z</time>
      </trkpt>
      <trkpt lat="45.67372" lon="5.24038">
        <ele>374.57</ele>
        <time>2015-09-27T06:54:22Z</time>
      </trkpt>
      <trkpt lat="45.67369" lon="5.24068">
        <ele>374.09</ele>
        <time>2015-09-27T06:54:30Z</time>
      </trkpt>
      <trkpt lat="45.67365" lon="5.24102">
        <ele>374.57</ele>
        <time>2015-09-27T06:54:40Z</time>
      </trkpt>
      <trkpt lat="45.67358" lon="5.24123">
        <ele>376.01</ele>
        <time>2015-09-27T06:54:46Z</time>
      </trkpt>
      <trkpt lat="45.67354" lon="5.24156">
        <ele>375.05</ele>
        <time>2015-09-27T06:54:55Z</time>
      </trkpt>
      <trkpt lat="45.67349" lon="5.24183">
        <ele>374.57</ele>
        <time>2015-09-27T06:55:03Z</time>
      </trkpt>
      <trkpt lat="45.67343" lon="5.24217">
        <ele>374.09</ele>
        <time>2015-09-27T06:55:12Z</time>
      </trkpt>
      <trkpt lat="45.67337" lon="5.24251">
        <ele>373.61</ele>
        <time>2015-09-27T06:55:22Z</time>
      </trkpt>
      <trkpt lat="45.67331" lon="5.24278">
        <ele>375.05</ele>
        <time>2015-09-27T06:55:31Z</time>
      </trkpt>
      <trkpt lat="45.67328" lon="5.2431">
        <ele>375.05</ele>
        <time>2015-09-27T06:55:40Z</time>
      </trkpt>
      <trkpt lat="45.67326" lon="5.24349">
        <ele>373.61</ele>
        <time>2015-09-27T06:55:51Z</time>
      </trkpt>
      <trkpt lat="45.67324" lon="5.24377">
        <ele>373.13</ele>
        <time>2015-09-27T06:55:59Z</time>
      </trkpt>
      <trkpt lat="45.67322" lon="5.24407">
        <ele>373.13</ele>
        <time>2015-09-27T06:56:08Z</time>
      </trkpt>
      <trkpt lat="45.67323" lon="5.24429">
        <ele>373.61</ele>
        <time>2015-09-27T06:56:15Z</time>
      </trkpt>
      <trkpt lat="45.67321" lon="5.24452">
        <ele>373.13</ele>
        <time>2015-09-27T06:56:21Z</time>
      </trkpt>
      <trkpt lat="45.67323" lon="5.24484">
        <ele>372.65</ele>
        <time>2015-09-27T06:56:29Z</time>
      </trkpt>
      <trkpt lat="45.67334" lon="5.24503">
        <ele>372.65</ele>
        <time>2015-09-27T06:56:35Z</time>
      </trkpt>
      <trkpt lat="45.67343" lon="5.24512">
        <ele>373.13</ele>
        <time>2015-09-27T06:56:40Z</time>
      </trkpt>
      <trkpt lat="45.67356" lon="5.24522">
        <ele>374.57</ele>
        <time>2015-09-27T06:56:49Z</time>
      </trkpt>
      <trkpt lat="45.67376" lon="5.24533">
        <ele>375.05</ele>
        <time>2015-09-27T06:56:58Z</time>
      </trkpt>
      <trkpt lat="45.67393" lon="5.2455">
        <ele>376.49</ele>
        <time>2015-09-27T06:57:07Z</time>
      </trkpt>
      <trkpt lat="45.67407" lon="5.24572">
        <ele>376.49</ele>
        <time>2015-09-27T06:57:16Z</time>
      </trkpt>
      <trkpt lat="45.67415" lon="5.24599">
        <ele>377.45</ele>
        <time>2015-09-27T06:57:26Z</time>
      </trkpt>
      <trkpt lat="45.67418" lon="5.2462">
        <ele>378.42</ele>
        <time>2015-09-27T06:57:33Z</time>
      </trkpt>
      <trkpt lat="45.67422" lon="5.24649">
        <ele>378.42</ele>
        <time>2015-09-27T06:57:42Z</time>
      </trkpt>
      <trkpt lat="45.67424" lon="5.24677">
        <ele>378.42</ele>
        <time>2015-09-27T06:57:51Z</time>
      </trkpt>
      <trkpt lat="45.67426" lon="5.24709">
        <ele>378.42</ele>
        <time>2015-09-27T06:58:01Z</time>
      </trkpt>
      <trkpt lat="45.67428" lon="5.24734">
        <ele>378.42</ele>
        <time>2015-09-27T06:58:09Z</time>
      </trkpt>
      <trkpt lat="45.67432" lon="5.24772">
        <ele>377.94</ele>
        <time>2015-09-27T06:58:19Z</time>
      </trkpt>
      <trkpt lat="45.67439" lon="5.24799">
        <ele>376.97</ele>
        <time>2015-09-27T06:58:28Z</time>
      </trkpt>
      <trkpt lat="45.67439" lon="5.24825">
        <ele>376.01</ele>
        <time>2015-09-27T06:58:36Z</time>
      </trkpt>
      <trkpt lat="45.67443" lon="5.24856">
        <ele>376.01</ele>
        <time>2015-09-27T06:58:45Z</time>
      </trkpt>
      <trkpt lat="45.67454" lon="5.24888">
        <ele>376.01</ele>
        <time>2015-09-27T06:58:55Z</time>
      </trkpt>
      <trkpt lat="45.67469" lon="5.24912">
        <ele>376.97</ele>
        <time>2015-09-27T06:59:04Z</time>
      </trkpt>
      <trkpt lat="45.67476" lon="5.24934">
        <ele>376.49</ele>
        <time>2015-09-27T06:59:11Z</time>
      </trkpt>
      <trkpt lat="45.67478" lon="5.24966">
        <ele>375.53</ele>
        <time>2015-09-27T06:59:20Z</time>
      </trkpt>
      <trkpt lat="45.6748" lon="5.24993">
        <ele>374.57</ele>
        <time>2015-09-27T06:59:27Z</time>
      </trkpt>
      <trkpt lat="45.67479" lon="5.2503">
        <ele>373.61</ele>
        <time>2015-09-27T06:59:37Z</time>
      </trkpt>
      <trkpt lat="45.67477" lon="5.25066">
        <ele>373.13</ele>
        <time>2015-09-27T06:59:46Z</time>
      </trkpt>
      <trkpt lat="45.67465" lon="5.25099">
        <ele>371.69</ele>
        <time>2015-09-27T06:59:55Z</time>
      </trkpt>
      <trkpt lat="45.67456" lon="5.25132">
        <ele>371.21</ele>
        <time>2015-09-27T07:00:05Z</time>
      </trkpt>
      <trkpt lat="45.67454" lon="5.25159">
        <ele>370.73</ele>
        <time>2015-09-27T07:00:13Z</time>
      </trkpt>
      <trkpt lat="45.67456" lon="5.25187">
        <ele>370.24</ele>
        <time>2015-09-27T07:00:21Z</time>
      </trkpt>
      <trkpt lat="45.67464" lon="5.25211">
        <ele>369.76</ele>
        <time>2015-09-27T07:00:29Z</time>
      </trkpt>
      <trkpt lat="45.67477" lon="5.2523">
        <ele>369.28</ele>
        <time>2015-09-27T07:00:37Z</time>
      </trkpt>
      <trkpt lat="45.67498" lon="5.2525">
        <ele>368.8</ele>
        <time>2015-09-27T07:00:47Z</time>
      </trkpt>
      <trkpt lat="45.67512" lon="5.25272">
        <ele>368.32</ele>
        <time>2015-09-27T07:00:55Z</time>
      </trkpt>
      <trkpt lat="45.67519" lon="5.253">
        <ele>367.84</ele>
        <time>2015-09-27T07:01:05Z</time>
      </trkpt>
      <trkpt lat="45.67531" lon="5.25332">
        <ele>368.32</ele>
        <time>2015-09-27T07:01:16Z</time>
      </trkpt>
      <trkpt lat="45.67549" lon="5.25355">
        <ele>367.36</ele>
        <time>2015-09-27T07:01:24Z</time>
      </trkpt>
      <trkpt lat="45.67564" lon="5.25378">
        <ele>366.4</ele>
        <time>2015-09-27T07:01:33Z</time>
      </trkpt>
      <trkpt lat="45.6756" lon="5.254">
        <ele>369.28</ele>
        <time>2015-09-27T07:01:42Z</time>
      </trkpt>
      <trkpt lat="45.67555" lon="5.25413">
        <ele>370.73</ele>
        <time>2015-09-27T07:01:51Z</time>
      </trkpt>
      <trkpt lat="45.67559" lon="5.25419">
        <ele>372.17</ele>
        <time>2015-09-27T07:02:00Z</time>
      </trkpt>
      <trkpt lat="45.67558" lon="5.25424">
        <ele>372.65</ele>
        <time>2015-09-27T07:02:43Z</time>
      </trkpt>
      <trkpt lat="45.67551" lon="5.25455">
        <ele>372.65</ele>
        <time>2015-09-27T07:02:51Z</time>
      </trkpt>
      <trkpt lat="45.67544" lon="5.25473">
        <ele>372.17</ele>
        <time>2015-09-27T07:02:57Z</time>
      </trkpt>
      <trkpt lat="45.67535" lon="5.25489">
        <ele>371.69</ele>
        <time>2015-09-27T07:03:03Z</time>
      </trkpt>
      <trkpt lat="45.67523" lon="5.2552">
        <ele>371.69</ele>
        <time>2015-09-27T07:03:15Z</time>
      </trkpt>
      <trkpt lat="45.67508" lon="5.25553">
        <ele>371.21</ele>
        <time>2015-09-27T07:03:27Z</time>
      </trkpt>
      <trkpt lat="45.67504" lon="5.25581">
        <ele>371.21</ele>
        <time>2015-09-27T07:03:35Z</time>
      </trkpt>
      <trkpt lat="45.67508" lon="5.25605">
        <ele>370.24</ele>
        <time>2015-09-27T07:03:42Z</time>
      </trkpt>
      <trkpt lat="45.67512" lon="5.25638">
        <ele>368.8</ele>
        <time>2015-09-27T07:03:52Z</time>
      </trkpt>
      <trkpt lat="45.67512" lon="5.25666">
        <ele>368.8</ele>
        <time>2015-09-27T07:04:01Z</time>
      </trkpt>
      <trkpt lat="45.67508" lon="5.25696">
        <ele>370.73</ele>
        <time>2015-09-27T07:04:11Z</time>
      </trkpt>
      <trkpt lat="45.67504" lon="5.25715">
        <ele>372.17</ele>
        <time>2015-09-27T07:04:18Z</time>
      </trkpt>
      <trkpt lat="45.67498" lon="5.25738">
        <ele>373.13</ele>
        <time>2015-09-27T07:04:27Z</time>
      </trkpt>
      <trkpt lat="45.67491" lon="5.25756">
        <ele>373.61</ele>
        <time>2015-09-27T07:04:35Z</time>
      </trkpt>
      <trkpt lat="45.67481" lon="5.25783">
        <ele>373.61</ele>
        <time>2015-09-27T07:04:44Z</time>
      </trkpt>
      <trkpt lat="45.67483" lon="5.25806">
        <ele>374.09</ele>
        <time>2015-09-27T07:04:51Z</time>
      </trkpt>
      <trkpt lat="45.67483" lon="5.25838">
        <ele>374.09</ele>
        <time>2015-09-27T07:05:00Z</time>
      </trkpt>
      <trkpt lat="45.67481" lon="5.2587">
        <ele>372.17</ele>
        <time>2015-09-27T07:05:09Z</time>
      </trkpt>
      <trkpt lat="45.6748" lon="5.25904">
        <ele>369.28</ele>
        <time>2015-09-27T07:05:18Z</time>
      </trkpt>
      <trkpt lat="45.67479" lon="5.25936">
        <ele>365.92</ele>
        <time>2015-09-27T07:05:26Z</time>
      </trkpt>
      <trkpt lat="45.6747" lon="5.25962">
        <ele>364</ele>
        <time>2015-09-27T07:05:33Z</time>
      </trkpt>
      <trkpt lat="45.67459" lon="5.25988">
        <ele>361.11</ele>
        <time>2015-09-27T07:05:40Z</time>
      </trkpt>
      <trkpt lat="45.67449" lon="5.26014">
        <ele>358.23</ele>
        <time>2015-09-27T07:05:47Z</time>
      </trkpt>
      <trkpt lat="45.67439" lon="5.26043">
        <ele>354.86</ele>
        <time>2015-09-27T07:05:53Z</time>
      </trkpt>
      <trkpt lat="45.6744" lon="5.26075">
        <ele>352.46</ele>
        <time>2015-09-27T07:05:59Z</time>
      </trkpt>
      <trkpt lat="45.6744" lon="5.26097">
        <ele>349.58</ele>
        <time>2015-09-27T07:06:04Z</time>
      </trkpt>
      <trkpt lat="45.6744" lon="5.2612">
        <ele>347.17</ele>
        <time>2015-09-27T07:06:10Z</time>
      </trkpt>
      <trkpt lat="45.67442" lon="5.26156">
        <ele>343.81</ele>
        <time>2015-09-27T07:06:19Z</time>
      </trkpt>
      <trkpt lat="45.67441" lon="5.26188">
        <ele>340.92</ele>
        <time>2015-09-27T07:06:27Z</time>
      </trkpt>
      <trkpt lat="45.6744" lon="5.26215">
        <ele>338.52</ele>
        <time>2015-09-27T07:06:34Z</time>
      </trkpt>
      <trkpt lat="45.67444" lon="5.26249">
        <ele>336.6</ele>
        <time>2015-09-27T07:06:41Z</time>
      </trkpt>
      <trkpt lat="45.6747" lon="5.26291">
        <ele>334.68</ele>
        <time>2015-09-27T07:06:50Z</time>
      </trkpt>
      <trkpt lat="45.67485" lon="5.26323">
        <ele>333.23</ele>
        <time>2015-09-27T07:06:57Z</time>
      </trkpt>
      <trkpt lat="45.67489" lon="5.26343">
        <ele>332.27</ele>
        <time>2015-09-27T07:07:03Z</time>
      </trkpt>
      <trkpt lat="45.675" lon="5.26369">
        <ele>330.35</ele>
        <time>2015-09-27T07:07:11Z</time>
      </trkpt>
      <trkpt lat="45.67519" lon="5.26397">
        <ele>328.91</ele>
        <time>2015-09-27T07:07:20Z</time>
      </trkpt>
      <trkpt lat="45.67547" lon="5.26429">
        <ele>326.99</ele>
        <time>2015-09-27T07:07:30Z</time>
      </trkpt>
      <trkpt lat="45.67561" lon="5.26459">
        <ele>325.54</ele>
        <time>2015-09-27T07:07:39Z</time>
      </trkpt>
      <trkpt lat="45.67568" lon="5.26481">
        <ele>324.58</ele>
        <time>2015-09-27T07:07:46Z</time>
      </trkpt>
      <trkpt lat="45.67571" lon="5.26506">
        <ele>323.62</ele>
        <time>2015-09-27T07:07:56Z</time>
      </trkpt>
      <trkpt lat="45.67602" lon="5.26531">
        <ele>323.14</ele>
        <time>2015-09-27T07:08:04Z</time>
      </trkpt>
      <trkpt lat="45.67611" lon="5.26536">
        <ele>323.14</ele>
        <time>2015-09-27T07:08:06Z</time>
      </trkpt>
      <trkpt lat="45.67639" lon="5.26568">
        <ele>322.66</ele>
        <time>2015-09-27T07:08:17Z</time>
      </trkpt>
      <trkpt lat="45.67652" lon="5.26596">
        <ele>321.7</ele>
        <time>2015-09-27T07:08:25Z</time>
      </trkpt>
      <trkpt lat="45.67648" lon="5.26614">
        <ele>321.22</ele>
        <time>2015-09-27T07:08:29Z</time>
      </trkpt>
      <trkpt lat="45.67637" lon="5.26643">
        <ele>318.33</ele>
        <time>2015-09-27T07:08:37Z</time>
      </trkpt>
      <trkpt lat="45.67637" lon="5.26675">
        <ele>315.93</ele>
        <time>2015-09-27T07:08:44Z</time>
      </trkpt>
      <trkpt lat="45.6764" lon="5.26713">
        <ele>313.05</ele>
        <time>2015-09-27T07:08:53Z</time>
      </trkpt>
      <trkpt lat="45.6764" lon="5.26743">
        <ele>311.12</ele>
        <time>2015-09-27T07:09:00Z</time>
      </trkpt>
      <trkpt lat="45.67633" lon="5.26784">
        <ele>309.68</ele>
        <time>2015-09-27T07:09:09Z</time>
      </trkpt>
      <trkpt lat="45.67622" lon="5.26808">
        <ele>307.76</ele>
        <time>2015-09-27T07:09:16Z</time>
      </trkpt>
      <trkpt lat="45.67608" lon="5.26826">
        <ele>306.32</ele>
        <time>2015-09-27T07:09:23Z</time>
      </trkpt>
      <trkpt lat="45.67596" lon="5.26857">
        <ele>303.91</ele>
        <time>2015-09-27T07:09:32Z</time>
      </trkpt>
      <trkpt lat="45.67584" lon="5.26878">
        <ele>303.43</ele>
        <time>2015-09-27T07:09:39Z</time>
      </trkpt>
      <trkpt lat="45.67582" lon="5.2688">
        <ele>303.43</ele>
        <time>2015-09-27T07:09:40Z</time>
      </trkpt>
      <trkpt lat="45.67562" lon="5.26893">
        <ele>303.43</ele>
        <time>2015-09-27T07:09:48Z</time>
      </trkpt>
      <trkpt lat="45.67549" lon="5.26906">
        <ele>302.95</ele>
        <time>2015-09-27T07:09:56Z</time>
      </trkpt>
      <trkpt lat="45.67526" lon="5.26921">
        <ele>303.43</ele>
        <time>2015-09-27T07:10:07Z</time>
      </trkpt>
      <trkpt lat="45.67503" lon="5.26933">
        <ele>303.43</ele>
        <time>2015-09-27T07:10:16Z</time>
      </trkpt>
      <trkpt lat="45.67483" lon="5.26947">
        <ele>302.95</ele>
        <time>2015-09-27T07:10:25Z</time>
      </trkpt>
      <trkpt lat="45.67468" lon="5.26963">
        <ele>302.95</ele>
        <time>2015-09-27T07:10:34Z</time>
      </trkpt>
      <trkpt lat="45.67452" lon="5.26988">
        <ele>302.95</ele>
        <time>2015-09-27T07:10:43Z</time>
      </trkpt>
      <trkpt lat="45.67439" lon="5.27014">
        <ele>302.95</ele>
        <time>2015-09-27T07:10:51Z</time>
      </trkpt>
      <trkpt lat="45.67427" lon="5.27044">
        <ele>302.47</ele>
        <time>2015-09-27T07:11:00Z</time>
      </trkpt>
      <trkpt lat="45.67417" lon="5.27068">
        <ele>302.47</ele>
        <time>2015-09-27T07:11:08Z</time>
      </trkpt>
      <trkpt lat="45.67404" lon="5.27096">
        <ele>302.47</ele>
        <time>2015-09-27T07:11:17Z</time>
      </trkpt>
      <trkpt lat="45.67393" lon="5.2712">
        <ele>302.95</ele>
        <time>2015-09-27T07:11:26Z</time>
      </trkpt>
      <trkpt lat="45.67383" lon="5.2714">
        <ele>303.43</ele>
        <time>2015-09-27T07:11:34Z</time>
      </trkpt>
      <trkpt lat="45.67374" lon="5.27161">
        <ele>302.95</ele>
        <time>2015-09-27T07:11:41Z</time>
      </trkpt>
      <trkpt lat="45.67361" lon="5.27186">
        <ele>301.99</ele>
        <time>2015-09-27T07:11:50Z</time>
      </trkpt>
      <trkpt lat="45.67344" lon="5.27223">
        <ele>301.51</ele>
        <time>2015-09-27T07:12:00Z</time>
      </trkpt>
      <trkpt lat="45.67341" lon="5.27253">
        <ele>301.51</ele>
        <time>2015-09-27T07:12:09Z</time>
      </trkpt>
      <trkpt lat="45.67344" lon="5.27257">
        <ele>301.51</ele>
        <time>2015-09-27T07:12:11Z</time>
      </trkpt>
      <trkpt lat="45.67361" lon="5.27261">
        <ele>302.47</ele>
        <time>2015-09-27T07:12:20Z</time>
      </trkpt>
      <trkpt lat="45.67372" lon="5.27262">
        <ele>303.91</ele>
        <time>2015-09-27T07:12:27Z</time>
      </trkpt>
      <trkpt lat="45.67385" lon="5.27271">
        <ele>304.39</ele>
        <time>2015-09-27T07:12:35Z</time>
      </trkpt>
      <trkpt lat="45.67407" lon="5.27292">
        <ele>304.88</ele>
        <time>2015-09-27T07:12:44Z</time>
      </trkpt>
      <trkpt lat="45.67429" lon="5.27313">
        <ele>304.88</ele>
        <time>2015-09-27T07:12:54Z</time>
      </trkpt>
      <trkpt lat="45.67448" lon="5.27329">
        <ele>305.84</ele>
        <time>2015-09-27T07:13:03Z</time>
      </trkpt>
      <trkpt lat="45.67461" lon="5.27345">
        <ele>306.8</ele>
        <time>2015-09-27T07:13:11Z</time>
      </trkpt>
      <trkpt lat="45.6747" lon="5.2736">
        <ele>308.72</ele>
        <time>2015-09-27T07:13:18Z</time>
      </trkpt>
      <trkpt lat="45.67478" lon="5.27372">
        <ele>311.12</ele>
        <time>2015-09-27T07:13:27Z</time>
      </trkpt>
      <trkpt lat="45.6749" lon="5.27381">
        <ele>314.01</ele>
        <time>2015-09-27T07:13:37Z</time>
      </trkpt>
      <trkpt lat="45.67499" lon="5.27388">
        <ele>317.37</ele>
        <time>2015-09-27T07:13:48Z</time>
      </trkpt>
      <trkpt lat="45.67511" lon="5.27393">
        <ele>319.78</ele>
        <time>2015-09-27T07:13:58Z</time>
      </trkpt>
      <trkpt lat="45.67527" lon="5.27395">
        <ele>321.7</ele>
        <time>2015-09-27T07:14:08Z</time>
      </trkpt>
      <trkpt lat="45.67541" lon="5.27395">
        <ele>323.62</ele>
        <time>2015-09-27T07:14:16Z</time>
      </trkpt>
      <trkpt lat="45.67556" lon="5.27392">
        <ele>326.02</ele>
        <time>2015-09-27T07:14:26Z</time>
      </trkpt>
      <trkpt lat="45.67572" lon="5.27386">
        <ele>328.91</ele>
        <time>2015-09-27T07:14:36Z</time>
      </trkpt>
      <trkpt lat="45.67582" lon="5.27386">
        <ele>330.83</ele>
        <time>2015-09-27T07:14:45Z</time>
      </trkpt>
      <trkpt lat="45.67592" lon="5.27387">
        <ele>332.27</ele>
        <time>2015-09-27T07:14:52Z</time>
      </trkpt>
      <trkpt lat="45.67606" lon="5.27385">
        <ele>335.16</ele>
        <time>2015-09-27T07:15:02Z</time>
      </trkpt>
      <trkpt lat="45.67615" lon="5.27379">
        <ele>336.6</ele>
        <time>2015-09-27T07:15:11Z</time>
      </trkpt>
      <trkpt lat="45.67623" lon="5.27376">
        <ele>337.56</ele>
        <time>2015-09-27T07:15:19Z</time>
      </trkpt>
      <trkpt lat="45.67639" lon="5.27367">
        <ele>339.48</ele>
        <time>2015-09-27T07:15:30Z</time>
      </trkpt>
      <trkpt lat="45.67656" lon="5.27359">
        <ele>339.96</ele>
        <time>2015-09-27T07:15:39Z</time>
      </trkpt>
      <trkpt lat="45.67672" lon="5.27355">
        <ele>340.44</ele>
        <time>2015-09-27T07:15:47Z</time>
      </trkpt>
      <trkpt lat="45.67692" lon="5.27354">
        <ele>340.92</ele>
        <time>2015-09-27T07:15:55Z</time>
      </trkpt>
      <trkpt lat="45.67707" lon="5.27349">
        <ele>341.89</ele>
        <time>2015-09-27T07:16:04Z</time>
      </trkpt>
      <trkpt lat="45.67713" lon="5.27343">
        <ele>343.33</ele>
        <time>2015-09-27T07:16:11Z</time>
      </trkpt>
      <trkpt lat="45.67729" lon="5.27339">
        <ele>343.33</ele>
        <time>2015-09-27T07:16:19Z</time>
      </trkpt>
      <trkpt lat="45.67744" lon="5.27335">
        <ele>343.33</ele>
        <time>2015-09-27T07:16:26Z</time>
      </trkpt>
      <trkpt lat="45.67763" lon="5.2733">
        <ele>343.81</ele>
        <time>2015-09-27T07:16:36Z</time>
      </trkpt>
      <trkpt lat="45.67788" lon="5.27334">
        <ele>344.29</ele>
        <time>2015-09-27T07:16:47Z</time>
      </trkpt>
      <trkpt lat="45.67812" lon="5.27334">
        <ele>344.29</ele>
        <time>2015-09-27T07:16:56Z</time>
      </trkpt>
      <trkpt lat="45.6783" lon="5.27336">
        <ele>345.25</ele>
        <time>2015-09-27T07:17:03Z</time>
      </trkpt>
      <trkpt lat="45.67851" lon="5.27344">
        <ele>345.73</ele>
        <time>2015-09-27T07:17:10Z</time>
      </trkpt>
      <trkpt lat="45.67871" lon="5.27344">
        <ele>345.73</ele>
        <time>2015-09-27T07:17:18Z</time>
      </trkpt>
      <trkpt lat="45.67891" lon="5.2734">
        <ele>344.77</ele>
        <time>2015-09-27T07:17:27Z</time>
      </trkpt>
      <trkpt lat="45.67908" lon="5.27327">
        <ele>343.33</ele>
        <time>2015-09-27T07:17:34Z</time>
      </trkpt>
      <trkpt lat="45.67925" lon="5.27317">
        <ele>342.37</ele>
        <time>2015-09-27T07:17:41Z</time>
      </trkpt>
      <trkpt lat="45.67946" lon="5.27312">
        <ele>341.41</ele>
        <time>2015-09-27T07:17:50Z</time>
      </trkpt>
      <trkpt lat="45.67969" lon="5.27312">
        <ele>340.92</ele>
        <time>2015-09-27T07:17:59Z</time>
      </trkpt>
      <trkpt lat="45.67987" lon="5.27306">
        <ele>340.92</ele>
        <time>2015-09-27T07:18:08Z</time>
      </trkpt>
      <trkpt lat="45.67997" lon="5.27288">
        <ele>340.44</ele>
        <time>2015-09-27T07:18:17Z</time>
      </trkpt>
      <trkpt lat="45.68013" lon="5.27271">
        <ele>341.89</ele>
        <time>2015-09-27T07:18:25Z</time>
      </trkpt>
      <trkpt lat="45.68034" lon="5.27251">
        <ele>341.89</ele>
        <time>2015-09-27T07:18:36Z</time>
      </trkpt>
      <trkpt lat="45.68051" lon="5.27244">
        <ele>341.89</ele>
        <time>2015-09-27T07:18:44Z</time>
      </trkpt>
      <trkpt lat="45.68071" lon="5.27233">
        <ele>341.89</ele>
        <time>2015-09-27T07:18:53Z</time>
      </trkpt>
      <trkpt lat="45.68086" lon="5.27223">
        <ele>341.41</ele>
        <time>2015-09-27T07:19:01Z</time>
      </trkpt>
      <trkpt lat="45.68116" lon="5.27218">
        <ele>341.89</ele>
        <time>2015-09-27T07:19:12Z</time>
      </trkpt>
      <trkpt lat="45.68138" lon="5.27219">
        <ele>341.89</ele>
        <time>2015-09-27T07:19:21Z</time>
      </trkpt>
      <trkpt lat="45.68155" lon="5.27221">
        <ele>341.41</ele>
        <time>2015-09-27T07:19:29Z</time>
      </trkpt>
      <trkpt lat="45.68173" lon="5.27229">
        <ele>341.89</ele>
        <time>2015-09-27T07:19:37Z</time>
      </trkpt>
      <trkpt lat="45.68193" lon="5.27234">
        <ele>342.85</ele>
        <time>2015-09-27T07:19:45Z</time>
      </trkpt>
      <trkpt lat="45.68219" lon="5.27239">
        <ele>342.37</ele>
        <time>2015-09-27T07:19:55Z</time>
      </trkpt>
      <trkpt lat="45.68243" lon="5.27244">
        <ele>340.92</ele>
        <time>2015-09-27T07:20:04Z</time>
      </trkpt>
      <trkpt lat="45.68266" lon="5.2725">
        <ele>341.41</ele>
        <time>2015-09-27T07:20:13Z</time>
      </trkpt>
      <trkpt lat="45.68282" lon="5.27255">
        <ele>342.85</ele>
        <time>2015-09-27T07:20:21Z</time>
      </trkpt>
      <trkpt lat="45.68299" lon="5.27273">
        <ele>344.77</ele>
        <time>2015-09-27T07:20:31Z</time>
      </trkpt>
      <trkpt lat="45.68317" lon="5.273">
        <ele>345.73</ele>
        <time>2015-09-27T07:20:44Z</time>
      </trkpt>
      <trkpt lat="45.68329" lon="5.27321">
        <ele>346.21</ele>
        <time>2015-09-27T07:20:53Z</time>
      </trkpt>
      <trkpt lat="45.68357" lon="5.27357">
        <ele>346.69</ele>
        <time>2015-09-27T07:21:05Z</time>
      </trkpt>
      <trkpt lat="45.6837" lon="5.27379">
        <ele>347.65</ele>
        <time>2015-09-27T07:21:13Z</time>
      </trkpt>
      <trkpt lat="45.68381" lon="5.27402">
        <ele>349.1</ele>
        <time>2015-09-27T07:21:22Z</time>
      </trkpt>
      <trkpt lat="45.68392" lon="5.2743">
        <ele>350.06</ele>
        <time>2015-09-27T07:21:34Z</time>
      </trkpt>
      <trkpt lat="45.68401" lon="5.27451">
        <ele>351.02</ele>
        <time>2015-09-27T07:21:43Z</time>
      </trkpt>
      <trkpt lat="45.68415" lon="5.27469">
        <ele>351.5</ele>
        <time>2015-09-27T07:21:52Z</time>
      </trkpt>
      <trkpt lat="45.68428" lon="5.27478">
        <ele>351.98</ele>
        <time>2015-09-27T07:22:00Z</time>
      </trkpt>
      <trkpt lat="45.68442" lon="5.27487">
        <ele>351.5</ele>
        <time>2015-09-27T07:22:07Z</time>
      </trkpt>
      <trkpt lat="45.68459" lon="5.27496">
        <ele>351.5</ele>
        <time>2015-09-27T07:22:16Z</time>
      </trkpt>
      <trkpt lat="45.68476" lon="5.27503">
        <ele>351.5</ele>
        <time>2015-09-27T07:22:25Z</time>
      </trkpt>
      <trkpt lat="45.68492" lon="5.27515">
        <ele>351.5</ele>
        <time>2015-09-27T07:22:34Z</time>
      </trkpt>
      <trkpt lat="45.68496" lon="5.27517">
        <ele>351.5</ele>
        <time>2015-09-27T07:22:36Z</time>
      </trkpt>
      <trkpt lat="45.68517" lon="5.27525">
        <ele>351.98</ele>
        <time>2015-09-27T07:22:46Z</time>
      </trkpt>
      <trkpt lat="45.68534" lon="5.27526">
        <ele>352.46</ele>
        <time>2015-09-27T07:22:53Z</time>
      </trkpt>
      <trkpt lat="45.68548" lon="5.27532">
        <ele>352.94</ele>
        <time>2015-09-27T07:23:02Z</time>
      </trkpt>
      <trkpt lat="45.68564" lon="5.2754">
        <ele>354.86</ele>
        <time>2015-09-27T07:23:14Z</time>
      </trkpt>
      <trkpt lat="45.6858" lon="5.2755">
        <ele>355.83</ele>
        <time>2015-09-27T07:23:22Z</time>
      </trkpt>
      <trkpt lat="45.68584" lon="5.27552">
        <ele>355.83</ele>
        <time>2015-09-27T07:23:24Z</time>
      </trkpt>
      <trkpt lat="45.68608" lon="5.27558">
        <ele>356.31</ele>
        <time>2015-09-27T07:23:34Z</time>
      </trkpt>
      <trkpt lat="45.68627" lon="5.27573">
        <ele>356.79</ele>
        <time>2015-09-27T07:23:44Z</time>
      </trkpt>
      <trkpt lat="45.68648" lon="5.27587">
        <ele>357.75</ele>
        <time>2015-09-27T07:23:53Z</time>
      </trkpt>
      <trkpt lat="45.68667" lon="5.276">
        <ele>358.71</ele>
        <time>2015-09-27T07:24:03Z</time>
      </trkpt>
      <trkpt lat="45.6868" lon="5.27618">
        <ele>359.67</ele>
        <time>2015-09-27T07:24:11Z</time>
      </trkpt>
      <trkpt lat="45.68685" lon="5.27635">
        <ele>360.63</ele>
        <time>2015-09-27T07:24:17Z</time>
      </trkpt>
      <trkpt lat="45.68688" lon="5.27655">
        <ele>360.15</ele>
        <time>2015-09-27T07:24:24Z</time>
      </trkpt>
      <trkpt lat="45.68697" lon="5.27685">
        <ele>359.19</ele>
        <time>2015-09-27T07:24:34Z</time>
      </trkpt>
      <trkpt lat="45.68709" lon="5.27712">
        <ele>358.23</ele>
        <time>2015-09-27T07:24:43Z</time>
      </trkpt>
      <trkpt lat="45.68723" lon="5.27737">
        <ele>357.27</ele>
        <time>2015-09-27T07:24:52Z</time>
      </trkpt>
      <trkpt lat="45.68741" lon="5.27759">
        <ele>355.83</ele>
        <time>2015-09-27T07:25:00Z</time>
      </trkpt>
      <trkpt lat="45.68764" lon="5.2778">
        <ele>354.38</ele>
        <time>2015-09-27T07:25:09Z</time>
      </trkpt>
      <trkpt lat="45.68781" lon="5.278">
        <ele>353.9</ele>
        <time>2015-09-27T07:25:20Z</time>
      </trkpt>
      <trkpt lat="45.68792" lon="5.27818">
        <ele>351.98</ele>
        <time>2015-09-27T07:25:29Z</time>
      </trkpt>
      <trkpt lat="45.68809" lon="5.27838">
        <ele>350.54</ele>
        <time>2015-09-27T07:25:37Z</time>
      </trkpt>
      <trkpt lat="45.68821" lon="5.27854">
        <ele>349.1</ele>
        <time>2015-09-27T07:25:45Z</time>
      </trkpt>
      <trkpt lat="45.68836" lon="5.27877">
        <ele>348.13</ele>
        <time>2015-09-27T07:25:53Z</time>
      </trkpt>
      <trkpt lat="45.68846" lon="5.27896">
        <ele>347.65</ele>
        <time>2015-09-27T07:25:59Z</time>
      </trkpt>
      <trkpt lat="45.68858" lon="5.27916">
        <ele>346.69</ele>
        <time>2015-09-27T07:26:07Z</time>
      </trkpt>
      <trkpt lat="45.68869" lon="5.27938">
        <ele>346.21</ele>
        <time>2015-09-27T07:26:15Z</time>
      </trkpt>
      <trkpt lat="45.68881" lon="5.27958">
        <ele>345.73</ele>
        <time>2015-09-27T07:26:23Z</time>
      </trkpt>
      <trkpt lat="45.68899" lon="5.27981">
        <ele>345.73</ele>
        <time>2015-09-27T07:26:31Z</time>
      </trkpt>
      <trkpt lat="45.68914" lon="5.28">
        <ele>345.25</ele>
        <time>2015-09-27T07:26:38Z</time>
      </trkpt>
      <trkpt lat="45.68936" lon="5.28018">
        <ele>344.77</ele>
        <time>2015-09-27T07:26:45Z</time>
      </trkpt>
      <trkpt lat="45.68948" lon="5.28037">
        <ele>344.77</ele>
        <time>2015-09-27T07:26:53Z</time>
      </trkpt>
      <trkpt lat="45.68966" lon="5.2805">
        <ele>344.77</ele>
        <time>2015-09-27T07:27:02Z</time>
      </trkpt>
      <trkpt lat="45.68979" lon="5.28055">
        <ele>342.85</ele>
        <time>2015-09-27T07:27:08Z</time>
      </trkpt>
      <trkpt lat="45.68982" lon="5.28056">
        <ele>342.37</ele>
        <time>2015-09-27T07:27:10Z</time>
      </trkpt>
      <trkpt lat="45.68986" lon="5.28056">
        <ele>341.41</ele>
        <time>2015-09-27T07:27:12Z</time>
      </trkpt>
      <trkpt lat="45.69007" lon="5.28057">
        <ele>337.56</ele>
        <time>2015-09-27T07:27:21Z</time>
      </trkpt>
      <trkpt lat="45.69022" lon="5.28061">
        <ele>334.2</ele>
        <time>2015-09-27T07:27:27Z</time>
      </trkpt>
      <trkpt lat="45.69036" lon="5.28066">
        <ele>331.31</ele>
        <time>2015-09-27T07:27:35Z</time>
      </trkpt>
      <trkpt lat="45.69054" lon="5.28068">
        <ele>329.39</ele>
        <time>2015-09-27T07:27:43Z</time>
      </trkpt>
      <trkpt lat="45.69079" lon="5.28071">
        <ele>327.95</ele>
        <time>2015-09-27T07:27:53Z</time>
      </trkpt>
      <trkpt lat="45.69101" lon="5.28077">
        <ele>325.06</ele>
        <time>2015-09-27T07:28:01Z</time>
      </trkpt>
      <trkpt lat="45.69123" lon="5.28094">
        <ele>323.14</ele>
        <time>2015-09-27T07:28:10Z</time>
      </trkpt>
      <trkpt lat="45.69132" lon="5.281">
        <ele>323.14</ele>
        <time>2015-09-27T07:28:15Z</time>
      </trkpt>
      <trkpt lat="45.69154" lon="5.28102">
        <ele>323.62</ele>
        <time>2015-09-27T07:28:26Z</time>
      </trkpt>
      <trkpt lat="45.69173" lon="5.28102">
        <ele>324.1</ele>
        <time>2015-09-27T07:28:33Z</time>
      </trkpt>
      <trkpt lat="45.69177" lon="5.28101">
        <ele>324.1</ele>
        <time>2015-09-27T07:28:35Z</time>
      </trkpt>
      <trkpt lat="45.6919" lon="5.28101">
        <ele>322.66</ele>
        <time>2015-09-27T07:28:41Z</time>
      </trkpt>
      <trkpt lat="45.69196" lon="5.28099">
        <ele>322.66</ele>
        <time>2015-09-27T07:28:43Z</time>
      </trkpt>
      <trkpt lat="45.69213" lon="5.28094">
        <ele>322.18</ele>
        <time>2015-09-27T07:28:51Z</time>
      </trkpt>
      <trkpt lat="45.69236" lon="5.2809">
        <ele>322.18</ele>
        <time>2015-09-27T07:28:58Z</time>
      </trkpt>
      <trkpt lat="45.69261" lon="5.28093">
        <ele>322.18</ele>
        <time>2015-09-27T07:29:06Z</time>
      </trkpt>
      <trkpt lat="45.69275" lon="5.28104">
        <ele>319.3</ele>
        <time>2015-09-27T07:29:14Z</time>
      </trkpt>
      <trkpt lat="45.69294" lon="5.2812">
        <ele>315.93</ele>
        <time>2015-09-27T07:29:22Z</time>
      </trkpt>
      <trkpt lat="45.6931" lon="5.28137">
        <ele>314.97</ele>
        <time>2015-09-27T07:29:29Z</time>
      </trkpt>
      <trkpt lat="45.69325" lon="5.28148">
        <ele>314.97</ele>
        <time>2015-09-27T07:29:37Z</time>
      </trkpt>
      <trkpt lat="45.69334" lon="5.28161">
        <ele>314.97</ele>
        <time>2015-09-27T07:29:43Z</time>
      </trkpt>
      <trkpt lat="45.69347" lon="5.28181">
        <ele>315.93</ele>
        <time>2015-09-27T07:29:50Z</time>
      </trkpt>
      <trkpt lat="45.6936" lon="5.28198">
        <ele>316.89</ele>
        <time>2015-09-27T07:29:57Z</time>
      </trkpt>
      <trkpt lat="45.69374" lon="5.28214">
        <ele>318.33</ele>
        <time>2015-09-27T07:30:05Z</time>
      </trkpt>
      <trkpt lat="45.69394" lon="5.28239">
        <ele>318.81</ele>
        <time>2015-09-27T07:30:14Z</time>
      </trkpt>
      <trkpt lat="45.69408" lon="5.28251">
        <ele>318.33</ele>
        <time>2015-09-27T07:30:21Z</time>
      </trkpt>
      <trkpt lat="45.69424" lon="5.28264">
        <ele>316.41</ele>
        <time>2015-09-27T07:30:28Z</time>
      </trkpt>
      <trkpt lat="45.69442" lon="5.28274">
        <ele>313.53</ele>
        <time>2015-09-27T07:30:36Z</time>
      </trkpt>
      <trkpt lat="45.69453" lon="5.28283">
        <ele>311.12</ele>
        <time>2015-09-27T07:30:43Z</time>
      </trkpt>
      <trkpt lat="45.69471" lon="5.28288">
        <ele>307.76</ele>
        <time>2015-09-27T07:30:51Z</time>
      </trkpt>
      <trkpt lat="45.69492" lon="5.28299">
        <ele>304.88</ele>
        <time>2015-09-27T07:30:59Z</time>
      </trkpt>
      <trkpt lat="45.69508" lon="5.28306">
        <ele>301.99</ele>
        <time>2015-09-27T07:31:05Z</time>
      </trkpt>
      <trkpt lat="45.69525" lon="5.2831">
        <ele>299.59</ele>
        <time>2015-09-27T07:31:12Z</time>
      </trkpt>
      <trkpt lat="45.69545" lon="5.28312">
        <ele>296.7</ele>
        <time>2015-09-27T07:31:19Z</time>
      </trkpt>
      <trkpt lat="45.69558" lon="5.28316">
        <ele>293.34</ele>
        <time>2015-09-27T07:31:27Z</time>
      </trkpt>
      <trkpt lat="45.69576" lon="5.28323">
        <ele>290.94</ele>
        <time>2015-09-27T07:31:34Z</time>
      </trkpt>
      <trkpt lat="45.69598" lon="5.28323">
        <ele>288.53</ele>
        <time>2015-09-27T07:31:42Z</time>
      </trkpt>
      <trkpt lat="45.6962" lon="5.28315">
        <ele>288.05</ele>
        <time>2015-09-27T07:31:51Z</time>
      </trkpt>
      <trkpt lat="45.69633" lon="5.28307">
        <ele>288.53</ele>
        <time>2015-09-27T07:31:57Z</time>
      </trkpt>
      <trkpt lat="45.6965" lon="5.28306">
        <ele>288.53</ele>
        <time>2015-09-27T07:32:05Z</time>
      </trkpt>
      <trkpt lat="45.69663" lon="5.28317">
        <ele>287.09</ele>
        <time>2015-09-27T07:32:13Z</time>
      </trkpt>
      <trkpt lat="45.69677" lon="5.28334">
        <ele>285.65</ele>
        <time>2015-09-27T07:32:24Z</time>
      </trkpt>
      <trkpt lat="45.69688" lon="5.28358">
        <ele>285.65</ele>
        <time>2015-09-27T07:32:35Z</time>
      </trkpt>
      <trkpt lat="45.69696" lon="5.28379">
        <ele>285.17</ele>
        <time>2015-09-27T07:32:44Z</time>
      </trkpt>
      <trkpt lat="45.69704" lon="5.28394">
        <ele>285.17</ele>
        <time>2015-09-27T07:32:53Z</time>
      </trkpt>
      <trkpt lat="45.6971" lon="5.2841">
        <ele>285.17</ele>
        <time>2015-09-27T07:33:03Z</time>
      </trkpt>
      <trkpt lat="45.69717" lon="5.2842">
        <ele>285.17</ele>
        <time>2015-09-27T07:33:10Z</time>
      </trkpt>
      <trkpt lat="45.69718" lon="5.28425">
        <ele>285.65</ele>
        <time>2015-09-27T07:33:18Z</time>
      </trkpt>
      <trkpt lat="45.69722" lon="5.28432">
        <ele>285.65</ele>
        <time>2015-09-27T07:33:23Z</time>
      </trkpt>
      <trkpt lat="45.6973" lon="5.28452">
        <ele>287.09</ele>
        <time>2015-09-27T07:33:36Z</time>
      </trkpt>
      <trkpt lat="45.6974" lon="5.28478">
        <ele>288.05</ele>
        <time>2015-09-27T07:33:45Z</time>
      </trkpt>
      <trkpt lat="45.69756" lon="5.28512">
        <ele>288.53</ele>
        <time>2015-09-27T07:33:55Z</time>
      </trkpt>
      <trkpt lat="45.69762" lon="5.28541">
        <ele>288.53</ele>
        <time>2015-09-27T07:34:05Z</time>
      </trkpt>
      <trkpt lat="45.6976" lon="5.28537">
        <ele>288.05</ele>
        <time>2015-09-27T07:34:09Z</time>
      </trkpt>
      <trkpt lat="45.69759" lon="5.28512">
        <ele>288.53</ele>
        <time>2015-09-27T07:34:17Z</time>
      </trkpt>
      <trkpt lat="45.69751" lon="5.28491">
        <ele>288.05</ele>
        <time>2015-09-27T07:34:24Z</time>
      </trkpt>
      <trkpt lat="45.69741" lon="5.28452">
        <ele>287.57</ele>
        <time>2015-09-27T07:34:34Z</time>
      </trkpt>
      <trkpt lat="45.6973" lon="5.28426">
        <ele>286.13</ele>
        <time>2015-09-27T07:34:42Z</time>
      </trkpt>
      <trkpt lat="45.69723" lon="5.28411">
        <ele>285.65</ele>
        <time>2015-09-27T07:34:48Z</time>
      </trkpt>
      <trkpt lat="45.69713" lon="5.28396">
        <ele>285.17</ele>
        <time>2015-09-27T07:34:55Z</time>
      </trkpt>
      <trkpt lat="45.69704" lon="5.28374">
        <ele>285.17</ele>
        <time>2015-09-27T07:35:04Z</time>
      </trkpt>
      <trkpt lat="45.69691" lon="5.28343">
        <ele>285.17</ele>
        <time>2015-09-27T07:35:15Z</time>
      </trkpt>
      <trkpt lat="45.69679" lon="5.28329">
        <ele>285.65</ele>
        <time>2015-09-27T07:35:23Z</time>
      </trkpt>
      <trkpt lat="45.69672" lon="5.28312">
        <ele>286.61</ele>
        <time>2015-09-27T07:35:34Z</time>
      </trkpt>
      <trkpt lat="45.69667" lon="5.28306">
        <ele>287.09</ele>
        <time>2015-09-27T07:35:41Z</time>
      </trkpt>
      <trkpt lat="45.69661" lon="5.28296">
        <ele>288.05</ele>
        <time>2015-09-27T07:35:49Z</time>
      </trkpt>
      <trkpt lat="45.69645" lon="5.28293">
        <ele>288.05</ele>
        <time>2015-09-27T07:35:58Z</time>
      </trkpt>
      <trkpt lat="45.69632" lon="5.28298">
        <ele>288.05</ele>
        <time>2015-09-27T07:36:05Z</time>
      </trkpt>
      <trkpt lat="45.69616" lon="5.28308">
        <ele>288.05</ele>
        <time>2015-09-27T07:36:13Z</time>
      </trkpt>
      <trkpt lat="45.69601" lon="5.28317">
        <ele>289.01</ele>
        <time>2015-09-27T07:36:21Z</time>
      </trkpt>
      <trkpt lat="45.69591" lon="5.28314">
        <ele>289.97</ele>
        <time>2015-09-27T07:36:28Z</time>
      </trkpt>
      <trkpt lat="45.6958" lon="5.28309">
        <ele>291.9</ele>
        <time>2015-09-27T07:36:36Z</time>
      </trkpt>
      <trkpt lat="45.69557" lon="5.28307">
        <ele>294.78</ele>
        <time>2015-09-27T07:36:48Z</time>
      </trkpt>
      <trkpt lat="45.69544" lon="5.28305">
        <ele>297.18</ele>
        <time>2015-09-27T07:36:57Z</time>
      </trkpt>
      <trkpt lat="45.69538" lon="5.28303">
        <ele>298.15</ele>
        <time>2015-09-27T07:37:02Z</time>
      </trkpt>
      <trkpt lat="45.69527" lon="5.28286">
        <ele>301.51</ele>
        <time>2015-09-27T07:37:16Z</time>
      </trkpt>
      <trkpt lat="45.69525" lon="5.2827">
        <ele>304.39</ele>
        <time>2015-09-27T07:37:28Z</time>
      </trkpt>
      <trkpt lat="45.69531" lon="5.28258">
        <ele>306.32</ele>
        <time>2015-09-27T07:37:38Z</time>
      </trkpt>
      <trkpt lat="45.69537" lon="5.28247">
        <ele>308.24</ele>
        <time>2015-09-27T07:37:52Z</time>
      </trkpt>
      <trkpt lat="45.69555" lon="5.28236">
        <ele>311.12</ele>
        <time>2015-09-27T07:38:13Z</time>
      </trkpt>
      <trkpt lat="45.69563" lon="5.28221">
        <ele>312.09</ele>
        <time>2015-09-27T07:38:28Z</time>
      </trkpt>
      <trkpt lat="45.69576" lon="5.28208">
        <ele>313.05</ele>
        <time>2015-09-27T07:38:42Z</time>
      </trkpt>
      <trkpt lat="45.6959" lon="5.28184">
        <ele>314.01</ele>
        <time>2015-09-27T07:38:57Z</time>
      </trkpt>
      <trkpt lat="45.69612" lon="5.28173">
        <ele>314.97</ele>
        <time>2015-09-27T07:39:12Z</time>
      </trkpt>
      <trkpt lat="45.69624" lon="5.28157">
        <ele>314.49</ele>
        <time>2015-09-27T07:39:29Z</time>
      </trkpt>
      <trkpt lat="45.69636" lon="5.28129">
        <ele>315.45</ele>
        <time>2015-09-27T07:39:47Z</time>
      </trkpt>
      <trkpt lat="45.69652" lon="5.28113">
        <ele>316.41</ele>
        <time>2015-09-27T07:40:00Z</time>
      </trkpt>
      <trkpt lat="45.69663" lon="5.28091">
        <ele>317.85</ele>
        <time>2015-09-27T07:40:19Z</time>
      </trkpt>
      <trkpt lat="45.69689" lon="5.28055">
        <ele>319.78</ele>
        <time>2015-09-27T07:40:39Z</time>
      </trkpt>
      <trkpt lat="45.697" lon="5.28031">
        <ele>320.74</ele>
        <time>2015-09-27T07:40:55Z</time>
      </trkpt>
      <trkpt lat="45.69717" lon="5.28007">
        <ele>320.74</ele>
        <time>2015-09-27T07:41:15Z</time>
      </trkpt>
      <trkpt lat="45.6973" lon="5.2799">
        <ele>320.74</ele>
        <time>2015-09-27T07:41:31Z</time>
      </trkpt>
      <trkpt lat="45.69748" lon="5.27972">
        <ele>321.22</ele>
        <time>2015-09-27T07:41:50Z</time>
      </trkpt>
      <trkpt lat="45.69758" lon="5.27954">
        <ele>322.18</ele>
        <time>2015-09-27T07:42:02Z</time>
      </trkpt>
      <trkpt lat="45.69765" lon="5.27938">
        <ele>322.18</ele>
        <time>2015-09-27T07:42:14Z</time>
      </trkpt>
      <trkpt lat="45.6978" lon="5.27922">
        <ele>321.7</ele>
        <time>2015-09-27T07:42:30Z</time>
      </trkpt>
      <trkpt lat="45.69799" lon="5.27919">
        <ele>319.78</ele>
        <time>2015-09-27T07:42:38Z</time>
      </trkpt>
      <trkpt lat="45.69818" lon="5.27912">
        <ele>320.26</ele>
        <time>2015-09-27T07:42:46Z</time>
      </trkpt>
      <trkpt lat="45.69835" lon="5.27908">
        <ele>320.74</ele>
        <time>2015-09-27T07:42:54Z</time>
      </trkpt>
      <trkpt lat="45.69851" lon="5.27907">
        <ele>322.18</ele>
        <time>2015-09-27T07:43:03Z</time>
      </trkpt>
      <trkpt lat="45.6987" lon="5.279">
        <ele>323.14</ele>
        <time>2015-09-27T07:43:12Z</time>
      </trkpt>
      <trkpt lat="45.6989" lon="5.27896">
        <ele>322.66</ele>
        <time>2015-09-27T07:43:19Z</time>
      </trkpt>
      <trkpt lat="45.69904" lon="5.27898">
        <ele>321.7</ele>
        <time>2015-09-27T07:43:26Z</time>
      </trkpt>
      <trkpt lat="45.6992" lon="5.27911">
        <ele>319.78</ele>
        <time>2015-09-27T07:43:34Z</time>
      </trkpt>
      <trkpt lat="45.69935" lon="5.27924">
        <ele>318.81</ele>
        <time>2015-09-27T07:43:41Z</time>
      </trkpt>
      <trkpt lat="45.69947" lon="5.27935">
        <ele>319.3</ele>
        <time>2015-09-27T07:43:47Z</time>
      </trkpt>
      <trkpt lat="45.69962" lon="5.27951">
        <ele>319.3</ele>
        <time>2015-09-27T07:43:55Z</time>
      </trkpt>
      <trkpt lat="45.69968" lon="5.27955">
        <ele>319.3</ele>
        <time>2015-09-27T07:43:58Z</time>
      </trkpt>
      <trkpt lat="45.69991" lon="5.27962">
        <ele>320.26</ele>
        <time>2015-09-27T07:44:07Z</time>
      </trkpt>
      <trkpt lat="45.70008" lon="5.27973">
        <ele>320.74</ele>
        <time>2015-09-27T07:44:15Z</time>
      </trkpt>
      <trkpt lat="45.70023" lon="5.27984">
        <ele>321.22</ele>
        <time>2015-09-27T07:44:23Z</time>
      </trkpt>
      <trkpt lat="45.70037" lon="5.28001">
        <ele>321.22</ele>
        <time>2015-09-27T07:44:31Z</time>
      </trkpt>
      <trkpt lat="45.70051" lon="5.28029">
        <ele>320.74</ele>
        <time>2015-09-27T07:44:40Z</time>
      </trkpt>
      <trkpt lat="45.70056" lon="5.28053">
        <ele>319.3</ele>
        <time>2015-09-27T07:44:48Z</time>
      </trkpt>
      <trkpt lat="45.70064" lon="5.28063">
        <ele>318.81</ele>
        <time>2015-09-27T07:44:53Z</time>
      </trkpt>
      <trkpt lat="45.70082" lon="5.28045">
        <ele>320.26</ele>
        <time>2015-09-27T07:45:06Z</time>
      </trkpt>
      <trkpt lat="45.70094" lon="5.2803">
        <ele>321.7</ele>
        <time>2015-09-27T07:45:16Z</time>
      </trkpt>
      <trkpt lat="45.70093" lon="5.2803">
        <ele>322.18</ele>
        <time>2015-09-27T07:45:18Z</time>
      </trkpt>
      <trkpt lat="45.70076" lon="5.28048">
        <ele>320.74</ele>
        <time>2015-09-27T07:45:34Z</time>
      </trkpt>
      <trkpt lat="45.70059" lon="5.28066">
        <ele>319.3</ele>
        <time>2015-09-27T07:45:43Z</time>
      </trkpt>
      <trkpt lat="45.70053" lon="5.28091">
        <ele>316.89</ele>
        <time>2015-09-27T07:45:50Z</time>
      </trkpt>
      <trkpt lat="45.7005" lon="5.28116">
        <ele>314.97</ele>
        <time>2015-09-27T07:45:57Z</time>
      </trkpt>
      <trkpt lat="45.70047" lon="5.28143">
        <ele>313.05</ele>
        <time>2015-09-27T07:46:05Z</time>
      </trkpt>
      <trkpt lat="45.70044" lon="5.28167">
        <ele>312.09</ele>
        <time>2015-09-27T07:46:12Z</time>
      </trkpt>
      <trkpt lat="45.70042" lon="5.28195">
        <ele>310.16</ele>
        <time>2015-09-27T07:46:21Z</time>
      </trkpt>
      <trkpt lat="45.70043" lon="5.282">
        <ele>313.05</ele>
        <time>2015-09-27T07:46:28Z</time>
      </trkpt>
      <trkpt lat="45.70043" lon="5.282">
        <ele>313.05</ele>
        <time>2015-09-27T07:46:29Z</time>
      </trkpt>
      <trkpt lat="45.70043" lon="5.282">
        <ele>313.05</ele>
        <time>2015-09-27T07:46:32Z</time>
      </trkpt>
      <trkpt lat="45.70061" lon="5.28194">
        <ele>312.57</ele>
        <time>2015-09-27T07:46:41Z</time>
      </trkpt>
      <trkpt lat="45.70078" lon="5.28189">
        <ele>311.6</ele>
        <time>2015-09-27T07:46:49Z</time>
      </trkpt>
      <trkpt lat="45.70099" lon="5.28186">
        <ele>311.12</ele>
        <time>2015-09-27T07:46:58Z</time>
      </trkpt>
      <trkpt lat="45.70119" lon="5.2818">
        <ele>310.64</ele>
        <time>2015-09-27T07:47:08Z</time>
      </trkpt>
      <trkpt lat="45.70135" lon="5.28179">
        <ele>310.64</ele>
        <time>2015-09-27T07:47:15Z</time>
      </trkpt>
      <trkpt lat="45.70155" lon="5.28174">
        <ele>310.16</ele>
        <time>2015-09-27T07:47:22Z</time>
      </trkpt>
      <trkpt lat="45.70173" lon="5.28169">
        <ele>310.16</ele>
        <time>2015-09-27T07:47:30Z</time>
      </trkpt>
      <trkpt lat="45.7019" lon="5.28164">
        <ele>309.2</ele>
        <time>2015-09-27T07:47:38Z</time>
      </trkpt>
      <trkpt lat="45.70206" lon="5.28155">
        <ele>309.2</ele>
        <time>2015-09-27T07:47:47Z</time>
      </trkpt>
      <trkpt lat="45.70233" lon="5.28139">
        <ele>308.24</ele>
        <time>2015-09-27T07:47:58Z</time>
      </trkpt>
      <trkpt lat="45.70255" lon="5.28128">
        <ele>307.76</ele>
        <time>2015-09-27T07:48:06Z</time>
      </trkpt>
      <trkpt lat="45.70269" lon="5.28117">
        <ele>307.76</ele>
        <time>2015-09-27T07:48:13Z</time>
      </trkpt>
      <trkpt lat="45.70287" lon="5.28095">
        <ele>308.24</ele>
        <time>2015-09-27T07:48:23Z</time>
      </trkpt>
      <trkpt lat="45.70303" lon="5.28074">
        <ele>308.24</ele>
        <time>2015-09-27T07:48:33Z</time>
      </trkpt>
      <trkpt lat="45.70317" lon="5.28062">
        <ele>306.8</ele>
        <time>2015-09-27T07:48:41Z</time>
      </trkpt>
      <trkpt lat="45.70328" lon="5.28048">
        <ele>305.84</ele>
        <time>2015-09-27T07:48:48Z</time>
      </trkpt>
      <trkpt lat="45.70355" lon="5.28022">
        <ele>305.36</ele>
        <time>2015-09-27T07:48:58Z</time>
      </trkpt>
      <trkpt lat="45.70376" lon="5.28006">
        <ele>303.43</ele>
        <time>2015-09-27T07:49:06Z</time>
      </trkpt>
      <trkpt lat="45.70388" lon="5.27994">
        <ele>301.03</ele>
        <time>2015-09-27T07:49:12Z</time>
      </trkpt>
      <trkpt lat="45.70398" lon="5.27988">
        <ele>299.59</ele>
        <time>2015-09-27T07:49:16Z</time>
      </trkpt>
      <trkpt lat="45.70414" lon="5.27978">
        <ele>297.67</ele>
        <time>2015-09-27T07:49:23Z</time>
      </trkpt>
      <trkpt lat="45.7043" lon="5.27966">
        <ele>295.74</ele>
        <time>2015-09-27T07:49:30Z</time>
      </trkpt>
      <trkpt lat="45.70447" lon="5.27952">
        <ele>294.78</ele>
        <time>2015-09-27T07:49:39Z</time>
      </trkpt>
      <trkpt lat="45.70463" lon="5.27941">
        <ele>296.22</ele>
        <time>2015-09-27T07:49:46Z</time>
      </trkpt>
      <trkpt lat="45.70484" lon="5.27925">
        <ele>297.67</ele>
        <time>2015-09-27T07:49:56Z</time>
      </trkpt>
      <trkpt lat="45.70503" lon="5.27917">
        <ele>297.67</ele>
        <time>2015-09-27T07:50:04Z</time>
      </trkpt>
      <trkpt lat="45.70517" lon="5.27908">
        <ele>297.18</ele>
        <time>2015-09-27T07:50:11Z</time>
      </trkpt>
      <trkpt lat="45.70528" lon="5.27897">
        <ele>296.7</ele>
        <time>2015-09-27T07:50:16Z</time>
      </trkpt>
      <trkpt lat="45.70554" lon="5.27877">
        <ele>295.74</ele>
        <time>2015-09-27T07:50:27Z</time>
      </trkpt>
      <trkpt lat="45.70572" lon="5.27869">
        <ele>295.26</ele>
        <time>2015-09-27T07:50:35Z</time>
      </trkpt>
      <trkpt lat="45.7059" lon="5.27855">
        <ele>291.9</ele>
        <time>2015-09-27T07:50:44Z</time>
      </trkpt>
      <trkpt lat="45.70607" lon="5.2784">
        <ele>288.53</ele>
        <time>2015-09-27T07:50:53Z</time>
      </trkpt>
      <trkpt lat="45.70623" lon="5.27823">
        <ele>285.65</ele>
        <time>2015-09-27T07:51:02Z</time>
      </trkpt>
      <trkpt lat="45.70646" lon="5.27805">
        <ele>282.77</ele>
        <time>2015-09-27T07:51:12Z</time>
      </trkpt>
      <trkpt lat="45.70664" lon="5.27789">
        <ele>281.8</ele>
        <time>2015-09-27T07:51:21Z</time>
      </trkpt>
      <trkpt lat="45.70686" lon="5.27764">
        <ele>279.4</ele>
        <time>2015-09-27T07:51:32Z</time>
      </trkpt>
      <trkpt lat="45.70709" lon="5.27745">
        <ele>277.96</ele>
        <time>2015-09-27T07:51:41Z</time>
      </trkpt>
      <trkpt lat="45.70724" lon="5.27729">
        <ele>277</ele>
        <time>2015-09-27T07:51:48Z</time>
      </trkpt>
      <trkpt lat="45.70729" lon="5.27725">
        <ele>276.52</ele>
        <time>2015-09-27T07:51:50Z</time>
      </trkpt>
      <trkpt lat="45.70753" lon="5.27705">
        <ele>275.07</ele>
        <time>2015-09-27T07:52:01Z</time>
      </trkpt>
      <trkpt lat="45.70773" lon="5.27685">
        <ele>272.19</ele>
        <time>2015-09-27T07:52:11Z</time>
      </trkpt>
      <trkpt lat="45.70795" lon="5.27665">
        <ele>269.31</ele>
        <time>2015-09-27T07:52:21Z</time>
      </trkpt>
      <trkpt lat="45.70797" lon="5.27664">
        <ele>268.83</ele>
        <time>2015-09-27T07:52:22Z</time>
      </trkpt>
      <trkpt lat="45.70814" lon="5.27676">
        <ele>266.9</ele>
        <time>2015-09-27T07:52:32Z</time>
      </trkpt>
      <trkpt lat="45.70813" lon="5.27684">
        <ele>266.9</ele>
        <time>2015-09-27T07:52:35Z</time>
      </trkpt>
      <trkpt lat="45.70808" lon="5.27711">
        <ele>264.5</ele>
        <time>2015-09-27T07:52:44Z</time>
      </trkpt>
      <trkpt lat="45.70806" lon="5.27741">
        <ele>262.1</ele>
        <time>2015-09-27T07:52:52Z</time>
      </trkpt>
      <trkpt lat="45.70801" lon="5.27771">
        <ele>261.62</ele>
        <time>2015-09-27T07:53:00Z</time>
      </trkpt>
      <trkpt lat="45.70801" lon="5.2779">
        <ele>261.62</ele>
        <time>2015-09-27T07:53:05Z</time>
      </trkpt>
      <trkpt lat="45.70793" lon="5.27826">
        <ele>260.17</ele>
        <time>2015-09-27T07:53:15Z</time>
      </trkpt>
      <trkpt lat="45.70787" lon="5.27845">
        <ele>260.17</ele>
        <time>2015-09-27T07:53:21Z</time>
      </trkpt>
      <trkpt lat="45.7077" lon="5.27864">
        <ele>259.21</ele>
        <time>2015-09-27T07:53:30Z</time>
      </trkpt>
      <trkpt lat="45.70772" lon="5.27869">
        <ele>259.21</ele>
        <time>2015-09-27T07:53:33Z</time>
      </trkpt>
      <trkpt lat="45.70795" lon="5.27881">
        <ele>258.25</ele>
        <time>2015-09-27T07:53:42Z</time>
      </trkpt>
      <trkpt lat="45.70817" lon="5.27897">
        <ele>257.77</ele>
        <time>2015-09-27T07:53:52Z</time>
      </trkpt>
      <trkpt lat="45.70819" lon="5.27923">
        <ele>258.25</ele>
        <time>2015-09-27T07:54:01Z</time>
      </trkpt>
      <trkpt lat="45.70808" lon="5.27951">
        <ele>258.25</ele>
        <time>2015-09-27T07:54:11Z</time>
      </trkpt>
      <trkpt lat="45.70817" lon="5.27967">
        <ele>258.73</ele>
        <time>2015-09-27T07:54:21Z</time>
      </trkpt>
      <trkpt lat="45.70824" lon="5.27985">
        <ele>258.73</ele>
        <time>2015-09-27T07:54:30Z</time>
      </trkpt>
      <trkpt lat="45.70836" lon="5.28007">
        <ele>259.21</ele>
        <time>2015-09-27T07:54:39Z</time>
      </trkpt>
      <trkpt lat="45.70846" lon="5.2803">
        <ele>259.69</ele>
        <time>2015-09-27T07:54:48Z</time>
      </trkpt>
      <trkpt lat="45.70854" lon="5.28052">
        <ele>260.65</ele>
        <time>2015-09-27T07:54:58Z</time>
      </trkpt>
      <trkpt lat="45.7085" lon="5.28061">
        <ele>260.65</ele>
        <time>2015-09-27T07:55:03Z</time>
      </trkpt>
      <trkpt lat="45.7083" lon="5.28079">
        <ele>261.62</ele>
        <time>2015-09-27T07:55:14Z</time>
      </trkpt>
      <trkpt lat="45.70815" lon="5.28098">
        <ele>262.1</ele>
        <time>2015-09-27T07:55:22Z</time>
      </trkpt>
      <trkpt lat="45.70796" lon="5.2811">
        <ele>262.58</ele>
        <time>2015-09-27T07:55:31Z</time>
      </trkpt>
      <trkpt lat="45.70783" lon="5.28125">
        <ele>264.02</ele>
        <time>2015-09-27T07:55:41Z</time>
      </trkpt>
      <trkpt lat="45.70765" lon="5.28147">
        <ele>264.5</ele>
        <time>2015-09-27T07:55:50Z</time>
      </trkpt>
      <trkpt lat="45.70747" lon="5.28167">
        <ele>263.54</ele>
        <time>2015-09-27T07:55:58Z</time>
      </trkpt>
      <trkpt lat="45.70734" lon="5.28181">
        <ele>264.02</ele>
        <time>2015-09-27T07:56:07Z</time>
      </trkpt>
      <trkpt lat="45.70723" lon="5.28203">
        <ele>264.5</ele>
        <time>2015-09-27T07:56:15Z</time>
      </trkpt>
      <trkpt lat="45.70719" lon="5.28211">
        <ele>264.5</ele>
        <time>2015-09-27T07:56:19Z</time>
      </trkpt>
      <trkpt lat="45.70708" lon="5.28223">
        <ele>264.98</ele>
        <time>2015-09-27T07:56:26Z</time>
      </trkpt>
      <trkpt lat="45.70689" lon="5.2825">
        <ele>265.46</ele>
        <time>2015-09-27T07:56:37Z</time>
      </trkpt>
      <trkpt lat="45.70675" lon="5.28272">
        <ele>265.94</ele>
        <time>2015-09-27T07:56:46Z</time>
      </trkpt>
      <trkpt lat="45.70667" lon="5.28291">
        <ele>266.42</ele>
        <time>2015-09-27T07:56:54Z</time>
      </trkpt>
      <trkpt lat="45.70652" lon="5.28319">
        <ele>267.86</ele>
        <time>2015-09-27T07:57:03Z</time>
      </trkpt>
      <trkpt lat="45.70645" lon="5.28352">
        <ele>268.35</ele>
        <time>2015-09-27T07:57:14Z</time>
      </trkpt>
      <trkpt lat="45.70639" lon="5.28387">
        <ele>268.83</ele>
        <time>2015-09-27T07:57:25Z</time>
      </trkpt>
      <trkpt lat="45.7063" lon="5.28406">
        <ele>269.31</ele>
        <time>2015-09-27T07:57:33Z</time>
      </trkpt>
      <trkpt lat="45.70622" lon="5.28427">
        <ele>269.31</ele>
        <time>2015-09-27T07:57:41Z</time>
      </trkpt>
      <trkpt lat="45.70612" lon="5.28446">
        <ele>270.27</ele>
        <time>2015-09-27T07:57:49Z</time>
      </trkpt>
      <trkpt lat="45.70605" lon="5.28479">
        <ele>271.23</ele>
        <time>2015-09-27T07:58:00Z</time>
      </trkpt>
      <trkpt lat="45.706" lon="5.28511">
        <ele>271.71</ele>
        <time>2015-09-27T07:58:10Z</time>
      </trkpt>
      <trkpt lat="45.70591" lon="5.28534">
        <ele>272.19</ele>
        <time>2015-09-27T07:58:18Z</time>
      </trkpt>
      <trkpt lat="45.70583" lon="5.2856">
        <ele>273.15</ele>
        <time>2015-09-27T07:58:27Z</time>
      </trkpt>
      <trkpt lat="45.70577" lon="5.28596">
        <ele>273.15</ele>
        <time>2015-09-27T07:58:38Z</time>
      </trkpt>
      <trkpt lat="45.70569" lon="5.28612">
        <ele>273.63</ele>
        <time>2015-09-27T07:58:45Z</time>
      </trkpt>
      <trkpt lat="45.70561" lon="5.2863">
        <ele>274.11</ele>
        <time>2015-09-27T07:58:53Z</time>
      </trkpt>
      <trkpt lat="45.70553" lon="5.28658">
        <ele>275.07</ele>
        <time>2015-09-27T07:59:03Z</time>
      </trkpt>
      <trkpt lat="45.70546" lon="5.28686">
        <ele>275.56</ele>
        <time>2015-09-27T07:59:12Z</time>
      </trkpt>
      <trkpt lat="45.70542" lon="5.28712">
        <ele>276.52</ele>
        <time>2015-09-27T07:59:21Z</time>
      </trkpt>
      <trkpt lat="45.70537" lon="5.28744">
        <ele>277.96</ele>
        <time>2015-09-27T07:59:31Z</time>
      </trkpt>
      <trkpt lat="45.70526" lon="5.28772">
        <ele>279.4</ele>
        <time>2015-09-27T07:59:41Z</time>
      </trkpt>
      <trkpt lat="45.7052" lon="5.28796">
        <ele>280.84</ele>
        <time>2015-09-27T07:59:51Z</time>
      </trkpt>
      <trkpt lat="45.70512" lon="5.28821">
        <ele>281.32</ele>
        <time>2015-09-27T08:00:01Z</time>
      </trkpt>
      <trkpt lat="45.70504" lon="5.28845">
        <ele>282.28</ele>
        <time>2015-09-27T08:00:09Z</time>
      </trkpt>
      <trkpt lat="45.70508" lon="5.28864">
        <ele>283.73</ele>
        <time>2015-09-27T08:00:17Z</time>
      </trkpt>
      <trkpt lat="45.70509" lon="5.28865">
        <ele>283.73</ele>
        <time>2015-09-27T08:00:18Z</time>
      </trkpt>
      <trkpt lat="45.70519" lon="5.28884">
        <ele>286.13</ele>
        <time>2015-09-27T08:00:31Z</time>
      </trkpt>
      <trkpt lat="45.70531" lon="5.28897">
        <ele>288.05</ele>
        <time>2015-09-27T08:00:41Z</time>
      </trkpt>
      <trkpt lat="45.70539" lon="5.28903">
        <ele>289.97</ele>
        <time>2015-09-27T08:00:49Z</time>
      </trkpt>
      <trkpt lat="45.70541" lon="5.28906">
        <ele>290.46</ele>
        <time>2015-09-27T08:00:52Z</time>
      </trkpt>
      <trkpt lat="45.70552" lon="5.28916">
        <ele>293.82</ele>
        <time>2015-09-27T08:01:05Z</time>
      </trkpt>
      <trkpt lat="45.7056" lon="5.2892">
        <ele>296.22</ele>
        <time>2015-09-27T08:01:16Z</time>
      </trkpt>
      <trkpt lat="45.70576" lon="5.28928">
        <ele>298.63</ele>
        <time>2015-09-27T08:01:28Z</time>
      </trkpt>
      <trkpt lat="45.70592" lon="5.28943">
        <ele>301.51</ele>
        <time>2015-09-27T08:01:43Z</time>
      </trkpt>
      <trkpt lat="45.70604" lon="5.28949">
        <ele>302.95</ele>
        <time>2015-09-27T08:01:52Z</time>
      </trkpt>
      <trkpt lat="45.70612" lon="5.28954">
        <ele>303.91</ele>
        <time>2015-09-27T08:02:00Z</time>
      </trkpt>
      <trkpt lat="45.70622" lon="5.28959">
        <ele>305.36</ele>
        <time>2015-09-27T08:02:09Z</time>
      </trkpt>
      <trkpt lat="45.7063" lon="5.28964">
        <ele>306.32</ele>
        <time>2015-09-27T08:02:16Z</time>
      </trkpt>
      <trkpt lat="45.7064" lon="5.28971">
        <ele>307.28</ele>
        <time>2015-09-27T08:02:26Z</time>
      </trkpt>
      <trkpt lat="45.70654" lon="5.28974">
        <ele>308.72</ele>
        <time>2015-09-27T08:02:37Z</time>
      </trkpt>
      <trkpt lat="45.70669" lon="5.28975">
        <ele>310.16</ele>
        <time>2015-09-27T08:02:49Z</time>
      </trkpt>
      <trkpt lat="45.70682" lon="5.28986">
        <ele>312.09</ele>
        <time>2015-09-27T08:03:00Z</time>
      </trkpt>
      <trkpt lat="45.70683" lon="5.28991">
        <ele>312.57</ele>
        <time>2015-09-27T08:03:02Z</time>
      </trkpt>
      <trkpt lat="45.70688" lon="5.29011">
        <ele>314.49</ele>
        <time>2015-09-27T08:03:12Z</time>
      </trkpt>
      <trkpt lat="45.70686" lon="5.29019">
        <ele>316.41</ele>
        <time>2015-09-27T08:03:20Z</time>
      </trkpt>
      <trkpt lat="45.70682" lon="5.29027">
        <ele>317.85</ele>
        <time>2015-09-27T08:03:27Z</time>
      </trkpt>
      <trkpt lat="45.70682" lon="5.29027">
        <ele>318.33</ele>
        <time>2015-09-27T08:03:28Z</time>
      </trkpt>
      <trkpt lat="45.7067" lon="5.29034">
        <ele>320.26</ele>
        <time>2015-09-27T08:03:40Z</time>
      </trkpt>
      <trkpt lat="45.70664" lon="5.29046">
        <ele>321.7</ele>
        <time>2015-09-27T08:03:48Z</time>
      </trkpt>
      <trkpt lat="45.70662" lon="5.29052">
        <ele>323.14</ele>
        <time>2015-09-27T08:03:54Z</time>
      </trkpt>
      <trkpt lat="45.7066" lon="5.29067">
        <ele>324.58</ele>
        <time>2015-09-27T08:04:04Z</time>
      </trkpt>
      <trkpt lat="45.70657" lon="5.29078">
        <ele>326.5</ele>
        <time>2015-09-27T08:04:13Z</time>
      </trkpt>
      <trkpt lat="45.70657" lon="5.29099">
        <ele>329.39</ele>
        <time>2015-09-27T08:04:25Z</time>
      </trkpt>
      <trkpt lat="45.70657" lon="5.29122">
        <ele>330.35</ele>
        <time>2015-09-27T08:04:37Z</time>
      </trkpt>
      <trkpt lat="45.7066" lon="5.29138">
        <ele>331.31</ele>
        <time>2015-09-27T08:04:46Z</time>
      </trkpt>
      <trkpt lat="45.70662" lon="5.2916">
        <ele>333.23</ele>
        <time>2015-09-27T08:04:58Z</time>
      </trkpt>
      <trkpt lat="45.70665" lon="5.29177">
        <ele>335.64</ele>
        <time>2015-09-27T08:05:10Z</time>
      </trkpt>
      <trkpt lat="45.70669" lon="5.29204">
        <ele>336.6</ele>
        <time>2015-09-27T08:05:24Z</time>
      </trkpt>
      <trkpt lat="45.7067" lon="5.29213">
        <ele>337.08</ele>
        <time>2015-09-27T08:05:29Z</time>
      </trkpt>
      <trkpt lat="45.70671" lon="5.2924">
        <ele>338.52</ele>
        <time>2015-09-27T08:05:43Z</time>
      </trkpt>
      <trkpt lat="45.70669" lon="5.29255">
        <ele>339.48</ele>
        <time>2015-09-27T08:05:52Z</time>
      </trkpt>
      <trkpt lat="45.70673" lon="5.29271">
        <ele>340.44</ele>
        <time>2015-09-27T08:06:02Z</time>
      </trkpt>
      <trkpt lat="45.70674" lon="5.29273">
        <ele>340.44</ele>
        <time>2015-09-27T08:06:03Z</time>
      </trkpt>
      <trkpt lat="45.7068" lon="5.29287">
        <ele>341.89</ele>
        <time>2015-09-27T08:06:12Z</time>
      </trkpt>
      <trkpt lat="45.70687" lon="5.29301">
        <ele>343.33</ele>
        <time>2015-09-27T08:06:22Z</time>
      </trkpt>
      <trkpt lat="45.70691" lon="5.29316">
        <ele>344.29</ele>
        <time>2015-09-27T08:06:31Z</time>
      </trkpt>
      <trkpt lat="45.70696" lon="5.29329">
        <ele>344.77</ele>
        <time>2015-09-27T08:06:39Z</time>
      </trkpt>
      <trkpt lat="45.70696" lon="5.29334">
        <ele>344.77</ele>
        <time>2015-09-27T08:06:42Z</time>
      </trkpt>
      <trkpt lat="45.70704" lon="5.29327">
        <ele>346.21</ele>
        <time>2015-09-27T08:06:51Z</time>
      </trkpt>
      <trkpt lat="45.70705" lon="5.29327">
        <ele>346.69</ele>
        <time>2015-09-27T08:06:52Z</time>
      </trkpt>
      <trkpt lat="45.70713" lon="5.29328">
        <ele>349.58</ele>
        <time>2015-09-27T08:07:02Z</time>
      </trkpt>
      <trkpt lat="45.70722" lon="5.29328">
        <ele>352.46</ele>
        <time>2015-09-27T08:07:12Z</time>
      </trkpt>
      <trkpt lat="45.70728" lon="5.29326">
        <ele>353.9</ele>
        <time>2015-09-27T08:07:17Z</time>
      </trkpt>
      <trkpt lat="45.70731" lon="5.29326">
        <ele>353.9</ele>
        <time>2015-09-27T08:07:19Z</time>
      </trkpt>
      <trkpt lat="45.70744" lon="5.29326">
        <ele>355.83</ele>
        <time>2015-09-27T08:07:28Z</time>
      </trkpt>
      <trkpt lat="45.7076" lon="5.2932">
        <ele>357.75</ele>
        <time>2015-09-27T08:07:43Z</time>
      </trkpt>
      <trkpt lat="45.70769" lon="5.2932">
        <ele>359.19</ele>
        <time>2015-09-27T08:07:51Z</time>
      </trkpt>
      <trkpt lat="45.70781" lon="5.29316">
        <ele>360.63</ele>
        <time>2015-09-27T08:08:00Z</time>
      </trkpt>
      <trkpt lat="45.70794" lon="5.29316">
        <ele>362.07</ele>
        <time>2015-09-27T08:08:10Z</time>
      </trkpt>
      <trkpt lat="45.70807" lon="5.29317">
        <ele>363.52</ele>
        <time>2015-09-27T08:08:20Z</time>
      </trkpt>
      <trkpt lat="45.70817" lon="5.29321">
        <ele>365.44</ele>
        <time>2015-09-27T08:08:30Z</time>
      </trkpt>
      <trkpt lat="45.70822" lon="5.2932">
        <ele>366.4</ele>
        <time>2015-09-27T08:08:35Z</time>
      </trkpt>
      <trkpt lat="45.70834" lon="5.29319">
        <ele>368.32</ele>
        <time>2015-09-27T08:08:45Z</time>
      </trkpt>
      <trkpt lat="45.70848" lon="5.29314">
        <ele>370.73</ele>
        <time>2015-09-27T08:08:57Z</time>
      </trkpt>
      <trkpt lat="45.70861" lon="5.29312">
        <ele>372.65</ele>
        <time>2015-09-27T08:09:08Z</time>
      </trkpt>
      <trkpt lat="45.70872" lon="5.29317">
        <ele>375.05</ele>
        <time>2015-09-27T08:09:18Z</time>
      </trkpt>
      <trkpt lat="45.70885" lon="5.29322">
        <ele>376.49</ele>
        <time>2015-09-27T08:09:28Z</time>
      </trkpt>
      <trkpt lat="45.70896" lon="5.29324">
        <ele>377.94</ele>
        <time>2015-09-27T08:09:38Z</time>
      </trkpt>
      <trkpt lat="45.70903" lon="5.29324">
        <ele>378.42</ele>
        <time>2015-09-27T08:09:44Z</time>
      </trkpt>
      <trkpt lat="45.70918" lon="5.29313">
        <ele>380.34</ele>
        <time>2015-09-27T08:09:54Z</time>
      </trkpt>
      <trkpt lat="45.70936" lon="5.2929">
        <ele>381.3</ele>
        <time>2015-09-27T08:10:07Z</time>
      </trkpt>
      <trkpt lat="45.70949" lon="5.29277">
        <ele>382.26</ele>
        <time>2015-09-27T08:10:16Z</time>
      </trkpt>
      <trkpt lat="45.70961" lon="5.29269">
        <ele>383.7</ele>
        <time>2015-09-27T08:10:24Z</time>
      </trkpt>
      <trkpt lat="45.70977" lon="5.29259">
        <ele>384.66</ele>
        <time>2015-09-27T08:10:34Z</time>
      </trkpt>
      <trkpt lat="45.70998" lon="5.29249">
        <ele>384.66</ele>
        <time>2015-09-27T08:10:45Z</time>
      </trkpt>
      <trkpt lat="45.71016" lon="5.29244">
        <ele>385.63</ele>
        <time>2015-09-27T08:10:54Z</time>
      </trkpt>
      <trkpt lat="45.71037" lon="5.29246">
        <ele>386.11</ele>
        <time>2015-09-27T08:11:04Z</time>
      </trkpt>
      <trkpt lat="45.71058" lon="5.29259">
        <ele>388.03</ele>
        <time>2015-09-27T08:11:17Z</time>
      </trkpt>
      <trkpt lat="45.71077" lon="5.2927">
        <ele>388.51</ele>
        <time>2015-09-27T08:11:27Z</time>
      </trkpt>
      <trkpt lat="45.71093" lon="5.29283">
        <ele>388.51</ele>
        <time>2015-09-27T08:11:35Z</time>
      </trkpt>
      <trkpt lat="45.71111" lon="5.29294">
        <ele>388.99</ele>
        <time>2015-09-27T08:11:45Z</time>
      </trkpt>
      <trkpt lat="45.71112" lon="5.29295">
        <ele>388.99</ele>
        <time>2015-09-27T08:11:46Z</time>
      </trkpt>
      <trkpt lat="45.71113" lon="5.29293">
        <ele>389.47</ele>
        <time>2015-09-27T08:11:54Z</time>
      </trkpt>
      <trkpt lat="45.7112" lon="5.29296">
        <ele>388.99</ele>
        <time>2015-09-27T08:12:30Z</time>
      </trkpt>
      <trkpt lat="45.71121" lon="5.29297">
        <ele>388.99</ele>
        <time>2015-09-27T08:12:31Z</time>
      </trkpt>
      <trkpt lat="45.71136" lon="5.29306">
        <ele>388.51</ele>
        <time>2015-09-27T08:12:42Z</time>
      </trkpt>
      <trkpt lat="45.71144" lon="5.2931">
        <ele>388.03</ele>
        <time>2015-09-27T08:12:49Z</time>
      </trkpt>
      <trkpt lat="45.71155" lon="5.29309">
        <ele>388.03</ele>
        <time>2015-09-27T08:12:58Z</time>
      </trkpt>
      <trkpt lat="45.71172" lon="5.29307">
        <ele>388.51</ele>
        <time>2015-09-27T08:13:11Z</time>
      </trkpt>
      <trkpt lat="45.71182" lon="5.29307">
        <ele>388.51</ele>
        <time>2015-09-27T08:13:19Z</time>
      </trkpt>
      <trkpt lat="45.71184" lon="5.29307">
        <ele>388.51</ele>
        <time>2015-09-27T08:13:20Z</time>
      </trkpt>
      <trkpt lat="45.71194" lon="5.29306">
        <ele>389.47</ele>
        <time>2015-09-27T08:13:29Z</time>
      </trkpt>
      <trkpt lat="45.71201" lon="5.29303">
        <ele>390.43</ele>
        <time>2015-09-27T08:13:37Z</time>
      </trkpt>
      <trkpt lat="45.71215" lon="5.29298">
        <ele>391.39</ele>
        <time>2015-09-27T08:13:47Z</time>
      </trkpt>
      <trkpt lat="45.71231" lon="5.29295">
        <ele>392.36</ele>
        <time>2015-09-27T08:13:55Z</time>
      </trkpt>
      <trkpt lat="45.71248" lon="5.29299">
        <ele>392.84</ele>
        <time>2015-09-27T08:14:03Z</time>
      </trkpt>
      <trkpt lat="45.71268" lon="5.29308">
        <ele>393.32</ele>
        <time>2015-09-27T08:14:12Z</time>
      </trkpt>
      <trkpt lat="45.71286" lon="5.2933">
        <ele>392.84</ele>
        <time>2015-09-27T08:14:21Z</time>
      </trkpt>
      <trkpt lat="45.713" lon="5.29348">
        <ele>392.84</ele>
        <time>2015-09-27T08:14:29Z</time>
      </trkpt>
      <trkpt lat="45.71315" lon="5.29363">
        <ele>392.84</ele>
        <time>2015-09-27T08:14:38Z</time>
      </trkpt>
      <trkpt lat="45.71332" lon="5.29374">
        <ele>392.36</ele>
        <time>2015-09-27T08:14:47Z</time>
      </trkpt>
      <trkpt lat="45.71351" lon="5.2938">
        <ele>391.87</ele>
        <time>2015-09-27T08:14:56Z</time>
      </trkpt>
      <trkpt lat="45.71366" lon="5.29377">
        <ele>391.39</ele>
        <time>2015-09-27T08:15:03Z</time>
      </trkpt>
      <trkpt lat="45.71384" lon="5.29369">
        <ele>390.43</ele>
        <time>2015-09-27T08:15:11Z</time>
      </trkpt>
      <trkpt lat="45.71402" lon="5.29354">
        <ele>387.55</ele>
        <time>2015-09-27T08:15:21Z</time>
      </trkpt>
      <trkpt lat="45.71405" lon="5.29353">
        <ele>387.55</ele>
        <time>2015-09-27T08:15:22Z</time>
      </trkpt>
      <trkpt lat="45.71416" lon="5.29342">
        <ele>385.63</ele>
        <time>2015-09-27T08:15:28Z</time>
      </trkpt>
      <trkpt lat="45.71429" lon="5.29326">
        <ele>384.18</ele>
        <time>2015-09-27T08:15:36Z</time>
      </trkpt>
      <trkpt lat="45.71443" lon="5.29306">
        <ele>382.74</ele>
        <time>2015-09-27T08:15:43Z</time>
      </trkpt>
      <trkpt lat="45.71463" lon="5.29283">
        <ele>379.86</ele>
        <time>2015-09-27T08:15:53Z</time>
      </trkpt>
      <trkpt lat="45.71479" lon="5.29273">
        <ele>377.45</ele>
        <time>2015-09-27T08:16:01Z</time>
      </trkpt>
      <trkpt lat="45.71498" lon="5.29265">
        <ele>375.53</ele>
        <time>2015-09-27T08:16:08Z</time>
      </trkpt>
      <trkpt lat="45.71503" lon="5.29275">
        <ele>374.57</ele>
        <time>2015-09-27T08:16:14Z</time>
      </trkpt>
      <trkpt lat="45.71499" lon="5.29286">
        <ele>375.53</ele>
        <time>2015-09-27T08:16:23Z</time>
      </trkpt>
      <trkpt lat="45.71496" lon="5.29293">
        <ele>376.97</ele>
        <time>2015-09-27T08:16:29Z</time>
      </trkpt>
      <trkpt lat="45.71489" lon="5.29316">
        <ele>379.38</ele>
        <time>2015-09-27T08:16:41Z</time>
      </trkpt>
      <trkpt lat="45.71481" lon="5.29351">
        <ele>381.78</ele>
        <time>2015-09-27T08:16:50Z</time>
      </trkpt>
      <trkpt lat="45.71476" lon="5.29383">
        <ele>383.22</ele>
        <time>2015-09-27T08:17:03Z</time>
      </trkpt>
      <trkpt lat="45.71466" lon="5.2941">
        <ele>383.7</ele>
        <time>2015-09-27T08:17:13Z</time>
      </trkpt>
      <trkpt lat="45.71455" lon="5.2945">
        <ele>383.22</ele>
        <time>2015-09-27T08:17:23Z</time>
      </trkpt>
      <trkpt lat="45.71451" lon="5.29471">
        <ele>383.22</ele>
        <time>2015-09-27T08:17:29Z</time>
      </trkpt>
      <trkpt lat="45.71446" lon="5.29495">
        <ele>383.7</ele>
        <time>2015-09-27T08:17:37Z</time>
      </trkpt>
      <trkpt lat="45.71443" lon="5.2952">
        <ele>384.18</ele>
        <time>2015-09-27T08:17:46Z</time>
      </trkpt>
      <trkpt lat="45.71432" lon="5.29542">
        <ele>384.18</ele>
        <time>2015-09-27T08:17:55Z</time>
      </trkpt>
      <trkpt lat="45.71431" lon="5.29544">
        <ele>384.18</ele>
        <time>2015-09-27T08:17:56Z</time>
      </trkpt>
      <trkpt lat="45.71406" lon="5.29566">
        <ele>383.22</ele>
        <time>2015-09-27T08:18:07Z</time>
      </trkpt>
      <trkpt lat="45.71386" lon="5.29589">
        <ele>382.26</ele>
        <time>2015-09-27T08:18:18Z</time>
      </trkpt>
      <trkpt lat="45.71366" lon="5.29604">
        <ele>381.3</ele>
        <time>2015-09-27T08:18:27Z</time>
      </trkpt>
      <trkpt lat="45.71357" lon="5.29615">
        <ele>379.86</ele>
        <time>2015-09-27T08:18:32Z</time>
      </trkpt>
      <trkpt lat="45.71362" lon="5.29626">
        <ele>377.94</ele>
        <time>2015-09-27T08:18:38Z</time>
      </trkpt>
      <trkpt lat="45.71364" lon="5.29627">
        <ele>377.45</ele>
        <time>2015-09-27T08:18:39Z</time>
      </trkpt>
      <trkpt lat="45.71381" lon="5.29627">
        <ele>376.49</ele>
        <time>2015-09-27T08:18:47Z</time>
      </trkpt>
      <trkpt lat="45.71393" lon="5.29639">
        <ele>374.09</ele>
        <time>2015-09-27T08:18:53Z</time>
      </trkpt>
      <trkpt lat="45.71398" lon="5.29641">
        <ele>373.61</ele>
        <time>2015-09-27T08:18:55Z</time>
      </trkpt>
      <trkpt lat="45.71411" lon="5.29647">
        <ele>369.76</ele>
        <time>2015-09-27T08:19:01Z</time>
      </trkpt>
      <trkpt lat="45.71413" lon="5.2965">
        <ele>369.76</ele>
        <time>2015-09-27T08:19:02Z</time>
      </trkpt>
      <trkpt lat="45.71422" lon="5.29658">
        <ele>366.4</ele>
        <time>2015-09-27T08:19:06Z</time>
      </trkpt>
      <trkpt lat="45.71427" lon="5.29662">
        <ele>365.92</ele>
        <time>2015-09-27T08:19:08Z</time>
      </trkpt>
      <trkpt lat="45.71436" lon="5.29669">
        <ele>362.55</ele>
        <time>2015-09-27T08:19:12Z</time>
      </trkpt>
      <trkpt lat="45.71441" lon="5.29673">
        <ele>361.59</ele>
        <time>2015-09-27T08:19:15Z</time>
      </trkpt>
      <trkpt lat="45.7145" lon="5.2968">
        <ele>358.23</ele>
        <time>2015-09-27T08:19:20Z</time>
      </trkpt>
      <trkpt lat="45.71457" lon="5.29686">
        <ele>356.79</ele>
        <time>2015-09-27T08:19:23Z</time>
      </trkpt>
      <trkpt lat="45.71471" lon="5.29694">
        <ele>353.9</ele>
        <time>2015-09-27T08:19:29Z</time>
      </trkpt>
      <trkpt lat="45.71488" lon="5.29702">
        <ele>350.54</ele>
        <time>2015-09-27T08:19:36Z</time>
      </trkpt>
      <trkpt lat="45.71507" lon="5.29707">
        <ele>348.13</ele>
        <time>2015-09-27T08:19:43Z</time>
      </trkpt>
      <trkpt lat="45.71514" lon="5.29711">
        <ele>347.65</ele>
        <time>2015-09-27T08:19:46Z</time>
      </trkpt>
      <trkpt lat="45.71528" lon="5.29725">
        <ele>344.29</ele>
        <time>2015-09-27T08:19:52Z</time>
      </trkpt>
      <trkpt lat="45.71538" lon="5.29737">
        <ele>341.41</ele>
        <time>2015-09-27T08:19:57Z</time>
      </trkpt>
      <trkpt lat="45.7154" lon="5.29739">
        <ele>341.41</ele>
        <time>2015-09-27T08:19:58Z</time>
      </trkpt>
      <trkpt lat="45.71546" lon="5.29754">
        <ele>338.04</ele>
        <time>2015-09-27T08:20:04Z</time>
      </trkpt>
      <trkpt lat="45.71552" lon="5.29769">
        <ele>336.12</ele>
        <time>2015-09-27T08:20:09Z</time>
      </trkpt>
      <trkpt lat="45.71551" lon="5.29793">
        <ele>333.71</ele>
        <time>2015-09-27T08:20:16Z</time>
      </trkpt>
      <trkpt lat="45.71548" lon="5.298">
        <ele>333.23</ele>
        <time>2015-09-27T08:20:18Z</time>
      </trkpt>
      <trkpt lat="45.71546" lon="5.29826">
        <ele>330.35</ele>
        <time>2015-09-27T08:20:25Z</time>
      </trkpt>
      <trkpt lat="45.71549" lon="5.29855">
        <ele>328.43</ele>
        <time>2015-09-27T08:20:33Z</time>
      </trkpt>
      <trkpt lat="45.71554" lon="5.29888">
        <ele>327.95</ele>
        <time>2015-09-27T08:20:43Z</time>
      </trkpt>
      <trkpt lat="45.71558" lon="5.29919">
        <ele>327.95</ele>
        <time>2015-09-27T08:20:52Z</time>
      </trkpt>
      <trkpt lat="45.71561" lon="5.29949">
        <ele>327.47</ele>
        <time>2015-09-27T08:21:02Z</time>
      </trkpt>
      <trkpt lat="45.71578" lon="5.29956">
        <ele>327.47</ele>
        <time>2015-09-27T08:21:11Z</time>
      </trkpt>
      <trkpt lat="45.71594" lon="5.29969">
        <ele>327.95</ele>
        <time>2015-09-27T08:21:19Z</time>
      </trkpt>
      <trkpt lat="45.71603" lon="5.29966">
        <ele>327.95</ele>
        <time>2015-09-27T08:21:26Z</time>
      </trkpt>
      <trkpt lat="45.71606" lon="5.29963">
        <ele>327.95</ele>
        <time>2015-09-27T08:21:36Z</time>
      </trkpt>
      <trkpt lat="45.71609" lon="5.29966">
        <ele>327.95</ele>
        <time>2015-09-27T08:21:55Z</time>
      </trkpt>
      <trkpt lat="45.71622" lon="5.29975">
        <ele>327.95</ele>
        <time>2015-09-27T08:22:01Z</time>
      </trkpt>
      <trkpt lat="45.71655" lon="5.29986">
        <ele>328.91</ele>
        <time>2015-09-27T08:22:15Z</time>
      </trkpt>
      <trkpt lat="45.71676" lon="5.29992">
        <ele>330.35</ele>
        <time>2015-09-27T08:22:25Z</time>
      </trkpt>
      <trkpt lat="45.71694" lon="5.3">
        <ele>331.79</ele>
        <time>2015-09-27T08:22:34Z</time>
      </trkpt>
      <trkpt lat="45.7171" lon="5.30007">
        <ele>333.23</ele>
        <time>2015-09-27T08:22:43Z</time>
      </trkpt>
      <trkpt lat="45.7173" lon="5.30008">
        <ele>334.68</ele>
        <time>2015-09-27T08:22:53Z</time>
      </trkpt>
      <trkpt lat="45.71741" lon="5.30007">
        <ele>335.64</ele>
        <time>2015-09-27T08:23:01Z</time>
      </trkpt>
      <trkpt lat="45.71751" lon="5.30004">
        <ele>336.6</ele>
        <time>2015-09-27T08:23:08Z</time>
      </trkpt>
      <trkpt lat="45.71764" lon="5.30003">
        <ele>337.56</ele>
        <time>2015-09-27T08:23:17Z</time>
      </trkpt>
      <trkpt lat="45.71768" lon="5.30003">
        <ele>338.52</ele>
        <time>2015-09-27T08:23:20Z</time>
      </trkpt>
      <trkpt lat="45.71779" lon="5.30001">
        <ele>339.96</ele>
        <time>2015-09-27T08:23:29Z</time>
      </trkpt>
      <trkpt lat="45.71789" lon="5.30001">
        <ele>341.89</ele>
        <time>2015-09-27T08:23:37Z</time>
      </trkpt>
      <trkpt lat="45.71793" lon="5.29997">
        <ele>343.33</ele>
        <time>2015-09-27T08:23:43Z</time>
      </trkpt>
      <trkpt lat="45.71805" lon="5.29979">
        <ele>345.73</ele>
        <time>2015-09-27T08:23:57Z</time>
      </trkpt>
      <trkpt lat="45.71808" lon="5.29977">
        <ele>345.73</ele>
        <time>2015-09-27T08:24:00Z</time>
      </trkpt>
      <trkpt lat="45.71812" lon="5.29979">
        <ele>347.17</ele>
        <time>2015-09-27T08:24:06Z</time>
      </trkpt>
      <trkpt lat="45.7182" lon="5.29991">
        <ele>348.13</ele>
        <time>2015-09-27T08:24:15Z</time>
      </trkpt>
      <trkpt lat="45.71828" lon="5.30002">
        <ele>350.54</ele>
        <time>2015-09-27T08:24:24Z</time>
      </trkpt>
      <trkpt lat="45.71842" lon="5.30015">
        <ele>352.46</ele>
        <time>2015-09-27T08:24:36Z</time>
      </trkpt>
      <trkpt lat="45.71854" lon="5.30031">
        <ele>354.38</ele>
        <time>2015-09-27T08:24:49Z</time>
      </trkpt>
      <trkpt lat="45.71864" lon="5.30047">
        <ele>356.31</ele>
        <time>2015-09-27T08:25:01Z</time>
      </trkpt>
      <trkpt lat="45.71873" lon="5.30059">
        <ele>358.23</ele>
        <time>2015-09-27T08:25:12Z</time>
      </trkpt>
      <trkpt lat="45.71881" lon="5.30065">
        <ele>359.67</ele>
        <time>2015-09-27T08:25:20Z</time>
      </trkpt>
      <trkpt lat="45.71893" lon="5.30071">
        <ele>361.59</ele>
        <time>2015-09-27T08:25:31Z</time>
      </trkpt>
      <trkpt lat="45.71901" lon="5.30077">
        <ele>363.52</ele>
        <time>2015-09-27T08:25:41Z</time>
      </trkpt>
      <trkpt lat="45.71912" lon="5.30083">
        <ele>365.44</ele>
        <time>2015-09-27T08:25:52Z</time>
      </trkpt>
      <trkpt lat="45.71917" lon="5.30085">
        <ele>365.92</ele>
        <time>2015-09-27T08:25:56Z</time>
      </trkpt>
      <trkpt lat="45.71925" lon="5.30089">
        <ele>366.88</ele>
        <time>2015-09-27T08:26:03Z</time>
      </trkpt>
      <trkpt lat="45.71944" lon="5.30092">
        <ele>368.32</ele>
        <time>2015-09-27T08:26:17Z</time>
      </trkpt>
      <trkpt lat="45.71955" lon="5.30094">
        <ele>369.76</ele>
        <time>2015-09-27T08:26:26Z</time>
      </trkpt>
      <trkpt lat="45.71973" lon="5.30106">
        <ele>371.21</ele>
        <time>2015-09-27T08:26:40Z</time>
      </trkpt>
      <trkpt lat="45.71981" lon="5.30111">
        <ele>372.65</ele>
        <time>2015-09-27T08:26:48Z</time>
      </trkpt>
      <trkpt lat="45.71994" lon="5.3012">
        <ele>373.61</ele>
        <time>2015-09-27T08:27:00Z</time>
      </trkpt>
      <trkpt lat="45.72015" lon="5.3013">
        <ele>376.01</ele>
        <time>2015-09-27T08:27:14Z</time>
      </trkpt>
      <trkpt lat="45.72025" lon="5.3014">
        <ele>377.94</ele>
        <time>2015-09-27T08:27:23Z</time>
      </trkpt>
      <trkpt lat="45.72035" lon="5.30148">
        <ele>379.86</ele>
        <time>2015-09-27T08:27:33Z</time>
      </trkpt>
      <trkpt lat="45.72044" lon="5.30155">
        <ele>382.26</ele>
        <time>2015-09-27T08:27:44Z</time>
      </trkpt>
      <trkpt lat="45.72055" lon="5.30165">
        <ele>384.66</ele>
        <time>2015-09-27T08:27:57Z</time>
      </trkpt>
      <trkpt lat="45.72064" lon="5.30172">
        <ele>386.59</ele>
        <time>2015-09-27T08:28:07Z</time>
      </trkpt>
      <trkpt lat="45.72075" lon="5.30178">
        <ele>388.99</ele>
        <time>2015-09-27T08:28:19Z</time>
      </trkpt>
      <trkpt lat="45.72086" lon="5.30196">
        <ele>390.43</ele>
        <time>2015-09-27T08:28:29Z</time>
      </trkpt>
      <trkpt lat="45.72098" lon="5.3022">
        <ele>393.32</ele>
        <time>2015-09-27T08:28:44Z</time>
      </trkpt>
      <trkpt lat="45.72105" lon="5.30234">
        <ele>394.28</ele>
        <time>2015-09-27T08:28:53Z</time>
      </trkpt>
      <trkpt lat="45.72116" lon="5.30249">
        <ele>394.28</ele>
        <time>2015-09-27T08:29:01Z</time>
      </trkpt>
      <trkpt lat="45.72122" lon="5.30269">
        <ele>394.28</ele>
        <time>2015-09-27T08:29:08Z</time>
      </trkpt>
      <trkpt lat="45.72132" lon="5.303">
        <ele>394.28</ele>
        <time>2015-09-27T08:29:17Z</time>
      </trkpt>
      <trkpt lat="45.72144" lon="5.30329">
        <ele>393.8</ele>
        <time>2015-09-27T08:29:26Z</time>
      </trkpt>
      <trkpt lat="45.7216" lon="5.30358">
        <ele>394.28</ele>
        <time>2015-09-27T08:29:35Z</time>
      </trkpt>
      <trkpt lat="45.72173" lon="5.30386">
        <ele>393.32</ele>
        <time>2015-09-27T08:29:44Z</time>
      </trkpt>
      <trkpt lat="45.72182" lon="5.30405">
        <ele>392.84</ele>
        <time>2015-09-27T08:29:51Z</time>
      </trkpt>
      <trkpt lat="45.72185" lon="5.30407">
        <ele>393.32</ele>
        <time>2015-09-27T08:29:53Z</time>
      </trkpt>
      <trkpt lat="45.722" lon="5.30399">
        <ele>394.28</ele>
        <time>2015-09-27T08:30:02Z</time>
      </trkpt>
      <trkpt lat="45.72215" lon="5.30385">
        <ele>395.72</ele>
        <time>2015-09-27T08:30:12Z</time>
      </trkpt>
      <trkpt lat="45.72227" lon="5.30371">
        <ele>398.12</ele>
        <time>2015-09-27T08:30:20Z</time>
      </trkpt>
      <trkpt lat="45.72238" lon="5.3035">
        <ele>399.57</ele>
        <time>2015-09-27T08:30:30Z</time>
      </trkpt>
      <trkpt lat="45.72254" lon="5.30331">
        <ele>399.57</ele>
        <time>2015-09-27T08:30:41Z</time>
      </trkpt>
      <trkpt lat="45.72268" lon="5.30323">
        <ele>400.05</ele>
        <time>2015-09-27T08:30:49Z</time>
      </trkpt>
      <trkpt lat="45.72284" lon="5.30315">
        <ele>400.05</ele>
        <time>2015-09-27T08:30:57Z</time>
      </trkpt>
      <trkpt lat="45.72306" lon="5.30303">
        <ele>401.01</ele>
        <time>2015-09-27T08:31:08Z</time>
      </trkpt>
      <trkpt lat="45.72321" lon="5.303">
        <ele>401.01</ele>
        <time>2015-09-27T08:31:15Z</time>
      </trkpt>
      <trkpt lat="45.72332" lon="5.30295">
        <ele>401.01</ele>
        <time>2015-09-27T08:31:20Z</time>
      </trkpt>
      <trkpt lat="45.72354" lon="5.30285">
        <ele>401.49</ele>
        <time>2015-09-27T08:31:31Z</time>
      </trkpt>
      <trkpt lat="45.72361" lon="5.3029">
        <ele>401.49</ele>
        <time>2015-09-27T08:31:38Z</time>
      </trkpt>
      <trkpt lat="45.72364" lon="5.30307">
        <ele>402.45</ele>
        <time>2015-09-27T08:31:51Z</time>
      </trkpt>
      <trkpt lat="45.72364" lon="5.3031">
        <ele>403.41</ele>
        <time>2015-09-27T08:32:07Z</time>
      </trkpt>
      <trkpt lat="45.72357" lon="5.30351">
        <ele>403.89</ele>
        <time>2015-09-27T08:32:28Z</time>
      </trkpt>
      <trkpt lat="45.72357" lon="5.30356">
        <ele>403.89</ele>
        <time>2015-09-27T08:32:29Z</time>
      </trkpt>
      <trkpt lat="45.7236" lon="5.30393">
        <ele>403.89</ele>
        <time>2015-09-27T08:32:38Z</time>
      </trkpt>
      <trkpt lat="45.7236" lon="5.30426">
        <ele>403.89</ele>
        <time>2015-09-27T08:32:48Z</time>
      </trkpt>
      <trkpt lat="45.72358" lon="5.30454">
        <ele>404.85</ele>
        <time>2015-09-27T08:32:56Z</time>
      </trkpt>
      <trkpt lat="45.72357" lon="5.30499">
        <ele>405.81</ele>
        <time>2015-09-27T08:33:08Z</time>
      </trkpt>
      <trkpt lat="45.72362" lon="5.30532">
        <ele>404.85</ele>
        <time>2015-09-27T08:33:18Z</time>
      </trkpt>
      <trkpt lat="45.72366" lon="5.30556">
        <ele>404.37</ele>
        <time>2015-09-27T08:33:26Z</time>
      </trkpt>
      <trkpt lat="45.7237" lon="5.30577">
        <ele>404.85</ele>
        <time>2015-09-27T08:33:33Z</time>
      </trkpt>
      <trkpt lat="45.72376" lon="5.30599">
        <ele>403.89</ele>
        <time>2015-09-27T08:33:41Z</time>
      </trkpt>
      <trkpt lat="45.7239" lon="5.30623">
        <ele>401.97</ele>
        <time>2015-09-27T08:33:51Z</time>
      </trkpt>
      <trkpt lat="45.72403" lon="5.3065">
        <ele>399.57</ele>
        <time>2015-09-27T08:34:00Z</time>
      </trkpt>
      <trkpt lat="45.72418" lon="5.30677">
        <ele>397.64</ele>
        <time>2015-09-27T08:34:10Z</time>
      </trkpt>
      <trkpt lat="45.72432" lon="5.30699">
        <ele>396.68</ele>
        <time>2015-09-27T08:34:19Z</time>
      </trkpt>
      <trkpt lat="45.72444" lon="5.30715">
        <ele>395.72</ele>
        <time>2015-09-27T08:34:26Z</time>
      </trkpt>
      <trkpt lat="45.72459" lon="5.30742">
        <ele>395.72</ele>
        <time>2015-09-27T08:34:35Z</time>
      </trkpt>
      <trkpt lat="45.72473" lon="5.30763">
        <ele>395.72</ele>
        <time>2015-09-27T08:34:43Z</time>
      </trkpt>
      <trkpt lat="45.72488" lon="5.30786">
        <ele>395.24</ele>
        <time>2015-09-27T08:34:52Z</time>
      </trkpt>
      <trkpt lat="45.72504" lon="5.30812">
        <ele>394.76</ele>
        <time>2015-09-27T08:35:02Z</time>
      </trkpt>
      <trkpt lat="45.72519" lon="5.30825">
        <ele>393.32</ele>
        <time>2015-09-27T08:35:09Z</time>
      </trkpt>
      <trkpt lat="45.72536" lon="5.30824">
        <ele>391.87</ele>
        <time>2015-09-27T08:35:18Z</time>
      </trkpt>
      <trkpt lat="45.72554" lon="5.3082">
        <ele>391.39</ele>
        <time>2015-09-27T08:35:26Z</time>
      </trkpt>
      <trkpt lat="45.72584" lon="5.30813">
        <ele>389.47</ele>
        <time>2015-09-27T08:35:37Z</time>
      </trkpt>
      <trkpt lat="45.72602" lon="5.30812">
        <ele>388.51</ele>
        <time>2015-09-27T08:35:46Z</time>
      </trkpt>
      <trkpt lat="45.72619" lon="5.30807">
        <ele>387.55</ele>
        <time>2015-09-27T08:35:54Z</time>
      </trkpt>
      <trkpt lat="45.7264" lon="5.30805">
        <ele>386.59</ele>
        <time>2015-09-27T08:36:02Z</time>
      </trkpt>
      <trkpt lat="45.72662" lon="5.30803">
        <ele>384.18</ele>
        <time>2015-09-27T08:36:10Z</time>
      </trkpt>
      <trkpt lat="45.72683" lon="5.30792">
        <ele>381.3</ele>
        <time>2015-09-27T08:36:19Z</time>
      </trkpt>
      <trkpt lat="45.727" lon="5.30785">
        <ele>379.38</ele>
        <time>2015-09-27T08:36:26Z</time>
      </trkpt>
      <trkpt lat="45.72716" lon="5.30781">
        <ele>377.45</ele>
        <time>2015-09-27T08:36:33Z</time>
      </trkpt>
      <trkpt lat="45.72733" lon="5.30782">
        <ele>375.05</ele>
        <time>2015-09-27T08:36:40Z</time>
      </trkpt>
      <trkpt lat="45.72754" lon="5.30794">
        <ele>372.17</ele>
        <time>2015-09-27T08:36:49Z</time>
      </trkpt>
      <trkpt lat="45.7277" lon="5.30799">
        <ele>369.76</ele>
        <time>2015-09-27T08:36:57Z</time>
      </trkpt>
      <trkpt lat="45.72789" lon="5.308">
        <ele>367.84</ele>
        <time>2015-09-27T08:37:04Z</time>
      </trkpt>
      <trkpt lat="45.728" lon="5.308">
        <ele>367.36</ele>
        <time>2015-09-27T08:37:08Z</time>
      </trkpt>
      <trkpt lat="45.72817" lon="5.30805">
        <ele>366.4</ele>
        <time>2015-09-27T08:37:15Z</time>
      </trkpt>
      <trkpt lat="45.72836" lon="5.30818">
        <ele>365.44</ele>
        <time>2015-09-27T08:37:23Z</time>
      </trkpt>
      <trkpt lat="45.72862" lon="5.30828">
        <ele>364</ele>
        <time>2015-09-27T08:37:32Z</time>
      </trkpt>
      <trkpt lat="45.72884" lon="5.30836">
        <ele>363.52</ele>
        <time>2015-09-27T08:37:40Z</time>
      </trkpt>
      <trkpt lat="45.72904" lon="5.30844">
        <ele>362.55</ele>
        <time>2015-09-27T08:37:48Z</time>
      </trkpt>
      <trkpt lat="45.72924" lon="5.30847">
        <ele>362.07</ele>
        <time>2015-09-27T08:37:57Z</time>
      </trkpt>
      <trkpt lat="45.7294" lon="5.3085">
        <ele>362.55</ele>
        <time>2015-09-27T08:38:04Z</time>
      </trkpt>
      <trkpt lat="45.72961" lon="5.3085">
        <ele>362.07</ele>
        <time>2015-09-27T08:38:13Z</time>
      </trkpt>
      <trkpt lat="45.72978" lon="5.30843">
        <ele>361.11</ele>
        <time>2015-09-27T08:38:21Z</time>
      </trkpt>
      <trkpt lat="45.72994" lon="5.30832">
        <ele>361.11</ele>
        <time>2015-09-27T08:38:29Z</time>
      </trkpt>
      <trkpt lat="45.73013" lon="5.30823">
        <ele>361.11</ele>
        <time>2015-09-27T08:38:37Z</time>
      </trkpt>
      <trkpt lat="45.73033" lon="5.30821">
        <ele>361.11</ele>
        <time>2015-09-27T08:38:45Z</time>
      </trkpt>
      <trkpt lat="45.73048" lon="5.30823">
        <ele>362.07</ele>
        <time>2015-09-27T08:38:52Z</time>
      </trkpt>
      <trkpt lat="45.73068" lon="5.30823">
        <ele>362.07</ele>
        <time>2015-09-27T08:39:01Z</time>
      </trkpt>
      <trkpt lat="45.73091" lon="5.30825">
        <ele>362.07</ele>
        <time>2015-09-27T08:39:11Z</time>
      </trkpt>
      <trkpt lat="45.73114" lon="5.30828">
        <ele>362.07</ele>
        <time>2015-09-27T08:39:20Z</time>
      </trkpt>
      <trkpt lat="45.73132" lon="5.30825">
        <ele>361.11</ele>
        <time>2015-09-27T08:39:28Z</time>
      </trkpt>
      <trkpt lat="45.73136" lon="5.30821">
        <ele>361.11</ele>
        <time>2015-09-27T08:39:30Z</time>
      </trkpt>
      <trkpt lat="45.73133" lon="5.30802">
        <ele>361.59</ele>
        <time>2015-09-27T08:39:36Z</time>
      </trkpt>
      <trkpt lat="45.7313" lon="5.30779">
        <ele>361.59</ele>
        <time>2015-09-27T08:39:44Z</time>
      </trkpt>
      <trkpt lat="45.7313" lon="5.30756">
        <ele>361.59</ele>
        <time>2015-09-27T08:39:51Z</time>
      </trkpt>
      <trkpt lat="45.73128" lon="5.30731">
        <ele>361.11</ele>
        <time>2015-09-27T08:39:59Z</time>
      </trkpt>
      <trkpt lat="45.73126" lon="5.30703">
        <ele>361.59</ele>
        <time>2015-09-27T08:40:08Z</time>
      </trkpt>
      <trkpt lat="45.73123" lon="5.30669">
        <ele>361.11</ele>
        <time>2015-09-27T08:40:18Z</time>
      </trkpt>
      <trkpt lat="45.73122" lon="5.30636">
        <ele>361.11</ele>
        <time>2015-09-27T08:40:28Z</time>
      </trkpt>
      <trkpt lat="45.73132" lon="5.30625">
        <ele>361.59</ele>
        <time>2015-09-27T08:40:35Z</time>
      </trkpt>
      <trkpt lat="45.73137" lon="5.30626">
        <ele>362.55</ele>
        <time>2015-09-27T08:40:42Z</time>
      </trkpt>
      <trkpt lat="45.73136" lon="5.30627">
        <ele>363.04</ele>
        <time>2015-09-27T08:41:04Z</time>
      </trkpt>
      <trkpt lat="45.73131" lon="5.30613">
        <ele>362.55</ele>
        <time>2015-09-27T08:41:10Z</time>
      </trkpt>
      <trkpt lat="45.7313" lon="5.30603">
        <ele>362.55</ele>
        <time>2015-09-27T08:41:16Z</time>
      </trkpt>
      <trkpt lat="45.73131" lon="5.30585">
        <ele>363.04</ele>
        <time>2015-09-27T08:41:25Z</time>
      </trkpt>
      <trkpt lat="45.73132" lon="5.30577">
        <ele>363.52</ele>
        <time>2015-09-27T08:41:32Z</time>
      </trkpt>
      <trkpt lat="45.7313" lon="5.30575">
        <ele>363.04</ele>
        <time>2015-09-27T08:41:38Z</time>
      </trkpt>
      <trkpt lat="45.7313" lon="5.30574">
        <ele>363.04</ele>
        <time>2015-09-27T08:41:39Z</time>
      </trkpt>
      <trkpt lat="45.73127" lon="5.30568">
        <ele>363.04</ele>
        <time>2015-09-27T08:41:46Z</time>
      </trkpt>
      <trkpt lat="45.73129" lon="5.30565">
        <ele>363.52</ele>
        <time>2015-09-27T08:41:56Z</time>
      </trkpt>
      <trkpt lat="45.73135" lon="5.30563">
        <ele>364</ele>
        <time>2015-09-27T08:42:04Z</time>
      </trkpt>
      <trkpt lat="45.73135" lon="5.30563">
        <ele>364</ele>
        <time>2015-09-27T08:42:09Z</time>
      </trkpt>
      <trkpt lat="45.73138" lon="5.30564">
        <ele>364</ele>
        <time>2015-09-27T08:42:11Z</time>
      </trkpt>
      <trkpt lat="45.73141" lon="5.30566">
        <ele>364.48</ele>
        <time>2015-09-27T08:42:14Z</time>
      </trkpt>
      <trkpt lat="45.73156" lon="5.30568">
        <ele>365.44</ele>
        <time>2015-09-27T08:42:24Z</time>
      </trkpt>
      <trkpt lat="45.73173" lon="5.30575">
        <ele>367.36</ele>
        <time>2015-09-27T08:42:37Z</time>
      </trkpt>
      <trkpt lat="45.73178" lon="5.30576">
        <ele>368.32</ele>
        <time>2015-09-27T08:42:42Z</time>
      </trkpt>
      <trkpt lat="45.7319" lon="5.30571">
        <ele>370.24</ele>
        <time>2015-09-27T08:42:52Z</time>
      </trkpt>
      <trkpt lat="45.73202" lon="5.30573">
        <ele>372.17</ele>
        <time>2015-09-27T08:43:02Z</time>
      </trkpt>
      <trkpt lat="45.73208" lon="5.30573">
        <ele>372.65</ele>
        <time>2015-09-27T08:43:06Z</time>
      </trkpt>
      <trkpt lat="45.73225" lon="5.30574">
        <ele>375.05</ele>
        <time>2015-09-27T08:43:21Z</time>
      </trkpt>
      <trkpt lat="45.73239" lon="5.30575">
        <ele>376.49</ele>
        <time>2015-09-27T08:43:31Z</time>
      </trkpt>
      <trkpt lat="45.73253" lon="5.30583">
        <ele>377.45</ele>
        <time>2015-09-27T08:43:41Z</time>
      </trkpt>
      <trkpt lat="45.73268" lon="5.30595">
        <ele>378.9</ele>
        <time>2015-09-27T08:43:53Z</time>
      </trkpt>
      <trkpt lat="45.73277" lon="5.306">
        <ele>379.86</ele>
        <time>2015-09-27T08:44:02Z</time>
      </trkpt>
      <trkpt lat="45.73281" lon="5.30601">
        <ele>380.34</ele>
        <time>2015-09-27T08:44:09Z</time>
      </trkpt>
      <trkpt lat="45.73297" lon="5.30596">
        <ele>382.26</ele>
        <time>2015-09-27T08:44:22Z</time>
      </trkpt>
      <trkpt lat="45.73303" lon="5.30597">
        <ele>383.22</ele>
        <time>2015-09-27T08:44:26Z</time>
      </trkpt>
      <trkpt lat="45.73318" lon="5.306">
        <ele>384.18</ele>
        <time>2015-09-27T08:44:38Z</time>
      </trkpt>
      <trkpt lat="45.73329" lon="5.30606">
        <ele>384.66</ele>
        <time>2015-09-27T08:44:47Z</time>
      </trkpt>
      <trkpt lat="45.73346" lon="5.30612">
        <ele>384.66</ele>
        <time>2015-09-27T08:44:57Z</time>
      </trkpt>
      <trkpt lat="45.73356" lon="5.30611">
        <ele>383.22</ele>
        <time>2015-09-27T08:45:03Z</time>
      </trkpt>
      <trkpt lat="45.73369" lon="5.30607">
        <ele>383.22</ele>
        <time>2015-09-27T08:45:10Z</time>
      </trkpt>
      <trkpt lat="45.73382" lon="5.30602">
        <ele>382.74</ele>
        <time>2015-09-27T08:45:17Z</time>
      </trkpt>
      <trkpt lat="45.73396" lon="5.30595">
        <ele>383.22</ele>
        <time>2015-09-27T08:45:26Z</time>
      </trkpt>
      <trkpt lat="45.73413" lon="5.30596">
        <ele>385.15</ele>
        <time>2015-09-27T08:45:38Z</time>
      </trkpt>
      <trkpt lat="45.73419" lon="5.30606">
        <ele>385.15</ele>
        <time>2015-09-27T08:45:45Z</time>
      </trkpt>
      <trkpt lat="45.73432" lon="5.30609">
        <ele>384.66</ele>
        <time>2015-09-27T08:45:53Z</time>
      </trkpt>
      <trkpt lat="45.73437" lon="5.30611">
        <ele>384.66</ele>
        <time>2015-09-27T08:46:00Z</time>
      </trkpt>
      <trkpt lat="45.73442" lon="5.3061">
        <ele>384.18</ele>
        <time>2015-09-27T08:46:07Z</time>
      </trkpt>
      <trkpt lat="45.73442" lon="5.3061">
        <ele>384.18</ele>
        <time>2015-09-27T08:46:11Z</time>
      </trkpt>
      <trkpt lat="45.73445" lon="5.3061">
        <ele>383.7</ele>
        <time>2015-09-27T08:46:15Z</time>
      </trkpt>
      <trkpt lat="45.73452" lon="5.30606">
        <ele>383.7</ele>
        <time>2015-09-27T08:46:21Z</time>
      </trkpt>
      <trkpt lat="45.73466" lon="5.30601">
        <ele>383.22</ele>
        <time>2015-09-27T08:46:27Z</time>
      </trkpt>
      <trkpt lat="45.73475" lon="5.30604">
        <ele>382.74</ele>
        <time>2015-09-27T08:46:31Z</time>
      </trkpt>
      <trkpt lat="45.73479" lon="5.30606">
        <ele>382.26</ele>
        <time>2015-09-27T08:46:35Z</time>
      </trkpt>
      <trkpt lat="45.73478" lon="5.3061">
        <ele>381.3</ele>
        <time>2015-09-27T08:46:42Z</time>
      </trkpt>
      <trkpt lat="45.73478" lon="5.30611">
        <ele>381.3</ele>
        <time>2015-09-27T08:47:14Z</time>
      </trkpt>
      <trkpt lat="45.73475" lon="5.30609">
        <ele>380.82</ele>
        <time>2015-09-27T08:47:56Z</time>
      </trkpt>
      <trkpt lat="45.73474" lon="5.30612">
        <ele>381.78</ele>
        <time>2015-09-27T08:48:32Z</time>
      </trkpt>
      <trkpt lat="45.73476" lon="5.30611">
        <ele>381.78</ele>
        <time>2015-09-27T08:48:33Z</time>
      </trkpt>
      <trkpt lat="45.73494" lon="5.3061">
        <ele>380.82</ele>
        <time>2015-09-27T08:48:40Z</time>
      </trkpt>
      <trkpt lat="45.73499" lon="5.3061">
        <ele>380.34</ele>
        <time>2015-09-27T08:48:44Z</time>
      </trkpt>
      <trkpt lat="45.73505" lon="5.30607">
        <ele>378.9</ele>
        <time>2015-09-27T08:48:48Z</time>
      </trkpt>
      <trkpt lat="45.73513" lon="5.30608">
        <ele>376.01</ele>
        <time>2015-09-27T08:48:52Z</time>
      </trkpt>
      <trkpt lat="45.73518" lon="5.30608">
        <ele>373.61</ele>
        <time>2015-09-27T08:48:55Z</time>
      </trkpt>
      <trkpt lat="45.73524" lon="5.30607">
        <ele>372.17</ele>
        <time>2015-09-27T08:49:03Z</time>
      </trkpt>
      <trkpt lat="45.7353" lon="5.30609">
        <ele>372.17</ele>
        <time>2015-09-27T08:49:16Z</time>
      </trkpt>
      <trkpt lat="45.73534" lon="5.30607">
        <ele>372.65</ele>
        <time>2015-09-27T08:49:21Z</time>
      </trkpt>
      <trkpt lat="45.73547" lon="5.30609">
        <ele>374.09</ele>
        <time>2015-09-27T08:49:30Z</time>
      </trkpt>
      <trkpt lat="45.73552" lon="5.30611">
        <ele>374.09</ele>
        <time>2015-09-27T08:49:34Z</time>
      </trkpt>
      <trkpt lat="45.73558" lon="5.3062">
        <ele>374.57</ele>
        <time>2015-09-27T08:49:40Z</time>
      </trkpt>
      <trkpt lat="45.73565" lon="5.30625">
        <ele>376.49</ele>
        <time>2015-09-27T08:49:47Z</time>
      </trkpt>
      <trkpt lat="45.73568" lon="5.30629">
        <ele>377.45</ele>
        <time>2015-09-27T08:49:51Z</time>
      </trkpt>
      <trkpt lat="45.73572" lon="5.3063">
        <ele>377.94</ele>
        <time>2015-09-27T08:49:58Z</time>
      </trkpt>
      <trkpt lat="45.73572" lon="5.30629">
        <ele>378.42</ele>
        <time>2015-09-27T08:50:00Z</time>
      </trkpt>
      <trkpt lat="45.73573" lon="5.30628">
        <ele>378.42</ele>
        <time>2015-09-27T08:50:02Z</time>
      </trkpt>
      <trkpt lat="45.73574" lon="5.30633">
        <ele>377.94</ele>
        <time>2015-09-27T08:50:06Z</time>
      </trkpt>
      <trkpt lat="45.73566" lon="5.30643">
        <ele>377.45</ele>
        <time>2015-09-27T08:50:15Z</time>
      </trkpt>
      <trkpt lat="45.73568" lon="5.30654">
        <ele>376.01</ele>
        <time>2015-09-27T08:50:21Z</time>
      </trkpt>
      <trkpt lat="45.73572" lon="5.3066">
        <ele>373.13</ele>
        <time>2015-09-27T08:50:27Z</time>
      </trkpt>
      <trkpt lat="45.73579" lon="5.30662">
        <ele>371.21</ele>
        <time>2015-09-27T08:50:36Z</time>
      </trkpt>
      <trkpt lat="45.73583" lon="5.30663">
        <ele>369.76</ele>
        <time>2015-09-27T08:50:43Z</time>
      </trkpt>
      <trkpt lat="45.73581" lon="5.30663">
        <ele>369.76</ele>
        <time>2015-09-27T08:50:44Z</time>
      </trkpt>
      <trkpt lat="45.73573" lon="5.30657">
        <ele>371.21</ele>
        <time>2015-09-27T08:50:52Z</time>
      </trkpt>
      <trkpt lat="45.73569" lon="5.30655">
        <ele>372.65</ele>
        <time>2015-09-27T08:50:59Z</time>
      </trkpt>
      <trkpt lat="45.73564" lon="5.30646">
        <ele>374.57</ele>
        <time>2015-09-27T08:51:05Z</time>
      </trkpt>
      <trkpt lat="45.73565" lon="5.30635">
        <ele>377.45</ele>
        <time>2015-09-27T08:51:14Z</time>
      </trkpt>
      <trkpt lat="45.73575" lon="5.30626">
        <ele>377.94</ele>
        <time>2015-09-27T08:51:22Z</time>
      </trkpt>
      <trkpt lat="45.73577" lon="5.30614">
        <ele>375.53</ele>
        <time>2015-09-27T08:51:28Z</time>
      </trkpt>
      <trkpt lat="45.73581" lon="5.30612">
        <ele>374.57</ele>
        <time>2015-09-27T08:51:34Z</time>
      </trkpt>
      <trkpt lat="45.73591" lon="5.30604">
        <ele>374.57</ele>
        <time>2015-09-27T08:51:44Z</time>
      </trkpt>
      <trkpt lat="45.73595" lon="5.30603">
        <ele>374.09</ele>
        <time>2015-09-27T08:51:47Z</time>
      </trkpt>
      <trkpt lat="45.73617" lon="5.30603">
        <ele>374.09</ele>
        <time>2015-09-27T08:52:00Z</time>
      </trkpt>
      <trkpt lat="45.73633" lon="5.30605">
        <ele>374.09</ele>
        <time>2015-09-27T08:52:07Z</time>
      </trkpt>
      <trkpt lat="45.73654" lon="5.30605">
        <ele>373.13</ele>
        <time>2015-09-27T08:52:15Z</time>
      </trkpt>
      <trkpt lat="45.73663" lon="5.30614">
        <ele>372.65</ele>
        <time>2015-09-27T08:52:21Z</time>
      </trkpt>
      <trkpt lat="45.73674" lon="5.30638">
        <ele>371.21</ele>
        <time>2015-09-27T08:52:28Z</time>
      </trkpt>
      <trkpt lat="45.73681" lon="5.30653">
        <ele>371.21</ele>
        <time>2015-09-27T08:52:34Z</time>
      </trkpt>
      <trkpt lat="45.73687" lon="5.30658">
        <ele>372.17</ele>
        <time>2015-09-27T08:52:41Z</time>
      </trkpt>
      <trkpt lat="45.73689" lon="5.30662">
        <ele>372.65</ele>
        <time>2015-09-27T08:52:46Z</time>
      </trkpt>
      <trkpt lat="45.73704" lon="5.30665">
        <ele>372.65</ele>
        <time>2015-09-27T08:52:53Z</time>
      </trkpt>
      <trkpt lat="45.73724" lon="5.30676">
        <ele>372.17</ele>
        <time>2015-09-27T08:53:02Z</time>
      </trkpt>
      <trkpt lat="45.73731" lon="5.30684">
        <ele>371.69</ele>
        <time>2015-09-27T08:53:09Z</time>
      </trkpt>
      <trkpt lat="45.73731" lon="5.30685">
        <ele>371.69</ele>
        <time>2015-09-27T08:53:10Z</time>
      </trkpt>
      <trkpt lat="45.73723" lon="5.30706">
        <ele>371.21</ele>
        <time>2015-09-27T08:53:19Z</time>
      </trkpt>
      <trkpt lat="45.73712" lon="5.30728">
        <ele>369.28</ele>
        <time>2015-09-27T08:53:26Z</time>
      </trkpt>
      <trkpt lat="45.7371" lon="5.30732">
        <ele>368.8</ele>
        <time>2015-09-27T08:53:27Z</time>
      </trkpt>
      <trkpt lat="45.73699" lon="5.30742">
        <ele>367.84</ele>
        <time>2015-09-27T08:53:33Z</time>
      </trkpt>
      <trkpt lat="45.73699" lon="5.30755">
        <ele>366.4</ele>
        <time>2015-09-27T08:54:09Z</time>
      </trkpt>
      <trkpt lat="45.73701" lon="5.30751">
        <ele>366.4</ele>
        <time>2015-09-27T08:54:14Z</time>
      </trkpt>
      <trkpt lat="45.73709" lon="5.30753">
        <ele>366.4</ele>
        <time>2015-09-27T08:54:20Z</time>
      </trkpt>
      <trkpt lat="45.73711" lon="5.30755">
        <ele>366.88</ele>
        <time>2015-09-27T08:54:25Z</time>
      </trkpt>
      <trkpt lat="45.73713" lon="5.30771">
        <ele>365.44</ele>
        <time>2015-09-27T08:54:32Z</time>
      </trkpt>
      <trkpt lat="45.7372" lon="5.30783">
        <ele>363.52</ele>
        <time>2015-09-27T08:54:37Z</time>
      </trkpt>
      <trkpt lat="45.73721" lon="5.3079">
        <ele>362.07</ele>
        <time>2015-09-27T08:54:40Z</time>
      </trkpt>
      <trkpt lat="45.73716" lon="5.308">
        <ele>359.19</ele>
        <time>2015-09-27T08:54:45Z</time>
      </trkpt>
      <trkpt lat="45.73715" lon="5.30801">
        <ele>358.71</ele>
        <time>2015-09-27T08:54:47Z</time>
      </trkpt>
      <trkpt lat="45.73724" lon="5.30789">
        <ele>360.15</ele>
        <time>2015-09-27T08:54:59Z</time>
      </trkpt>
      <trkpt lat="45.73724" lon="5.30788">
        <ele>360.63</ele>
        <time>2015-09-27T08:55:00Z</time>
      </trkpt>
      <trkpt lat="45.73722" lon="5.30777">
        <ele>361.59</ele>
        <time>2015-09-27T08:55:05Z</time>
      </trkpt>
      <trkpt lat="45.73714" lon="5.30764">
        <ele>364</ele>
        <time>2015-09-27T08:55:16Z</time>
      </trkpt>
      <trkpt lat="45.73712" lon="5.30758">
        <ele>364.96</ele>
        <time>2015-09-27T08:55:20Z</time>
      </trkpt>
      <trkpt lat="45.73719" lon="5.30743">
        <ele>366.88</ele>
        <time>2015-09-27T08:55:29Z</time>
      </trkpt>
      <trkpt lat="45.73722" lon="5.30722">
        <ele>367.36</ele>
        <time>2015-09-27T08:55:39Z</time>
      </trkpt>
      <trkpt lat="45.73727" lon="5.307">
        <ele>369.28</ele>
        <time>2015-09-27T08:55:45Z</time>
      </trkpt>
      <trkpt lat="45.73734" lon="5.30676">
        <ele>370.73</ele>
        <time>2015-09-27T08:55:52Z</time>
      </trkpt>
      <trkpt lat="45.7374" lon="5.30657">
        <ele>371.21</ele>
        <time>2015-09-27T08:55:58Z</time>
      </trkpt>
      <trkpt lat="45.73744" lon="5.30642">
        <ele>372.65</ele>
        <time>2015-09-27T08:56:03Z</time>
      </trkpt>
      <trkpt lat="45.7375" lon="5.30623">
        <ele>374.57</ele>
        <time>2015-09-27T08:56:10Z</time>
      </trkpt>
      <trkpt lat="45.73757" lon="5.306">
        <ele>374.57</ele>
        <time>2015-09-27T08:56:18Z</time>
      </trkpt>
      <trkpt lat="45.73752" lon="5.30576">
        <ele>375.53</ele>
        <time>2015-09-27T08:56:26Z</time>
      </trkpt>
      <trkpt lat="45.73753" lon="5.30553">
        <ele>376.01</ele>
        <time>2015-09-27T08:56:33Z</time>
      </trkpt>
      <trkpt lat="45.73756" lon="5.30525">
        <ele>375.05</ele>
        <time>2015-09-27T08:56:42Z</time>
      </trkpt>
      <trkpt lat="45.73764" lon="5.3051">
        <ele>373.13</ele>
        <time>2015-09-27T08:56:48Z</time>
      </trkpt>
      <trkpt lat="45.73781" lon="5.30513">
        <ele>372.17</ele>
        <time>2015-09-27T08:56:57Z</time>
      </trkpt>
      <trkpt lat="45.73795" lon="5.30523">
        <ele>372.65</ele>
        <time>2015-09-27T08:57:06Z</time>
      </trkpt>
      <trkpt lat="45.73814" lon="5.30534">
        <ele>372.65</ele>
        <time>2015-09-27T08:57:13Z</time>
      </trkpt>
      <trkpt lat="45.73826" lon="5.30533">
        <ele>373.13</ele>
        <time>2015-09-27T08:57:18Z</time>
      </trkpt>
      <trkpt lat="45.73844" lon="5.30524">
        <ele>372.65</ele>
        <time>2015-09-27T08:57:26Z</time>
      </trkpt>
      <trkpt lat="45.73865" lon="5.30508">
        <ele>373.61</ele>
        <time>2015-09-27T08:57:37Z</time>
      </trkpt>
      <trkpt lat="45.73887" lon="5.30505">
        <ele>373.13</ele>
        <time>2015-09-27T08:57:46Z</time>
      </trkpt>
      <trkpt lat="45.73911" lon="5.30504">
        <ele>371.69</ele>
        <time>2015-09-27T08:57:56Z</time>
      </trkpt>
      <trkpt lat="45.73913" lon="5.30504">
        <ele>371.21</ele>
        <time>2015-09-27T08:57:57Z</time>
      </trkpt>
      <trkpt lat="45.73927" lon="5.30523">
        <ele>369.28</ele>
        <time>2015-09-27T08:58:05Z</time>
      </trkpt>
      <trkpt lat="45.73943" lon="5.30534">
        <ele>366.4</ele>
        <time>2015-09-27T08:58:13Z</time>
      </trkpt>
      <trkpt lat="45.73962" lon="5.30554">
        <ele>363.52</ele>
        <time>2015-09-27T08:58:22Z</time>
      </trkpt>
      <trkpt lat="45.73973" lon="5.30571">
        <ele>360.63</ele>
        <time>2015-09-27T08:58:29Z</time>
      </trkpt>
      <trkpt lat="45.73995" lon="5.30589">
        <ele>357.75</ele>
        <time>2015-09-27T08:58:39Z</time>
      </trkpt>
      <trkpt lat="45.74014" lon="5.30607">
        <ele>355.34</ele>
        <time>2015-09-27T08:58:46Z</time>
      </trkpt>
      <trkpt lat="45.74037" lon="5.30629">
        <ele>352.94</ele>
        <time>2015-09-27T08:58:54Z</time>
      </trkpt>
      <trkpt lat="45.74056" lon="5.30644">
        <ele>350.54</ele>
        <time>2015-09-27T08:59:02Z</time>
      </trkpt>
      <trkpt lat="45.74079" lon="5.30658">
        <ele>348.13</ele>
        <time>2015-09-27T08:59:11Z</time>
      </trkpt>
      <trkpt lat="45.74097" lon="5.3067">
        <ele>346.21</ele>
        <time>2015-09-27T08:59:18Z</time>
      </trkpt>
      <trkpt lat="45.74121" lon="5.30685">
        <ele>344.29</ele>
        <time>2015-09-27T08:59:27Z</time>
      </trkpt>
      <trkpt lat="45.74137" lon="5.30695">
        <ele>342.85</ele>
        <time>2015-09-27T08:59:34Z</time>
      </trkpt>
      <trkpt lat="45.74153" lon="5.307">
        <ele>342.85</ele>
        <time>2015-09-27T08:59:41Z</time>
      </trkpt>
      <trkpt lat="45.74177" lon="5.30708">
        <ele>341.41</ele>
        <time>2015-09-27T08:59:51Z</time>
      </trkpt>
      <trkpt lat="45.74194" lon="5.30709">
        <ele>340.44</ele>
        <time>2015-09-27T08:59:58Z</time>
      </trkpt>
      <trkpt lat="45.74216" lon="5.30718">
        <ele>339</ele>
        <time>2015-09-27T09:00:07Z</time>
      </trkpt>
      <trkpt lat="45.74231" lon="5.30727">
        <ele>338.04</ele>
        <time>2015-09-27T09:00:14Z</time>
      </trkpt>
      <trkpt lat="45.74243" lon="5.30755">
        <ele>338.04</ele>
        <time>2015-09-27T09:00:23Z</time>
      </trkpt>
      <trkpt lat="45.74251" lon="5.30794">
        <ele>336.6</ele>
        <time>2015-09-27T09:00:34Z</time>
      </trkpt>
      <trkpt lat="45.74254" lon="5.30823">
        <ele>336.12</ele>
        <time>2015-09-27T09:00:42Z</time>
      </trkpt>
      <trkpt lat="45.74255" lon="5.30859">
        <ele>335.16</ele>
        <time>2015-09-27T09:00:52Z</time>
      </trkpt>
      <trkpt lat="45.74256" lon="5.30891">
        <ele>334.68</ele>
        <time>2015-09-27T09:01:01Z</time>
      </trkpt>
      <trkpt lat="45.74258" lon="5.30926">
        <ele>334.2</ele>
        <time>2015-09-27T09:01:11Z</time>
      </trkpt>
      <trkpt lat="45.74258" lon="5.30956">
        <ele>333.23</ele>
        <time>2015-09-27T09:01:20Z</time>
      </trkpt>
      <trkpt lat="45.7426" lon="5.30986">
        <ele>332.75</ele>
        <time>2015-09-27T09:01:29Z</time>
      </trkpt>
      <trkpt lat="45.74261" lon="5.31012">
        <ele>332.27</ele>
        <time>2015-09-27T09:01:37Z</time>
      </trkpt>
      <trkpt lat="45.74262" lon="5.31037">
        <ele>331.79</ele>
        <time>2015-09-27T09:01:45Z</time>
      </trkpt>
      <trkpt lat="45.74264" lon="5.31064">
        <ele>331.79</ele>
        <time>2015-09-27T09:01:54Z</time>
      </trkpt>
      <trkpt lat="45.74271" lon="5.31099">
        <ele>331.79</ele>
        <time>2015-09-27T09:02:05Z</time>
      </trkpt>
      <trkpt lat="45.7428" lon="5.31123">
        <ele>331.31</ele>
        <time>2015-09-27T09:02:13Z</time>
      </trkpt>
      <trkpt lat="45.74296" lon="5.31147">
        <ele>330.83</ele>
        <time>2015-09-27T09:02:23Z</time>
      </trkpt>
      <trkpt lat="45.74307" lon="5.31162">
        <ele>330.83</ele>
        <time>2015-09-27T09:02:30Z</time>
      </trkpt>
      <trkpt lat="45.74315" lon="5.3118">
        <ele>330.83</ele>
        <time>2015-09-27T09:02:37Z</time>
      </trkpt>
      <trkpt lat="45.74326" lon="5.31205">
        <ele>330.83</ele>
        <time>2015-09-27T09:02:46Z</time>
      </trkpt>
      <trkpt lat="45.74336" lon="5.31238">
        <ele>330.35</ele>
        <time>2015-09-27T09:02:58Z</time>
      </trkpt>
      <trkpt lat="45.74339" lon="5.31271">
        <ele>330.83</ele>
        <time>2015-09-27T09:03:08Z</time>
      </trkpt>
      <trkpt lat="45.74344" lon="5.31278">
        <ele>337.08</ele>
        <time>2015-09-27T09:03:22Z</time>
      </trkpt>
      <trkpt lat="45.74344" lon="5.31278">
        <ele>337.08</ele>
        <time>2015-09-27T09:03:23Z</time>
      </trkpt>
      <trkpt lat="45.74345" lon="5.31277">
        <ele>337.08</ele>
        <time>2015-09-27T09:03:37Z</time>
      </trkpt>
      <trkpt lat="45.74345" lon="5.31277">
        <ele>337.08</ele>
        <time>2015-09-27T09:04:16Z</time>
      </trkpt>
      <trkpt lat="45.74354" lon="5.31268">
        <ele>338.52</ele>
        <time>2015-09-27T09:04:28Z</time>
      </trkpt>
      <trkpt lat="45.74366" lon="5.31251">
        <ele>340.92</ele>
        <time>2015-09-27T09:04:43Z</time>
      </trkpt>
      <trkpt lat="45.74377" lon="5.31234">
        <ele>342.85</ele>
        <time>2015-09-27T09:04:55Z</time>
      </trkpt>
      <trkpt lat="45.74387" lon="5.31226">
        <ele>344.29</ele>
        <time>2015-09-27T09:05:06Z</time>
      </trkpt>
      <trkpt lat="45.74399" lon="5.31223">
        <ele>345.73</ele>
        <time>2015-09-27T09:05:17Z</time>
      </trkpt>
      <trkpt lat="45.74415" lon="5.31227">
        <ele>346.69</ele>
        <time>2015-09-27T09:05:30Z</time>
      </trkpt>
      <trkpt lat="45.74413" lon="5.31217">
        <ele>346.69</ele>
        <time>2015-09-27T09:05:37Z</time>
      </trkpt>
      <trkpt lat="45.74405" lon="5.31218">
        <ele>346.69</ele>
        <time>2015-09-27T09:05:45Z</time>
      </trkpt>
      <trkpt lat="45.74397" lon="5.31219">
        <ele>345.73</ele>
        <time>2015-09-27T09:05:51Z</time>
      </trkpt>
      <trkpt lat="45.74393" lon="5.31221">
        <ele>344.77</ele>
        <time>2015-09-27T09:05:59Z</time>
      </trkpt>
      <trkpt lat="45.74397" lon="5.31221">
        <ele>345.25</ele>
        <time>2015-09-27T09:06:02Z</time>
      </trkpt>
      <trkpt lat="45.7441" lon="5.31219">
        <ele>346.21</ele>
        <time>2015-09-27T09:06:12Z</time>
      </trkpt>
      <trkpt lat="45.74416" lon="5.31217">
        <ele>346.69</ele>
        <time>2015-09-27T09:06:16Z</time>
      </trkpt>
      <trkpt lat="45.74429" lon="5.31216">
        <ele>346.69</ele>
        <time>2015-09-27T09:06:25Z</time>
      </trkpt>
      <trkpt lat="45.74435" lon="5.31211">
        <ele>346.21</ele>
        <time>2015-09-27T09:06:31Z</time>
      </trkpt>
      <trkpt lat="45.74443" lon="5.31192">
        <ele>346.21</ele>
        <time>2015-09-27T09:06:43Z</time>
      </trkpt>
      <trkpt lat="45.74446" lon="5.3117">
        <ele>346.21</ele>
        <time>2015-09-27T09:06:50Z</time>
      </trkpt>
      <trkpt lat="45.74455" lon="5.31128">
        <ele>345.73</ele>
        <time>2015-09-27T09:07:02Z</time>
      </trkpt>
      <trkpt lat="45.74463" lon="5.31109">
        <ele>346.69</ele>
        <time>2015-09-27T09:07:11Z</time>
      </trkpt>
      <trkpt lat="45.74468" lon="5.31092">
        <ele>347.65</ele>
        <time>2015-09-27T09:07:19Z</time>
      </trkpt>
      <trkpt lat="45.74478" lon="5.31082">
        <ele>349.1</ele>
        <time>2015-09-27T09:07:25Z</time>
      </trkpt>
      <trkpt lat="45.74492" lon="5.31076">
        <ele>351.02</ele>
        <time>2015-09-27T09:07:35Z</time>
      </trkpt>
      <trkpt lat="45.74502" lon="5.31072">
        <ele>351.98</ele>
        <time>2015-09-27T09:07:43Z</time>
      </trkpt>
      <trkpt lat="45.7452" lon="5.3107">
        <ele>352.94</ele>
        <time>2015-09-27T09:07:53Z</time>
      </trkpt>
      <trkpt lat="45.74539" lon="5.31076">
        <ele>351.02</ele>
        <time>2015-09-27T09:08:03Z</time>
      </trkpt>
      <trkpt lat="45.74557" lon="5.31088">
        <ele>349.58</ele>
        <time>2015-09-27T09:08:12Z</time>
      </trkpt>
      <trkpt lat="45.7459" lon="5.31101">
        <ele>348.13</ele>
        <time>2015-09-27T09:08:23Z</time>
      </trkpt>
      <trkpt lat="45.74599" lon="5.31103">
        <ele>347.65</ele>
        <time>2015-09-27T09:08:26Z</time>
      </trkpt>
      <trkpt lat="45.74613" lon="5.31093">
        <ele>349.1</ele>
        <time>2015-09-27T09:08:35Z</time>
      </trkpt>
      <trkpt lat="45.74625" lon="5.31074">
        <ele>351.98</ele>
        <time>2015-09-27T09:08:48Z</time>
      </trkpt>
      <trkpt lat="45.74636" lon="5.31061">
        <ele>354.38</ele>
        <time>2015-09-27T09:09:00Z</time>
      </trkpt>
      <trkpt lat="45.74653" lon="5.31068">
        <ele>353.9</ele>
        <time>2015-09-27T09:09:12Z</time>
      </trkpt>
      <trkpt lat="45.74666" lon="5.31076">
        <ele>352.94</ele>
        <time>2015-09-27T09:09:22Z</time>
      </trkpt>
      <trkpt lat="45.74678" lon="5.31082">
        <ele>352.94</ele>
        <time>2015-09-27T09:09:28Z</time>
      </trkpt>
      <trkpt lat="45.74702" lon="5.31096">
        <ele>353.42</ele>
        <time>2015-09-27T09:09:38Z</time>
      </trkpt>
      <trkpt lat="45.74723" lon="5.31107">
        <ele>353.9</ele>
        <time>2015-09-27T09:09:46Z</time>
      </trkpt>
      <trkpt lat="45.74737" lon="5.31123">
        <ele>353.42</ele>
        <time>2015-09-27T09:09:54Z</time>
      </trkpt>
      <trkpt lat="45.74762" lon="5.31145">
        <ele>353.9</ele>
        <time>2015-09-27T09:10:04Z</time>
      </trkpt>
      <trkpt lat="45.74781" lon="5.31163">
        <ele>353.9</ele>
        <time>2015-09-27T09:10:13Z</time>
      </trkpt>
      <trkpt lat="45.74798" lon="5.31184">
        <ele>353.9</ele>
        <time>2015-09-27T09:10:22Z</time>
      </trkpt>
      <trkpt lat="45.74804" lon="5.31191">
        <ele>353.42</ele>
        <time>2015-09-27T09:10:27Z</time>
      </trkpt>
      <trkpt lat="45.74807" lon="5.31175">
        <ele>353.9</ele>
        <time>2015-09-27T09:10:33Z</time>
      </trkpt>
      <trkpt lat="45.74807" lon="5.3117">
        <ele>353.9</ele>
        <time>2015-09-27T09:10:35Z</time>
      </trkpt>
      <trkpt lat="45.74803" lon="5.31158">
        <ele>356.31</ele>
        <time>2015-09-27T09:10:44Z</time>
      </trkpt>
      <trkpt lat="45.74796" lon="5.3114">
        <ele>358.23</ele>
        <time>2015-09-27T09:10:58Z</time>
      </trkpt>
      <trkpt lat="45.74789" lon="5.31125">
        <ele>360.15</ele>
        <time>2015-09-27T09:11:10Z</time>
      </trkpt>
      <trkpt lat="45.74782" lon="5.3111">
        <ele>362.07</ele>
        <time>2015-09-27T09:11:19Z</time>
      </trkpt>
      <trkpt lat="45.74775" lon="5.31091">
        <ele>364</ele>
        <time>2015-09-27T09:11:32Z</time>
      </trkpt>
      <trkpt lat="45.74775" lon="5.31074">
        <ele>367.36</ele>
        <time>2015-09-27T09:11:45Z</time>
      </trkpt>
      <trkpt lat="45.74775" lon="5.31067">
        <ele>368.8</ele>
        <time>2015-09-27T09:11:50Z</time>
      </trkpt>
      <trkpt lat="45.74783" lon="5.31045">
        <ele>370.73</ele>
        <time>2015-09-27T09:12:02Z</time>
      </trkpt>
      <trkpt lat="45.74788" lon="5.31026">
        <ele>373.13</ele>
        <time>2015-09-27T09:12:15Z</time>
      </trkpt>
      <trkpt lat="45.74799" lon="5.31016">
        <ele>375.53</ele>
        <time>2015-09-27T09:12:27Z</time>
      </trkpt>
      <trkpt lat="45.74806" lon="5.31018">
        <ele>376.97</ele>
        <time>2015-09-27T09:12:33Z</time>
      </trkpt>
      <trkpt lat="45.74825" lon="5.31027">
        <ele>379.38</ele>
        <time>2015-09-27T09:12:49Z</time>
      </trkpt>
      <trkpt lat="45.74839" lon="5.31042">
        <ele>379.86</ele>
        <time>2015-09-27T09:13:00Z</time>
      </trkpt>
      <trkpt lat="45.74845" lon="5.31056">
        <ele>380.34</ele>
        <time>2015-09-27T09:13:09Z</time>
      </trkpt>
      <trkpt lat="45.74852" lon="5.31065">
        <ele>381.3</ele>
        <time>2015-09-27T09:13:18Z</time>
      </trkpt>
      <trkpt lat="45.74866" lon="5.31078">
        <ele>382.74</ele>
        <time>2015-09-27T09:13:30Z</time>
      </trkpt>
      <trkpt lat="45.74878" lon="5.31091">
        <ele>383.22</ele>
        <time>2015-09-27T09:13:44Z</time>
      </trkpt>
      <trkpt lat="45.7489" lon="5.31112">
        <ele>383.7</ele>
        <time>2015-09-27T09:14:01Z</time>
      </trkpt>
      <trkpt lat="45.74907" lon="5.31131">
        <ele>382.74</ele>
        <time>2015-09-27T09:14:15Z</time>
      </trkpt>
      <trkpt lat="45.74923" lon="5.31146">
        <ele>382.26</ele>
        <time>2015-09-27T09:14:25Z</time>
      </trkpt>
      <trkpt lat="45.74939" lon="5.31166">
        <ele>382.74</ele>
        <time>2015-09-27T09:14:34Z</time>
      </trkpt>
      <trkpt lat="45.74959" lon="5.31184">
        <ele>382.74</ele>
        <time>2015-09-27T09:14:44Z</time>
      </trkpt>
      <trkpt lat="45.74975" lon="5.31197">
        <ele>382.74</ele>
        <time>2015-09-27T09:14:53Z</time>
      </trkpt>
      <trkpt lat="45.74991" lon="5.31205">
        <ele>383.22</ele>
        <time>2015-09-27T09:15:02Z</time>
      </trkpt>
      <trkpt lat="45.75006" lon="5.3121">
        <ele>384.18</ele>
        <time>2015-09-27T09:15:10Z</time>
      </trkpt>
      <trkpt lat="45.75019" lon="5.31211">
        <ele>385.63</ele>
        <time>2015-09-27T09:15:17Z</time>
      </trkpt>
      <trkpt lat="45.7505" lon="5.31203">
        <ele>388.51</ele>
        <time>2015-09-27T09:15:33Z</time>
      </trkpt>
      <trkpt lat="45.75084" lon="5.31194">
        <ele>390.43</ele>
        <time>2015-09-27T09:15:49Z</time>
      </trkpt>
      <trkpt lat="45.75107" lon="5.31195">
        <ele>390.43</ele>
        <time>2015-09-27T09:16:02Z</time>
      </trkpt>
      <trkpt lat="45.75131" lon="5.31197">
        <ele>390.43</ele>
        <time>2015-09-27T09:16:10Z</time>
      </trkpt>
      <trkpt lat="45.7515" lon="5.31193">
        <ele>391.39</ele>
        <time>2015-09-27T09:16:20Z</time>
      </trkpt>
      <trkpt lat="45.75167" lon="5.31194">
        <ele>392.84</ele>
        <time>2015-09-27T09:16:29Z</time>
      </trkpt>
      <trkpt lat="45.75171" lon="5.31195">
        <ele>392.84</ele>
        <time>2015-09-27T09:16:31Z</time>
      </trkpt>
      <trkpt lat="45.75191" lon="5.31195">
        <ele>394.28</ele>
        <time>2015-09-27T09:16:39Z</time>
      </trkpt>
      <trkpt lat="45.75205" lon="5.31198">
        <ele>395.72</ele>
        <time>2015-09-27T09:16:47Z</time>
      </trkpt>
      <trkpt lat="45.75218" lon="5.31205">
        <ele>396.68</ele>
        <time>2015-09-27T09:16:54Z</time>
      </trkpt>
      <trkpt lat="45.75237" lon="5.31217">
        <ele>395.72</ele>
        <time>2015-09-27T09:17:02Z</time>
      </trkpt>
      <trkpt lat="45.7526" lon="5.31226">
        <ele>395.24</ele>
        <time>2015-09-27T09:17:11Z</time>
      </trkpt>
      <trkpt lat="45.75275" lon="5.31225">
        <ele>394.76</ele>
        <time>2015-09-27T09:17:18Z</time>
      </trkpt>
      <trkpt lat="45.75289" lon="5.31229">
        <ele>395.72</ele>
        <time>2015-09-27T09:17:25Z</time>
      </trkpt>
      <trkpt lat="45.75303" lon="5.31237">
        <ele>396.2</ele>
        <time>2015-09-27T09:17:34Z</time>
      </trkpt>
      <trkpt lat="45.75318" lon="5.31241">
        <ele>397.64</ele>
        <time>2015-09-27T09:17:43Z</time>
      </trkpt>
      <trkpt lat="45.75336" lon="5.31245">
        <ele>399.08</ele>
        <time>2015-09-27T09:17:52Z</time>
      </trkpt>
      <trkpt lat="45.7535" lon="5.31252">
        <ele>400.05</ele>
        <time>2015-09-27T09:18:00Z</time>
      </trkpt>
      <trkpt lat="45.75367" lon="5.31259">
        <ele>400.53</ele>
        <time>2015-09-27T09:18:08Z</time>
      </trkpt>
      <trkpt lat="45.75384" lon="5.31267">
        <ele>400.53</ele>
        <time>2015-09-27T09:18:17Z</time>
      </trkpt>
      <trkpt lat="45.75403" lon="5.31272">
        <ele>401.01</ele>
        <time>2015-09-27T09:18:28Z</time>
      </trkpt>
      <trkpt lat="45.75417" lon="5.31276">
        <ele>401.97</ele>
        <time>2015-09-27T09:18:36Z</time>
      </trkpt>
      <trkpt lat="45.75438" lon="5.31283">
        <ele>402.45</ele>
        <time>2015-09-27T09:18:44Z</time>
      </trkpt>
      <trkpt lat="45.75454" lon="5.31285">
        <ele>402.45</ele>
        <time>2015-09-27T09:18:51Z</time>
      </trkpt>
      <trkpt lat="45.75472" lon="5.31293">
        <ele>402.45</ele>
        <time>2015-09-27T09:18:58Z</time>
      </trkpt>
      <trkpt lat="45.75495" lon="5.313">
        <ele>403.41</ele>
        <time>2015-09-27T09:19:08Z</time>
      </trkpt>
      <trkpt lat="45.75518" lon="5.31316">
        <ele>403.89</ele>
        <time>2015-09-27T09:19:17Z</time>
      </trkpt>
      <trkpt lat="45.7553" lon="5.31322">
        <ele>403.41</ele>
        <time>2015-09-27T09:19:22Z</time>
      </trkpt>
      <trkpt lat="45.75545" lon="5.31337">
        <ele>401.97</ele>
        <time>2015-09-27T09:19:30Z</time>
      </trkpt>
      <trkpt lat="45.75558" lon="5.31353">
        <ele>399.57</ele>
        <time>2015-09-27T09:19:37Z</time>
      </trkpt>
      <trkpt lat="45.75562" lon="5.31355">
        <ele>399.57</ele>
        <time>2015-09-27T09:19:39Z</time>
      </trkpt>
      <trkpt lat="45.75578" lon="5.31351">
        <ele>400.53</ele>
        <time>2015-09-27T09:19:46Z</time>
      </trkpt>
      <trkpt lat="45.75598" lon="5.31349">
        <ele>402.45</ele>
        <time>2015-09-27T09:19:56Z</time>
      </trkpt>
      <trkpt lat="45.75612" lon="5.31347">
        <ele>403.41</ele>
        <time>2015-09-27T09:20:03Z</time>
      </trkpt>
      <trkpt lat="45.7563" lon="5.31348">
        <ele>404.37</ele>
        <time>2015-09-27T09:20:12Z</time>
      </trkpt>
      <trkpt lat="45.75651" lon="5.31351">
        <ele>404.85</ele>
        <time>2015-09-27T09:20:22Z</time>
      </trkpt>
      <trkpt lat="45.75666" lon="5.31357">
        <ele>404.85</ele>
        <time>2015-09-27T09:20:30Z</time>
      </trkpt>
      <trkpt lat="45.75681" lon="5.31365">
        <ele>404.85</ele>
        <time>2015-09-27T09:20:39Z</time>
      </trkpt>
      <trkpt lat="45.75698" lon="5.31367">
        <ele>403.89</ele>
        <time>2015-09-27T09:20:47Z</time>
      </trkpt>
      <trkpt lat="45.75713" lon="5.31352">
        <ele>402.93</ele>
        <time>2015-09-27T09:20:55Z</time>
      </trkpt>
      <trkpt lat="45.75732" lon="5.31341">
        <ele>402.45</ele>
        <time>2015-09-27T09:21:04Z</time>
      </trkpt>
      <trkpt lat="45.7574" lon="5.31333">
        <ele>401.97</ele>
        <time>2015-09-27T09:21:08Z</time>
      </trkpt>
      <trkpt lat="45.75758" lon="5.31336">
        <ele>401.49</ele>
        <time>2015-09-27T09:21:16Z</time>
      </trkpt>
      <trkpt lat="45.75773" lon="5.31337">
        <ele>401.97</ele>
        <time>2015-09-27T09:21:23Z</time>
      </trkpt>
      <trkpt lat="45.75787" lon="5.31331">
        <ele>401.97</ele>
        <time>2015-09-27T09:21:30Z</time>
      </trkpt>
      <trkpt lat="45.75791" lon="5.31328">
        <ele>401.97</ele>
        <time>2015-09-27T09:21:32Z</time>
      </trkpt>
      <trkpt lat="45.7581" lon="5.31336">
        <ele>401.49</ele>
        <time>2015-09-27T09:21:42Z</time>
      </trkpt>
      <trkpt lat="45.75822" lon="5.31338">
        <ele>402.45</ele>
        <time>2015-09-27T09:21:47Z</time>
      </trkpt>
      <trkpt lat="45.7584" lon="5.31327">
        <ele>401.97</ele>
        <time>2015-09-27T09:21:55Z</time>
      </trkpt>
      <trkpt lat="45.75857" lon="5.31321">
        <ele>401.01</ele>
        <time>2015-09-27T09:22:03Z</time>
      </trkpt>
      <trkpt lat="45.75873" lon="5.31311">
        <ele>401.49</ele>
        <time>2015-09-27T09:22:12Z</time>
      </trkpt>
      <trkpt lat="45.75897" lon="5.31308">
        <ele>399.57</ele>
        <time>2015-09-27T09:22:23Z</time>
      </trkpt>
      <trkpt lat="45.75899" lon="5.31308">
        <ele>399.57</ele>
        <time>2015-09-27T09:22:24Z</time>
      </trkpt>
      <trkpt lat="45.75914" lon="5.31298">
        <ele>400.05</ele>
        <time>2015-09-27T09:22:31Z</time>
      </trkpt>
      <trkpt lat="45.75931" lon="5.31293">
        <ele>400.05</ele>
        <time>2015-09-27T09:22:40Z</time>
      </trkpt>
      <trkpt lat="45.75953" lon="5.31287">
        <ele>400.05</ele>
        <time>2015-09-27T09:22:49Z</time>
      </trkpt>
      <trkpt lat="45.7597" lon="5.3129">
        <ele>399.08</ele>
        <time>2015-09-27T09:22:55Z</time>
      </trkpt>
      <trkpt lat="45.75989" lon="5.31291">
        <ele>398.12</ele>
        <time>2015-09-27T09:23:03Z</time>
      </trkpt>
      <trkpt lat="45.76005" lon="5.31291">
        <ele>395.72</ele>
        <time>2015-09-27T09:23:10Z</time>
      </trkpt>
      <trkpt lat="45.76007" lon="5.31291">
        <ele>395.24</ele>
        <time>2015-09-27T09:23:11Z</time>
      </trkpt>
      <trkpt lat="45.76023" lon="5.31291">
        <ele>392.36</ele>
        <time>2015-09-27T09:23:18Z</time>
      </trkpt>
      <trkpt lat="45.7604" lon="5.31291">
        <ele>389.47</ele>
        <time>2015-09-27T09:23:25Z</time>
      </trkpt>
      <trkpt lat="45.76054" lon="5.31296">
        <ele>386.11</ele>
        <time>2015-09-27T09:23:33Z</time>
      </trkpt>
      <trkpt lat="45.76064" lon="5.313">
        <ele>383.22</ele>
        <time>2015-09-27T09:23:40Z</time>
      </trkpt>
      <trkpt lat="45.76072" lon="5.31305">
        <ele>379.86</ele>
        <time>2015-09-27T09:23:47Z</time>
      </trkpt>
      <trkpt lat="45.7609" lon="5.31311">
        <ele>376.49</ele>
        <time>2015-09-27T09:23:54Z</time>
      </trkpt>
      <trkpt lat="45.76094" lon="5.31315">
        <ele>375.05</ele>
        <time>2015-09-27T09:23:57Z</time>
      </trkpt>
      <trkpt lat="45.76102" lon="5.31325">
        <ele>371.69</ele>
        <time>2015-09-27T09:24:02Z</time>
      </trkpt>
      <trkpt lat="45.76112" lon="5.31337">
        <ele>368.32</ele>
        <time>2015-09-27T09:24:09Z</time>
      </trkpt>
      <trkpt lat="45.76125" lon="5.3135">
        <ele>364.96</ele>
        <time>2015-09-27T09:24:17Z</time>
      </trkpt>
      <trkpt lat="45.76139" lon="5.31363">
        <ele>361.59</ele>
        <time>2015-09-27T09:24:24Z</time>
      </trkpt>
      <trkpt lat="45.76147" lon="5.31381">
        <ele>358.23</ele>
        <time>2015-09-27T09:24:31Z</time>
      </trkpt>
      <trkpt lat="45.76158" lon="5.31408">
        <ele>355.34</ele>
        <time>2015-09-27T09:24:40Z</time>
      </trkpt>
      <trkpt lat="45.76156" lon="5.31421">
        <ele>353.9</ele>
        <time>2015-09-27T09:24:44Z</time>
      </trkpt>
      <trkpt lat="45.76149" lon="5.31454">
        <ele>351.5</ele>
        <time>2015-09-27T09:24:53Z</time>
      </trkpt>
      <trkpt lat="45.76145" lon="5.31483">
        <ele>348.62</ele>
        <time>2015-09-27T09:25:01Z</time>
      </trkpt>
      <trkpt lat="45.76142" lon="5.31502">
        <ele>347.65</ele>
        <time>2015-09-27T09:25:08Z</time>
      </trkpt>
      <trkpt lat="45.7614" lon="5.31521">
        <ele>346.21</ele>
        <time>2015-09-27T09:25:16Z</time>
      </trkpt>
      <trkpt lat="45.76133" lon="5.31552">
        <ele>344.29</ele>
        <time>2015-09-27T09:25:26Z</time>
      </trkpt>
      <trkpt lat="45.76119" lon="5.31581">
        <ele>341.89</ele>
        <time>2015-09-27T09:25:35Z</time>
      </trkpt>
      <trkpt lat="45.76108" lon="5.31606">
        <ele>339.96</ele>
        <time>2015-09-27T09:25:43Z</time>
      </trkpt>
      <trkpt lat="45.76095" lon="5.31633">
        <ele>337.08</ele>
        <time>2015-09-27T09:25:52Z</time>
      </trkpt>
      <trkpt lat="45.76086" lon="5.31655">
        <ele>334.68</ele>
        <time>2015-09-27T09:25:59Z</time>
      </trkpt>
      <trkpt lat="45.76085" lon="5.31662">
        <ele>333.71</ele>
        <time>2015-09-27T09:26:02Z</time>
      </trkpt>
      <trkpt lat="45.761" lon="5.31663">
        <ele>333.71</ele>
        <time>2015-09-27T09:26:09Z</time>
      </trkpt>
      <trkpt lat="45.76113" lon="5.31659">
        <ele>335.64</ele>
        <time>2015-09-27T09:26:17Z</time>
      </trkpt>
      <trkpt lat="45.76128" lon="5.31656">
        <ele>337.56</ele>
        <time>2015-09-27T09:26:26Z</time>
      </trkpt>
      <trkpt lat="45.76145" lon="5.31648">
        <ele>339.96</ele>
        <time>2015-09-27T09:26:38Z</time>
      </trkpt>
      <trkpt lat="45.76161" lon="5.31634">
        <ele>342.37</ele>
        <time>2015-09-27T09:26:52Z</time>
      </trkpt>
      <trkpt lat="45.76169" lon="5.3162">
        <ele>343.81</ele>
        <time>2015-09-27T09:27:03Z</time>
      </trkpt>
      <trkpt lat="45.76179" lon="5.31608">
        <ele>344.77</ele>
        <time>2015-09-27T09:27:14Z</time>
      </trkpt>
      <trkpt lat="45.76192" lon="5.31593">
        <ele>345.25</ele>
        <time>2015-09-27T09:27:27Z</time>
      </trkpt>
      <trkpt lat="45.7621" lon="5.31579">
        <ele>344.29</ele>
        <time>2015-09-27T09:27:39Z</time>
      </trkpt>
      <trkpt lat="45.76225" lon="5.3157">
        <ele>344.77</ele>
        <time>2015-09-27T09:27:46Z</time>
      </trkpt>
      <trkpt lat="45.76247" lon="5.31557">
        <ele>343.33</ele>
        <time>2015-09-27T09:27:56Z</time>
      </trkpt>
      <trkpt lat="45.76267" lon="5.31537">
        <ele>342.85</ele>
        <time>2015-09-27T09:28:06Z</time>
      </trkpt>
      <trkpt lat="45.76281" lon="5.31518">
        <ele>343.81</ele>
        <time>2015-09-27T09:28:15Z</time>
      </trkpt>
      <trkpt lat="45.7629" lon="5.31501">
        <ele>344.29</ele>
        <time>2015-09-27T09:28:23Z</time>
      </trkpt>
      <trkpt lat="45.76299" lon="5.31479">
        <ele>344.29</ele>
        <time>2015-09-27T09:28:30Z</time>
      </trkpt>
      <trkpt lat="45.76307" lon="5.31467">
        <ele>344.29</ele>
        <time>2015-09-27T09:28:38Z</time>
      </trkpt>
      <trkpt lat="45.76316" lon="5.31446">
        <ele>343.81</ele>
        <time>2015-09-27T09:28:50Z</time>
      </trkpt>
      <trkpt lat="45.7633" lon="5.31432">
        <ele>343.81</ele>
        <time>2015-09-27T09:28:57Z</time>
      </trkpt>
      <trkpt lat="45.76345" lon="5.31418">
        <ele>344.77</ele>
        <time>2015-09-27T09:29:04Z</time>
      </trkpt>
      <trkpt lat="45.76365" lon="5.31406">
        <ele>345.73</ele>
        <time>2015-09-27T09:29:15Z</time>
      </trkpt>
      <trkpt lat="45.76383" lon="5.31391">
        <ele>347.65</ele>
        <time>2015-09-27T09:29:25Z</time>
      </trkpt>
      <trkpt lat="45.76397" lon="5.31377">
        <ele>348.62</ele>
        <time>2015-09-27T09:29:33Z</time>
      </trkpt>
      <trkpt lat="45.76416" lon="5.31368">
        <ele>349.1</ele>
        <time>2015-09-27T09:29:43Z</time>
      </trkpt>
      <trkpt lat="45.76432" lon="5.31362">
        <ele>350.54</ele>
        <time>2015-09-27T09:29:52Z</time>
      </trkpt>
      <trkpt lat="45.76447" lon="5.31353">
        <ele>351.98</ele>
        <time>2015-09-27T09:30:02Z</time>
      </trkpt>
      <trkpt lat="45.76461" lon="5.31345">
        <ele>352.94</ele>
        <time>2015-09-27T09:30:12Z</time>
      </trkpt>
      <trkpt lat="45.76469" lon="5.31336">
        <ele>353.9</ele>
        <time>2015-09-27T09:30:20Z</time>
      </trkpt>
      <trkpt lat="45.76483" lon="5.31324">
        <ele>355.83</ele>
        <time>2015-09-27T09:30:30Z</time>
      </trkpt>
      <trkpt lat="45.76494" lon="5.31307">
        <ele>357.27</ele>
        <time>2015-09-27T09:30:37Z</time>
      </trkpt>
      <trkpt lat="45.76504" lon="5.31297">
        <ele>358.71</ele>
        <time>2015-09-27T09:30:47Z</time>
      </trkpt>
      <trkpt lat="45.76513" lon="5.31288">
        <ele>361.11</ele>
        <time>2015-09-27T09:30:58Z</time>
      </trkpt>
      <trkpt lat="45.76524" lon="5.31282">
        <ele>362.55</ele>
        <time>2015-09-27T09:31:08Z</time>
      </trkpt>
      <trkpt lat="45.76532" lon="5.31273">
        <ele>364.48</ele>
        <time>2015-09-27T09:31:19Z</time>
      </trkpt>
      <trkpt lat="45.76539" lon="5.31269">
        <ele>366.4</ele>
        <time>2015-09-27T09:31:27Z</time>
      </trkpt>
      <trkpt lat="45.76545" lon="5.31263">
        <ele>367.84</ele>
        <time>2015-09-27T09:31:35Z</time>
      </trkpt>
      <trkpt lat="45.76553" lon="5.31258">
        <ele>369.76</ele>
        <time>2015-09-27T09:31:42Z</time>
      </trkpt>
      <trkpt lat="45.7657" lon="5.31242">
        <ele>372.17</ele>
        <time>2015-09-27T09:31:59Z</time>
      </trkpt>
      <trkpt lat="45.76578" lon="5.31225">
        <ele>373.13</ele>
        <time>2015-09-27T09:32:13Z</time>
      </trkpt>
      <trkpt lat="45.76588" lon="5.31206">
        <ele>374.09</ele>
        <time>2015-09-27T09:32:25Z</time>
      </trkpt>
      <trkpt lat="45.766" lon="5.31187">
        <ele>375.53</ele>
        <time>2015-09-27T09:32:40Z</time>
      </trkpt>
      <trkpt lat="45.76604" lon="5.31163">
        <ele>377.45</ele>
        <time>2015-09-27T09:32:54Z</time>
      </trkpt>
      <trkpt lat="45.76614" lon="5.31143">
        <ele>380.34</ele>
        <time>2015-09-27T09:33:09Z</time>
      </trkpt>
      <trkpt lat="45.76616" lon="5.31126">
        <ele>382.74</ele>
        <time>2015-09-27T09:33:20Z</time>
      </trkpt>
      <trkpt lat="45.76616" lon="5.31105">
        <ele>385.15</ele>
        <time>2015-09-27T09:33:35Z</time>
      </trkpt>
      <trkpt lat="45.76618" lon="5.31089">
        <ele>388.51</ele>
        <time>2015-09-27T09:33:47Z</time>
      </trkpt>
      <trkpt lat="45.76618" lon="5.31067">
        <ele>390.43</ele>
        <time>2015-09-27T09:33:59Z</time>
      </trkpt>
      <trkpt lat="45.76618" lon="5.31049">
        <ele>391.39</ele>
        <time>2015-09-27T09:34:10Z</time>
      </trkpt>
      <trkpt lat="45.76615" lon="5.31034">
        <ele>392.36</ele>
        <time>2015-09-27T09:34:22Z</time>
      </trkpt>
      <trkpt lat="45.76616" lon="5.31034">
        <ele>392.36</ele>
        <time>2015-09-27T09:34:37Z</time>
      </trkpt>
      <trkpt lat="45.76615" lon="5.31049">
        <ele>391.87</ele>
        <time>2015-09-27T09:34:44Z</time>
      </trkpt>
      <trkpt lat="45.76613" lon="5.31068">
        <ele>390.91</ele>
        <time>2015-09-27T09:34:50Z</time>
      </trkpt>
      <trkpt lat="45.76611" lon="5.31097">
        <ele>388.03</ele>
        <time>2015-09-27T09:34:59Z</time>
      </trkpt>
      <trkpt lat="45.76613" lon="5.31111">
        <ele>385.63</ele>
        <time>2015-09-27T09:35:04Z</time>
      </trkpt>
      <trkpt lat="45.76613" lon="5.3113">
        <ele>382.26</ele>
        <time>2015-09-27T09:35:10Z</time>
      </trkpt>
      <trkpt lat="45.7661" lon="5.31151">
        <ele>379.86</ele>
        <time>2015-09-27T09:35:16Z</time>
      </trkpt>
      <trkpt lat="45.76604" lon="5.31168">
        <ele>377.45</ele>
        <time>2015-09-27T09:35:22Z</time>
      </trkpt>
      <trkpt lat="45.76605" lon="5.31169">
        <ele>376.97</ele>
        <time>2015-09-27T09:35:23Z</time>
      </trkpt>
      <trkpt lat="45.76618" lon="5.3116">
        <ele>376.49</ele>
        <time>2015-09-27T09:35:30Z</time>
      </trkpt>
      <trkpt lat="45.76629" lon="5.31143">
        <ele>376.97</ele>
        <time>2015-09-27T09:35:38Z</time>
      </trkpt>
      <trkpt lat="45.76646" lon="5.3112">
        <ele>377.45</ele>
        <time>2015-09-27T09:35:48Z</time>
      </trkpt>
      <trkpt lat="45.76659" lon="5.31103">
        <ele>377.94</ele>
        <time>2015-09-27T09:35:56Z</time>
      </trkpt>
      <trkpt lat="45.76672" lon="5.31078">
        <ele>378.9</ele>
        <time>2015-09-27T09:36:07Z</time>
      </trkpt>
      <trkpt lat="45.76685" lon="5.31053">
        <ele>377.94</ele>
        <time>2015-09-27T09:36:17Z</time>
      </trkpt>
      <trkpt lat="45.767" lon="5.31035">
        <ele>378.42</ele>
        <time>2015-09-27T09:36:26Z</time>
      </trkpt>
      <trkpt lat="45.7671" lon="5.31017">
        <ele>377.94</ele>
        <time>2015-09-27T09:36:33Z</time>
      </trkpt>
      <trkpt lat="45.76726" lon="5.31005">
        <ele>376.97</ele>
        <time>2015-09-27T09:36:40Z</time>
      </trkpt>
      <trkpt lat="45.76739" lon="5.30989">
        <ele>375.05</ele>
        <time>2015-09-27T09:36:47Z</time>
      </trkpt>
      <trkpt lat="45.7675" lon="5.30975">
        <ele>374.57</ele>
        <time>2015-09-27T09:36:54Z</time>
      </trkpt>
      <trkpt lat="45.76765" lon="5.30956">
        <ele>374.09</ele>
        <time>2015-09-27T09:37:04Z</time>
      </trkpt>
      <trkpt lat="45.76784" lon="5.30939">
        <ele>371.69</ele>
        <time>2015-09-27T09:37:12Z</time>
      </trkpt>
      <trkpt lat="45.76791" lon="5.30932">
        <ele>370.73</ele>
        <time>2015-09-27T09:37:15Z</time>
      </trkpt>
      <trkpt lat="45.76811" lon="5.3091">
        <ele>367.36</ele>
        <time>2015-09-27T09:37:25Z</time>
      </trkpt>
      <trkpt lat="45.76819" lon="5.30884">
        <ele>364.48</ele>
        <time>2015-09-27T09:37:34Z</time>
      </trkpt>
      <trkpt lat="45.76838" lon="5.30866">
        <ele>364.48</ele>
        <time>2015-09-27T09:37:44Z</time>
      </trkpt>
      <trkpt lat="45.76855" lon="5.30848">
        <ele>364</ele>
        <time>2015-09-27T09:37:52Z</time>
      </trkpt>
      <trkpt lat="45.76866" lon="5.30834">
        <ele>361.59</ele>
        <time>2015-09-27T09:37:58Z</time>
      </trkpt>
      <trkpt lat="45.76877" lon="5.30816">
        <ele>361.11</ele>
        <time>2015-09-27T09:38:06Z</time>
      </trkpt>
      <trkpt lat="45.7689" lon="5.308">
        <ele>361.59</ele>
        <time>2015-09-27T09:38:13Z</time>
      </trkpt>
      <trkpt lat="45.7691" lon="5.30786">
        <ele>363.04</ele>
        <time>2015-09-27T09:38:23Z</time>
      </trkpt>
      <trkpt lat="45.76928" lon="5.30768">
        <ele>363.52</ele>
        <time>2015-09-27T09:38:33Z</time>
      </trkpt>
      <trkpt lat="45.76923" lon="5.30748">
        <ele>364</ele>
        <time>2015-09-27T09:38:39Z</time>
      </trkpt>
      <trkpt lat="45.76924" lon="5.30749">
        <ele>364</ele>
        <time>2015-09-27T09:38:42Z</time>
      </trkpt>
      <trkpt lat="45.76941" lon="5.30763">
        <ele>361.59</ele>
        <time>2015-09-27T09:38:50Z</time>
      </trkpt>
      <trkpt lat="45.76954" lon="5.30777">
        <ele>360.63</ele>
        <time>2015-09-27T09:38:56Z</time>
      </trkpt>
      <trkpt lat="45.76963" lon="5.30789">
        <ele>359.67</ele>
        <time>2015-09-27T09:39:03Z</time>
      </trkpt>
      <trkpt lat="45.76977" lon="5.30812">
        <ele>358.23</ele>
        <time>2015-09-27T09:39:13Z</time>
      </trkpt>
      <trkpt lat="45.76988" lon="5.30832">
        <ele>356.31</ele>
        <time>2015-09-27T09:39:20Z</time>
      </trkpt>
      <trkpt lat="45.76998" lon="5.30849">
        <ele>353.9</ele>
        <time>2015-09-27T09:39:27Z</time>
      </trkpt>
      <trkpt lat="45.77009" lon="5.30865">
        <ele>351.02</ele>
        <time>2015-09-27T09:39:35Z</time>
      </trkpt>
      <trkpt lat="45.77023" lon="5.30874">
        <ele>347.65</ele>
        <time>2015-09-27T09:39:42Z</time>
      </trkpt>
      <trkpt lat="45.77027" lon="5.30878">
        <ele>347.17</ele>
        <time>2015-09-27T09:39:44Z</time>
      </trkpt>
      <trkpt lat="45.7703" lon="5.30892">
        <ele>346.21</ele>
        <time>2015-09-27T09:39:48Z</time>
      </trkpt>
      <trkpt lat="45.77032" lon="5.30915">
        <ele>344.29</ele>
        <time>2015-09-27T09:39:59Z</time>
      </trkpt>
      <trkpt lat="45.77023" lon="5.30919">
        <ele>343.33</ele>
        <time>2015-09-27T09:40:04Z</time>
      </trkpt>
      <trkpt lat="45.7701" lon="5.30941">
        <ele>341.89</ele>
        <time>2015-09-27T09:40:12Z</time>
      </trkpt>
      <trkpt lat="45.77006" lon="5.30963">
        <ele>339</ele>
        <time>2015-09-27T09:40:20Z</time>
      </trkpt>
      <trkpt lat="45.77004" lon="5.30974">
        <ele>337.56</ele>
        <time>2015-09-27T09:40:24Z</time>
      </trkpt>
      <trkpt lat="45.77019" lon="5.30971">
        <ele>334.68</ele>
        <time>2015-09-27T09:40:31Z</time>
      </trkpt>
      <trkpt lat="45.77033" lon="5.30967">
        <ele>332.75</ele>
        <time>2015-09-27T09:40:38Z</time>
      </trkpt>
      <trkpt lat="45.77052" lon="5.30969">
        <ele>329.39</ele>
        <time>2015-09-27T09:40:46Z</time>
      </trkpt>
      <trkpt lat="45.77064" lon="5.30977">
        <ele>327.95</ele>
        <time>2015-09-27T09:40:51Z</time>
      </trkpt>
      <trkpt lat="45.77066" lon="5.30989">
        <ele>327.47</ele>
        <time>2015-09-27T09:40:55Z</time>
      </trkpt>
      <trkpt lat="45.77068" lon="5.30998">
        <ele>327.95</ele>
        <time>2015-09-27T09:40:59Z</time>
      </trkpt>
      <trkpt lat="45.77089" lon="5.3099">
        <ele>328.91</ele>
        <time>2015-09-27T09:41:09Z</time>
      </trkpt>
      <trkpt lat="45.77103" lon="5.30985">
        <ele>328.91</ele>
        <time>2015-09-27T09:41:17Z</time>
      </trkpt>
      <trkpt lat="45.77114" lon="5.30984">
        <ele>328.91</ele>
        <time>2015-09-27T09:41:24Z</time>
      </trkpt>
      <trkpt lat="45.77138" lon="5.30982">
        <ele>328.91</ele>
        <time>2015-09-27T09:41:33Z</time>
      </trkpt>
      <trkpt lat="45.77156" lon="5.30978">
        <ele>329.39</ele>
        <time>2015-09-27T09:41:41Z</time>
      </trkpt>
      <trkpt lat="45.77174" lon="5.30968">
        <ele>329.87</ele>
        <time>2015-09-27T09:41:50Z</time>
      </trkpt>
      <trkpt lat="45.7719" lon="5.30961">
        <ele>329.87</ele>
        <time>2015-09-27T09:41:57Z</time>
      </trkpt>
      <trkpt lat="45.77206" lon="5.30954">
        <ele>330.35</ele>
        <time>2015-09-27T09:42:06Z</time>
      </trkpt>
      <trkpt lat="45.77218" lon="5.30946">
        <ele>330.83</ele>
        <time>2015-09-27T09:42:13Z</time>
      </trkpt>
      <trkpt lat="45.77237" lon="5.30934">
        <ele>331.31</ele>
        <time>2015-09-27T09:42:23Z</time>
      </trkpt>
      <trkpt lat="45.77253" lon="5.30925">
        <ele>331.79</ele>
        <time>2015-09-27T09:42:30Z</time>
      </trkpt>
      <trkpt lat="45.77269" lon="5.30918">
        <ele>331.79</ele>
        <time>2015-09-27T09:42:38Z</time>
      </trkpt>
      <trkpt lat="45.77283" lon="5.30914">
        <ele>331.79</ele>
        <time>2015-09-27T09:42:45Z</time>
      </trkpt>
      <trkpt lat="45.77291" lon="5.30912">
        <ele>333.23</ele>
        <time>2015-09-27T09:42:54Z</time>
      </trkpt>
      <trkpt lat="45.77294" lon="5.30912">
        <ele>336.12</ele>
        <time>2015-09-27T09:43:25Z</time>
      </trkpt>
      <trkpt lat="45.77337" lon="5.30908">
        <ele>337.08</ele>
        <time>2015-09-27T09:43:34Z</time>
      </trkpt>
      <trkpt lat="45.77359" lon="5.30908">
        <ele>339</ele>
        <time>2015-09-27T09:43:43Z</time>
      </trkpt>
      <trkpt lat="45.7737" lon="5.30914">
        <ele>340.44</ele>
        <time>2015-09-27T09:43:51Z</time>
      </trkpt>
      <trkpt lat="45.77377" lon="5.30918">
        <ele>341.89</ele>
        <time>2015-09-27T09:43:58Z</time>
      </trkpt>
      <trkpt lat="45.77391" lon="5.30915">
        <ele>343.81</ele>
        <time>2015-09-27T09:44:10Z</time>
      </trkpt>
      <trkpt lat="45.77399" lon="5.30911">
        <ele>344.29</ele>
        <time>2015-09-27T09:44:18Z</time>
      </trkpt>
      <trkpt lat="45.774" lon="5.3091">
        <ele>344.77</ele>
        <time>2015-09-27T09:44:19Z</time>
      </trkpt>
      <trkpt lat="45.7741" lon="5.30887">
        <ele>346.69</ele>
        <time>2015-09-27T09:44:34Z</time>
      </trkpt>
      <trkpt lat="45.77422" lon="5.30866">
        <ele>348.13</ele>
        <time>2015-09-27T09:44:48Z</time>
      </trkpt>
      <trkpt lat="45.77435" lon="5.3085">
        <ele>348.62</ele>
        <time>2015-09-27T09:45:01Z</time>
      </trkpt>
      <trkpt lat="45.77445" lon="5.30836">
        <ele>348.62</ele>
        <time>2015-09-27T09:45:10Z</time>
      </trkpt>
      <trkpt lat="45.77456" lon="5.30817">
        <ele>348.13</ele>
        <time>2015-09-27T09:45:17Z</time>
      </trkpt>
      <trkpt lat="45.77459" lon="5.30813">
        <ele>348.13</ele>
        <time>2015-09-27T09:45:19Z</time>
      </trkpt>
      <trkpt lat="45.77478" lon="5.30815">
        <ele>346.69</ele>
        <time>2015-09-27T09:45:28Z</time>
      </trkpt>
      <trkpt lat="45.77495" lon="5.30818">
        <ele>345.25</ele>
        <time>2015-09-27T09:45:36Z</time>
      </trkpt>
      <trkpt lat="45.77514" lon="5.30822">
        <ele>344.29</ele>
        <time>2015-09-27T09:45:44Z</time>
      </trkpt>
      <trkpt lat="45.77535" lon="5.30823">
        <ele>343.33</ele>
        <time>2015-09-27T09:45:52Z</time>
      </trkpt>
      <trkpt lat="45.77561" lon="5.30823">
        <ele>342.37</ele>
        <time>2015-09-27T09:46:02Z</time>
      </trkpt>
      <trkpt lat="45.77582" lon="5.30827">
        <ele>341.89</ele>
        <time>2015-09-27T09:46:10Z</time>
      </trkpt>
      <trkpt lat="45.77604" lon="5.30835">
        <ele>340.44</ele>
        <time>2015-09-27T09:46:21Z</time>
      </trkpt>
      <trkpt lat="45.77616" lon="5.30837">
        <ele>339</ele>
        <time>2015-09-27T09:46:30Z</time>
      </trkpt>
      <trkpt lat="45.77617" lon="5.30836">
        <ele>339</ele>
        <time>2015-09-27T09:46:35Z</time>
      </trkpt>
      <trkpt lat="45.77623" lon="5.30828">
        <ele>339</ele>
        <time>2015-09-27T09:46:39Z</time>
      </trkpt>
      <trkpt lat="45.77646" lon="5.30808">
        <ele>338.04</ele>
        <time>2015-09-27T09:46:50Z</time>
      </trkpt>
      <trkpt lat="45.77667" lon="5.30792">
        <ele>338.52</ele>
        <time>2015-09-27T09:47:00Z</time>
      </trkpt>
      <trkpt lat="45.77685" lon="5.30776">
        <ele>339</ele>
        <time>2015-09-27T09:47:10Z</time>
      </trkpt>
      <trkpt lat="45.77701" lon="5.30756">
        <ele>339.96</ele>
        <time>2015-09-27T09:47:19Z</time>
      </trkpt>
      <trkpt lat="45.77716" lon="5.3074">
        <ele>340.44</ele>
        <time>2015-09-27T09:47:28Z</time>
      </trkpt>
      <trkpt lat="45.7773" lon="5.30727">
        <ele>341.41</ele>
        <time>2015-09-27T09:47:36Z</time>
      </trkpt>
      <trkpt lat="45.77741" lon="5.30715">
        <ele>342.85</ele>
        <time>2015-09-27T09:47:44Z</time>
      </trkpt>
      <trkpt lat="45.77756" lon="5.30709">
        <ele>343.81</ele>
        <time>2015-09-27T09:47:52Z</time>
      </trkpt>
      <trkpt lat="45.77773" lon="5.30706">
        <ele>345.25</ele>
        <time>2015-09-27T09:48:01Z</time>
      </trkpt>
      <trkpt lat="45.77791" lon="5.30706">
        <ele>346.69</ele>
        <time>2015-09-27T09:48:09Z</time>
      </trkpt>
      <trkpt lat="45.77806" lon="5.30701">
        <ele>347.65</ele>
        <time>2015-09-27T09:48:18Z</time>
      </trkpt>
      <trkpt lat="45.77824" lon="5.30698">
        <ele>349.1</ele>
        <time>2015-09-27T09:48:27Z</time>
      </trkpt>
      <trkpt lat="45.7784" lon="5.30695">
        <ele>351.02</ele>
        <time>2015-09-27T09:48:37Z</time>
      </trkpt>
      <trkpt lat="45.77853" lon="5.30682">
        <ele>352.46</ele>
        <time>2015-09-27T09:48:47Z</time>
      </trkpt>
      <trkpt lat="45.77864" lon="5.3067">
        <ele>352.46</ele>
        <time>2015-09-27T09:48:56Z</time>
      </trkpt>
      <trkpt lat="45.77865" lon="5.30666">
        <ele>352.94</ele>
        <time>2015-09-27T09:49:06Z</time>
      </trkpt>
      <trkpt lat="45.77865" lon="5.30666">
        <ele>361.11</ele>
        <time>2015-09-27T09:49:07Z</time>
      </trkpt>
      <trkpt lat="45.77865" lon="5.30666">
        <ele>352.46</ele>
        <time>2015-09-27T09:49:08Z</time>
      </trkpt>
      <trkpt lat="45.77865" lon="5.30666">
        <ele>361.11</ele>
        <time>2015-09-27T09:49:13Z</time>
      </trkpt>
      <trkpt lat="45.77865" lon="5.30666">
        <ele>361.11</ele>
        <time>2015-09-27T09:49:14Z</time>
      </trkpt>
      <trkpt lat="45.77865" lon="5.30665">
        <ele>361.11</ele>
        <time>2015-09-27T09:49:22Z</time>
      </trkpt>
      <trkpt lat="45.77864" lon="5.30667">
        <ele>359.67</ele>
        <time>2015-09-27T09:49:52Z</time>
      </trkpt>
      <trkpt lat="45.77865" lon="5.30668">
        <ele>359.67</ele>
        <time>2015-09-27T09:50:07Z</time>
      </trkpt>
      <trkpt lat="45.77888" lon="5.30675">
        <ele>358.23</ele>
        <time>2015-09-27T09:50:15Z</time>
      </trkpt>
      <trkpt lat="45.77911" lon="5.30679">
        <ele>357.75</ele>
        <time>2015-09-27T09:50:24Z</time>
      </trkpt>
      <trkpt lat="45.77932" lon="5.3069">
        <ele>357.27</ele>
        <time>2015-09-27T09:50:34Z</time>
      </trkpt>
      <trkpt lat="45.77953" lon="5.30697">
        <ele>356.79</ele>
        <time>2015-09-27T09:50:42Z</time>
      </trkpt>
      <trkpt lat="45.7797" lon="5.30701">
        <ele>356.79</ele>
        <time>2015-09-27T09:50:49Z</time>
      </trkpt>
      <trkpt lat="45.77994" lon="5.30693">
        <ele>355.34</ele>
        <time>2015-09-27T09:50:59Z</time>
      </trkpt>
      <trkpt lat="45.7801" lon="5.30688">
        <ele>353.42</ele>
        <time>2015-09-27T09:51:07Z</time>
      </trkpt>
      <trkpt lat="45.78029" lon="5.30684">
        <ele>352.94</ele>
        <time>2015-09-27T09:51:14Z</time>
      </trkpt>
      <trkpt lat="45.78047" lon="5.30681">
        <ele>352.94</ele>
        <time>2015-09-27T09:51:23Z</time>
      </trkpt>
      <trkpt lat="45.78068" lon="5.30679">
        <ele>352.46</ele>
        <time>2015-09-27T09:51:32Z</time>
      </trkpt>
      <trkpt lat="45.78085" lon="5.30662">
        <ele>351.5</ele>
        <time>2015-09-27T09:51:40Z</time>
      </trkpt>
      <trkpt lat="45.78096" lon="5.30644">
        <ele>350.06</ele>
        <time>2015-09-27T09:51:47Z</time>
      </trkpt>
      <trkpt lat="45.78107" lon="5.30622">
        <ele>349.58</ele>
        <time>2015-09-27T09:51:55Z</time>
      </trkpt>
      <trkpt lat="45.7812" lon="5.30605">
        <ele>348.13</ele>
        <time>2015-09-27T09:52:03Z</time>
      </trkpt>
      <trkpt lat="45.78137" lon="5.30599">
        <ele>346.21</ele>
        <time>2015-09-27T09:52:11Z</time>
      </trkpt>
      <trkpt lat="45.78154" lon="5.30592">
        <ele>344.77</ele>
        <time>2015-09-27T09:52:20Z</time>
      </trkpt>
      <trkpt lat="45.78171" lon="5.30586">
        <ele>342.85</ele>
        <time>2015-09-27T09:52:28Z</time>
      </trkpt>
      <trkpt lat="45.78191" lon="5.30582">
        <ele>342.37</ele>
        <time>2015-09-27T09:52:37Z</time>
      </trkpt>
      <trkpt lat="45.78212" lon="5.30566">
        <ele>340.92</ele>
        <time>2015-09-27T09:52:45Z</time>
      </trkpt>
      <trkpt lat="45.78228" lon="5.30554">
        <ele>339.48</ele>
        <time>2015-09-27T09:52:53Z</time>
      </trkpt>
      <trkpt lat="45.7823" lon="5.30554">
        <ele>339.48</ele>
        <time>2015-09-27T09:52:54Z</time>
      </trkpt>
      <trkpt lat="45.78254" lon="5.30553">
        <ele>336.6</ele>
        <time>2015-09-27T09:53:03Z</time>
      </trkpt>
      <trkpt lat="45.78271" lon="5.30551">
        <ele>334.68</ele>
        <time>2015-09-27T09:53:10Z</time>
      </trkpt>
      <trkpt lat="45.78295" lon="5.30539">
        <ele>333.23</ele>
        <time>2015-09-27T09:53:19Z</time>
      </trkpt>
      <trkpt lat="45.78314" lon="5.30515">
        <ele>331.79</ele>
        <time>2015-09-27T09:53:29Z</time>
      </trkpt>
      <trkpt lat="45.78332" lon="5.30502">
        <ele>331.79</ele>
        <time>2015-09-27T09:53:38Z</time>
      </trkpt>
      <trkpt lat="45.78352" lon="5.30498">
        <ele>331.31</ele>
        <time>2015-09-27T09:53:47Z</time>
      </trkpt>
      <trkpt lat="45.78356" lon="5.30496">
        <ele>331.31</ele>
        <time>2015-09-27T09:53:49Z</time>
      </trkpt>
      <trkpt lat="45.78372" lon="5.30494">
        <ele>331.79</ele>
        <time>2015-09-27T09:53:59Z</time>
      </trkpt>
      <trkpt lat="45.78383" lon="5.30492">
        <ele>332.75</ele>
        <time>2015-09-27T09:54:05Z</time>
      </trkpt>
      <trkpt lat="45.78405" lon="5.30494">
        <ele>334.2</ele>
        <time>2015-09-27T09:54:15Z</time>
      </trkpt>
      <trkpt lat="45.78418" lon="5.30507">
        <ele>334.68</ele>
        <time>2015-09-27T09:54:21Z</time>
      </trkpt>
      <trkpt lat="45.78429" lon="5.30515">
        <ele>334.2</ele>
        <time>2015-09-27T09:54:26Z</time>
      </trkpt>
      <trkpt lat="45.78446" lon="5.30522">
        <ele>332.75</ele>
        <time>2015-09-27T09:54:35Z</time>
      </trkpt>
      <trkpt lat="45.78463" lon="5.30526">
        <ele>332.75</ele>
        <time>2015-09-27T09:54:43Z</time>
      </trkpt>
      <trkpt lat="45.78485" lon="5.30528">
        <ele>332.27</ele>
        <time>2015-09-27T09:54:51Z</time>
      </trkpt>
      <trkpt lat="45.78504" lon="5.30534">
        <ele>329.87</ele>
        <time>2015-09-27T09:54:59Z</time>
      </trkpt>
      <trkpt lat="45.78519" lon="5.30536">
        <ele>327.95</ele>
        <time>2015-09-27T09:55:06Z</time>
      </trkpt>
      <trkpt lat="45.78534" lon="5.30519">
        <ele>328.43</ele>
        <time>2015-09-27T09:55:15Z</time>
      </trkpt>
      <trkpt lat="45.78548" lon="5.30507">
        <ele>327.95</ele>
        <time>2015-09-27T09:55:22Z</time>
      </trkpt>
      <trkpt lat="45.78562" lon="5.30497">
        <ele>326.5</ele>
        <time>2015-09-27T09:55:30Z</time>
      </trkpt>
      <trkpt lat="45.78578" lon="5.30489">
        <ele>326.02</ele>
        <time>2015-09-27T09:55:38Z</time>
      </trkpt>
      <trkpt lat="45.78595" lon="5.30478">
        <ele>327.47</ele>
        <time>2015-09-27T09:55:47Z</time>
      </trkpt>
      <trkpt lat="45.78612" lon="5.30467">
        <ele>328.43</ele>
        <time>2015-09-27T09:55:54Z</time>
      </trkpt>
      <trkpt lat="45.7863" lon="5.30457">
        <ele>328.91</ele>
        <time>2015-09-27T09:56:03Z</time>
      </trkpt>
      <trkpt lat="45.78647" lon="5.30447">
        <ele>328.91</ele>
        <time>2015-09-27T09:56:12Z</time>
      </trkpt>
      <trkpt lat="45.78663" lon="5.30436">
        <ele>328.43</ele>
        <time>2015-09-27T09:56:20Z</time>
      </trkpt>
      <trkpt lat="45.78677" lon="5.30428">
        <ele>327.95</ele>
        <time>2015-09-27T09:56:27Z</time>
      </trkpt>
      <trkpt lat="45.78692" lon="5.30426">
        <ele>326.5</ele>
        <time>2015-09-27T09:56:34Z</time>
      </trkpt>
      <trkpt lat="45.78707" lon="5.30431">
        <ele>325.06</ele>
        <time>2015-09-27T09:56:41Z</time>
      </trkpt>
      <trkpt lat="45.78715" lon="5.30438">
        <ele>324.1</ele>
        <time>2015-09-27T09:56:47Z</time>
      </trkpt>
      <trkpt lat="45.7874" lon="5.30447">
        <ele>323.14</ele>
        <time>2015-09-27T09:56:56Z</time>
      </trkpt>
      <trkpt lat="45.78764" lon="5.30447">
        <ele>323.14</ele>
        <time>2015-09-27T09:57:05Z</time>
      </trkpt>
      <trkpt lat="45.78784" lon="5.30446">
        <ele>323.62</ele>
        <time>2015-09-27T09:57:14Z</time>
      </trkpt>
      <trkpt lat="45.788" lon="5.30443">
        <ele>324.58</ele>
        <time>2015-09-27T09:57:22Z</time>
      </trkpt>
      <trkpt lat="45.78822" lon="5.30441">
        <ele>325.54</ele>
        <time>2015-09-27T09:57:31Z</time>
      </trkpt>
      <trkpt lat="45.78832" lon="5.30445">
        <ele>326.5</ele>
        <time>2015-09-27T09:57:38Z</time>
      </trkpt>
      <trkpt lat="45.78846" lon="5.30456">
        <ele>326.99</ele>
        <time>2015-09-27T09:57:45Z</time>
      </trkpt>
      <trkpt lat="45.78858" lon="5.30472">
        <ele>327.47</ele>
        <time>2015-09-27T09:57:53Z</time>
      </trkpt>
      <trkpt lat="45.78864" lon="5.30495">
        <ele>326.99</ele>
        <time>2015-09-27T09:58:00Z</time>
      </trkpt>
      <trkpt lat="45.78881" lon="5.30508">
        <ele>326.5</ele>
        <time>2015-09-27T09:58:08Z</time>
      </trkpt>
      <trkpt lat="45.78899" lon="5.30523">
        <ele>326.02</ele>
        <time>2015-09-27T09:58:16Z</time>
      </trkpt>
      <trkpt lat="45.78915" lon="5.30536">
        <ele>326.02</ele>
        <time>2015-09-27T09:58:24Z</time>
      </trkpt>
      <trkpt lat="45.78932" lon="5.30542">
        <ele>326.02</ele>
        <time>2015-09-27T09:58:31Z</time>
      </trkpt>
      <trkpt lat="45.78948" lon="5.30546">
        <ele>327.95</ele>
        <time>2015-09-27T09:58:41Z</time>
      </trkpt>
      <trkpt lat="45.78952" lon="5.30544">
        <ele>327.95</ele>
        <time>2015-09-27T09:58:43Z</time>
      </trkpt>
      <trkpt lat="45.78965" lon="5.3055">
        <ele>328.91</ele>
        <time>2015-09-27T09:58:50Z</time>
      </trkpt>
      <trkpt lat="45.78972" lon="5.30543">
        <ele>329.39</ele>
        <time>2015-09-27T09:58:56Z</time>
      </trkpt>
      <trkpt lat="45.78974" lon="5.30515">
        <ele>332.75</ele>
        <time>2015-09-27T09:59:26Z</time>
      </trkpt>
      <trkpt lat="45.7898" lon="5.30496">
        <ele>335.16</ele>
        <time>2015-09-27T09:59:37Z</time>
      </trkpt>
      <trkpt lat="45.78989" lon="5.30482">
        <ele>337.08</ele>
        <time>2015-09-27T09:59:51Z</time>
      </trkpt>
      <trkpt lat="45.78995" lon="5.30468">
        <ele>340.44</ele>
        <time>2015-09-27T10:00:06Z</time>
      </trkpt>
      <trkpt lat="45.78997" lon="5.30454">
        <ele>343.33</ele>
        <time>2015-09-27T10:00:18Z</time>
      </trkpt>
      <trkpt lat="45.78998" lon="5.30443">
        <ele>346.69</ele>
        <time>2015-09-27T10:00:32Z</time>
      </trkpt>
      <trkpt lat="45.79001" lon="5.30438">
        <ele>349.58</ele>
        <time>2015-09-27T10:00:43Z</time>
      </trkpt>
      <trkpt lat="45.79003" lon="5.30428">
        <ele>352.46</ele>
        <time>2015-09-27T10:00:55Z</time>
      </trkpt>
      <trkpt lat="45.7901" lon="5.30417">
        <ele>354.38</ele>
        <time>2015-09-27T10:01:05Z</time>
      </trkpt>
      <trkpt lat="45.79011" lon="5.30398">
        <ele>357.27</ele>
        <time>2015-09-27T10:01:21Z</time>
      </trkpt>
      <trkpt lat="45.79013" lon="5.30386">
        <ele>359.67</ele>
        <time>2015-09-27T10:01:33Z</time>
      </trkpt>
      <trkpt lat="45.7902" lon="5.30371">
        <ele>362.55</ele>
        <time>2015-09-27T10:01:48Z</time>
      </trkpt>
      <trkpt lat="45.79028" lon="5.30357">
        <ele>365.92</ele>
        <time>2015-09-27T10:02:04Z</time>
      </trkpt>
      <trkpt lat="45.79035" lon="5.30351">
        <ele>367.84</ele>
        <time>2015-09-27T10:02:16Z</time>
      </trkpt>
      <trkpt lat="45.79041" lon="5.30347">
        <ele>371.21</ele>
        <time>2015-09-27T10:02:27Z</time>
      </trkpt>
      <trkpt lat="45.79052" lon="5.30337">
        <ele>373.13</ele>
        <time>2015-09-27T10:02:42Z</time>
      </trkpt>
      <trkpt lat="45.79055" lon="5.30334">
        <ele>373.13</ele>
        <time>2015-09-27T10:02:49Z</time>
      </trkpt>
      <trkpt lat="45.7907" lon="5.30334">
        <ele>373.13</ele>
        <time>2015-09-27T10:03:02Z</time>
      </trkpt>
      <trkpt lat="45.79075" lon="5.30327">
        <ele>373.61</ele>
        <time>2015-09-27T10:03:10Z</time>
      </trkpt>
      <trkpt lat="45.79085" lon="5.30322">
        <ele>374.09</ele>
        <time>2015-09-27T10:03:20Z</time>
      </trkpt>
      <trkpt lat="45.79106" lon="5.30317">
        <ele>375.05</ele>
        <time>2015-09-27T10:03:32Z</time>
      </trkpt>
      <trkpt lat="45.7912" lon="5.30313">
        <ele>375.05</ele>
        <time>2015-09-27T10:03:39Z</time>
      </trkpt>
      <trkpt lat="45.79139" lon="5.30309">
        <ele>375.05</ele>
        <time>2015-09-27T10:03:48Z</time>
      </trkpt>
      <trkpt lat="45.79158" lon="5.30308">
        <ele>375.53</ele>
        <time>2015-09-27T10:03:56Z</time>
      </trkpt>
      <trkpt lat="45.79173" lon="5.30291">
        <ele>375.53</ele>
        <time>2015-09-27T10:04:06Z</time>
      </trkpt>
      <trkpt lat="45.79191" lon="5.30286">
        <ele>375.05</ele>
        <time>2015-09-27T10:04:15Z</time>
      </trkpt>
      <trkpt lat="45.79203" lon="5.30281">
        <ele>374.57</ele>
        <time>2015-09-27T10:04:22Z</time>
      </trkpt>
      <trkpt lat="45.79224" lon="5.3028">
        <ele>375.05</ele>
        <time>2015-09-27T10:04:31Z</time>
      </trkpt>
      <trkpt lat="45.79239" lon="5.30271">
        <ele>376.97</ele>
        <time>2015-09-27T10:04:40Z</time>
      </trkpt>
      <trkpt lat="45.79244" lon="5.3026">
        <ele>378.42</ele>
        <time>2015-09-27T10:04:48Z</time>
      </trkpt>
      <trkpt lat="45.79246" lon="5.30257">
        <ele>378.42</ele>
        <time>2015-09-27T10:04:50Z</time>
      </trkpt>
      <trkpt lat="45.79255" lon="5.30249">
        <ele>379.86</ele>
        <time>2015-09-27T10:04:59Z</time>
      </trkpt>
      <trkpt lat="45.79265" lon="5.30245">
        <ele>380.34</ele>
        <time>2015-09-27T10:05:07Z</time>
      </trkpt>
      <trkpt lat="45.79275" lon="5.30235">
        <ele>381.78</ele>
        <time>2015-09-27T10:05:16Z</time>
      </trkpt>
      <trkpt lat="45.79281" lon="5.30228">
        <ele>382.74</ele>
        <time>2015-09-27T10:05:22Z</time>
      </trkpt>
      <trkpt lat="45.79293" lon="5.30216">
        <ele>384.66</ele>
        <time>2015-09-27T10:05:34Z</time>
      </trkpt>
      <trkpt lat="45.793" lon="5.30207">
        <ele>385.63</ele>
        <time>2015-09-27T10:05:42Z</time>
      </trkpt>
      <trkpt lat="45.79306" lon="5.30188">
        <ele>386.59</ele>
        <time>2015-09-27T10:05:54Z</time>
      </trkpt>
      <trkpt lat="45.79314" lon="5.30172">
        <ele>387.55</ele>
        <time>2015-09-27T10:06:02Z</time>
      </trkpt>
      <trkpt lat="45.7933" lon="5.30156">
        <ele>388.51</ele>
        <time>2015-09-27T10:06:11Z</time>
      </trkpt>
      <trkpt lat="45.7934" lon="5.30147">
        <ele>388.99</ele>
        <time>2015-09-27T10:06:17Z</time>
      </trkpt>
      <trkpt lat="45.79347" lon="5.30129">
        <ele>389.47</ele>
        <time>2015-09-27T10:06:24Z</time>
      </trkpt>
      <trkpt lat="45.79351" lon="5.30107">
        <ele>388.51</ele>
        <time>2015-09-27T10:06:31Z</time>
      </trkpt>
      <trkpt lat="45.79357" lon="5.30084">
        <ele>387.55</ele>
        <time>2015-09-27T10:06:38Z</time>
      </trkpt>
      <trkpt lat="45.79367" lon="5.30059">
        <ele>387.07</ele>
        <time>2015-09-27T10:06:48Z</time>
      </trkpt>
      <trkpt lat="45.79368" lon="5.30058">
        <ele>387.07</ele>
        <time>2015-09-27T10:06:49Z</time>
      </trkpt>
      <trkpt lat="45.79376" lon="5.30048">
        <ele>388.03</ele>
        <time>2015-09-27T10:06:58Z</time>
      </trkpt>
      <trkpt lat="45.7938" lon="5.30042">
        <ele>388.03</ele>
        <time>2015-09-27T10:07:04Z</time>
      </trkpt>
      <trkpt lat="45.79385" lon="5.30043">
        <ele>389.47</ele>
        <time>2015-09-27T10:07:10Z</time>
      </trkpt>
      <trkpt lat="45.79389" lon="5.3005">
        <ele>391.39</ele>
        <time>2015-09-27T10:07:17Z</time>
      </trkpt>
      <trkpt lat="45.7939" lon="5.3005">
        <ele>391.39</ele>
        <time>2015-09-27T10:07:18Z</time>
      </trkpt>
      <trkpt lat="45.79394" lon="5.30057">
        <ele>392.84</ele>
        <time>2015-09-27T10:07:28Z</time>
      </trkpt>
      <trkpt lat="45.79393" lon="5.30055">
        <ele>392.84</ele>
        <time>2015-09-27T10:07:32Z</time>
      </trkpt>
      <trkpt lat="45.79402" lon="5.30043">
        <ele>391.87</ele>
        <time>2015-09-27T10:07:41Z</time>
      </trkpt>
      <trkpt lat="45.79412" lon="5.30033">
        <ele>390.43</ele>
        <time>2015-09-27T10:07:45Z</time>
      </trkpt>
      <trkpt lat="45.79414" lon="5.3003">
        <ele>389.47</ele>
        <time>2015-09-27T10:07:46Z</time>
      </trkpt>
      <trkpt lat="45.79431" lon="5.30008">
        <ele>386.11</ele>
        <time>2015-09-27T10:07:54Z</time>
      </trkpt>
      <trkpt lat="45.79438" lon="5.29996">
        <ele>385.15</ele>
        <time>2015-09-27T10:07:58Z</time>
      </trkpt>
      <trkpt lat="45.79444" lon="5.29987">
        <ele>383.7</ele>
        <time>2015-09-27T10:08:02Z</time>
      </trkpt>
      <trkpt lat="45.7945" lon="5.29969">
        <ele>381.78</ele>
        <time>2015-09-27T10:08:08Z</time>
      </trkpt>
      <trkpt lat="45.79455" lon="5.29951">
        <ele>379.38</ele>
        <time>2015-09-27T10:08:15Z</time>
      </trkpt>
      <trkpt lat="45.79454" lon="5.29949">
        <ele>378.42</ele>
        <time>2015-09-27T10:08:24Z</time>
      </trkpt>
      <trkpt lat="45.79454" lon="5.29952">
        <ele>377.94</ele>
        <time>2015-09-27T10:09:28Z</time>
      </trkpt>
      <trkpt lat="45.79454" lon="5.29952">
        <ele>378.42</ele>
        <time>2015-09-27T10:09:41Z</time>
      </trkpt>
      <trkpt lat="45.79454" lon="5.29953">
        <ele>378.42</ele>
        <time>2015-09-27T10:11:31Z</time>
      </trkpt>
      <trkpt lat="45.79454" lon="5.29953">
        <ele>378.42</ele>
        <time>2015-09-27T10:12:09Z</time>
      </trkpt>
      <trkpt lat="45.79455" lon="5.29953">
        <ele>378.42</ele>
        <time>2015-09-27T10:12:31Z</time>
      </trkpt>
      <trkpt lat="45.79454" lon="5.29949">
        <ele>377.94</ele>
        <time>2015-09-27T10:12:37Z</time>
      </trkpt>
      <trkpt lat="45.79455" lon="5.29949">
        <ele>377.94</ele>
        <time>2015-09-27T10:12:45Z</time>
      </trkpt>
      <trkpt lat="45.79455" lon="5.29949">
        <ele>377.94</ele>
        <time>2015-09-27T10:12:59Z</time>
      </trkpt>
      <trkpt lat="45.79455" lon="5.29949">
        <ele>377.94</ele>
        <time>2015-09-27T10:13:07Z</time>
      </trkpt>
      <trkpt lat="45.79454" lon="5.29949">
        <ele>377.45</ele>
        <time>2015-09-27T10:13:18Z</time>
      </trkpt>
      <trkpt lat="45.79454" lon="5.2995">
        <ele>377.94</ele>
        <time>2015-09-27T10:13:47Z</time>
      </trkpt>
      <trkpt lat="45.79453" lon="5.29953">
        <ele>377.94</ele>
        <time>2015-09-27T10:13:53Z</time>
      </trkpt>
      <trkpt lat="45.79452" lon="5.29954">
        <ele>377.94</ele>
        <time>2015-09-27T10:14:07Z</time>
      </trkpt>
      <trkpt lat="45.79455" lon="5.29953">
        <ele>378.42</ele>
        <time>2015-09-27T10:14:39Z</time>
      </trkpt>
      <trkpt lat="45.79454" lon="5.29954">
        <ele>378.42</ele>
        <time>2015-09-27T10:15:02Z</time>
      </trkpt>
      <trkpt lat="45.79454" lon="5.29955">
        <ele>378.42</ele>
        <time>2015-09-27T10:15:23Z</time>
      </trkpt>
      <trkpt lat="45.79452" lon="5.29954">
        <ele>377.94</ele>
        <time>2015-09-27T10:15:31Z</time>
      </trkpt>
      <trkpt lat="45.79452" lon="5.29952">
        <ele>377.94</ele>
        <time>2015-09-27T10:15:46Z</time>
      </trkpt>
      <trkpt lat="45.7945" lon="5.29951">
        <ele>378.42</ele>
        <time>2015-09-27T10:16:12Z</time>
      </trkpt>
      <trkpt lat="45.79451" lon="5.2995">
        <ele>378.42</ele>
        <time>2015-09-27T10:16:19Z</time>
      </trkpt>
      <trkpt lat="45.79451" lon="5.2995">
        <ele>377.94</ele>
        <time>2015-09-27T10:16:52Z</time>
      </trkpt>
      <trkpt lat="45.79451" lon="5.2995">
        <ele>377.94</ele>
        <time>2015-09-27T10:17:12Z</time>
      </trkpt>
      <trkpt lat="45.79435" lon="5.2996">
        <ele>378.42</ele>
        <time>2015-09-27T10:17:20Z</time>
      </trkpt>
      <trkpt lat="45.79422" lon="5.29968">
        <ele>380.82</ele>
        <time>2015-09-27T10:17:26Z</time>
      </trkpt>
      <trkpt lat="45.794" lon="5.29963">
        <ele>381.3</ele>
        <time>2015-09-27T10:17:36Z</time>
      </trkpt>
      <trkpt lat="45.79382" lon="5.29946">
        <ele>380.34</ele>
        <time>2015-09-27T10:17:45Z</time>
      </trkpt>
      <trkpt lat="45.7937" lon="5.2993">
        <ele>379.86</ele>
        <time>2015-09-27T10:17:53Z</time>
      </trkpt>
      <trkpt lat="45.79355" lon="5.2993">
        <ele>379.86</ele>
        <time>2015-09-27T10:18:00Z</time>
      </trkpt>
      <trkpt lat="45.79335" lon="5.29934">
        <ele>377.45</ele>
        <time>2015-09-27T10:18:08Z</time>
      </trkpt>
      <trkpt lat="45.79311" lon="5.29924">
        <ele>375.53</ele>
        <time>2015-09-27T10:18:18Z</time>
      </trkpt>
      <trkpt lat="45.79305" lon="5.29924">
        <ele>374.57</ele>
        <time>2015-09-27T10:18:21Z</time>
      </trkpt>
      <trkpt lat="45.79288" lon="5.29923">
        <ele>375.05</ele>
        <time>2015-09-27T10:18:29Z</time>
      </trkpt>
      <trkpt lat="45.79278" lon="5.29899">
        <ele>374.57</ele>
        <time>2015-09-27T10:18:38Z</time>
      </trkpt>
      <trkpt lat="45.79275" lon="5.29881">
        <ele>375.05</ele>
        <time>2015-09-27T10:18:45Z</time>
      </trkpt>
      <trkpt lat="45.79267" lon="5.29864">
        <ele>374.57</ele>
        <time>2015-09-27T10:18:53Z</time>
      </trkpt>
      <trkpt lat="45.79254" lon="5.29849">
        <ele>375.05</ele>
        <time>2015-09-27T10:19:00Z</time>
      </trkpt>
      <trkpt lat="45.79234" lon="5.29835">
        <ele>375.53</ele>
        <time>2015-09-27T10:19:09Z</time>
      </trkpt>
      <trkpt lat="45.79219" lon="5.29818">
        <ele>375.05</ele>
        <time>2015-09-27T10:19:16Z</time>
      </trkpt>
      <trkpt lat="45.7921" lon="5.29807">
        <ele>375.53</ele>
        <time>2015-09-27T10:19:21Z</time>
      </trkpt>
      <trkpt lat="45.79194" lon="5.29787">
        <ele>375.53</ele>
        <time>2015-09-27T10:19:29Z</time>
      </trkpt>
      <trkpt lat="45.79183" lon="5.29779">
        <ele>375.53</ele>
        <time>2015-09-27T10:19:34Z</time>
      </trkpt>
      <trkpt lat="45.79172" lon="5.29777">
        <ele>374.57</ele>
        <time>2015-09-27T10:19:39Z</time>
      </trkpt>
      <trkpt lat="45.79158" lon="5.29777">
        <ele>372.65</ele>
        <time>2015-09-27T10:19:45Z</time>
      </trkpt>
      <trkpt lat="45.7915" lon="5.29782">
        <ele>372.17</ele>
        <time>2015-09-27T10:19:51Z</time>
      </trkpt>
      <trkpt lat="45.7914" lon="5.29788">
        <ele>373.13</ele>
        <time>2015-09-27T10:19:59Z</time>
      </trkpt>
      <trkpt lat="45.79128" lon="5.29785">
        <ele>373.13</ele>
        <time>2015-09-27T10:20:07Z</time>
      </trkpt>
      <trkpt lat="45.79115" lon="5.29773">
        <ele>372.17</ele>
        <time>2015-09-27T10:20:14Z</time>
      </trkpt>
      <trkpt lat="45.7911" lon="5.29771">
        <ele>370.73</ele>
        <time>2015-09-27T10:20:20Z</time>
      </trkpt>
      <trkpt lat="45.79108" lon="5.29774">
        <ele>370.73</ele>
        <time>2015-09-27T10:20:41Z</time>
      </trkpt>
      <trkpt lat="45.79097" lon="5.29786">
        <ele>370.73</ele>
        <time>2015-09-27T10:20:49Z</time>
      </trkpt>
      <trkpt lat="45.79084" lon="5.29797">
        <ele>371.69</ele>
        <time>2015-09-27T10:20:56Z</time>
      </trkpt>
      <trkpt lat="45.79068" lon="5.29789">
        <ele>372.65</ele>
        <time>2015-09-27T10:21:06Z</time>
      </trkpt>
      <trkpt lat="45.79071" lon="5.29768">
        <ele>374.09</ele>
        <time>2015-09-27T10:21:15Z</time>
      </trkpt>
      <trkpt lat="45.7907" lon="5.29761">
        <ele>374.09</ele>
        <time>2015-09-27T10:21:18Z</time>
      </trkpt>
      <trkpt lat="45.79068" lon="5.29743">
        <ele>374.09</ele>
        <time>2015-09-27T10:21:25Z</time>
      </trkpt>
      <trkpt lat="45.79058" lon="5.29726">
        <ele>375.05</ele>
        <time>2015-09-27T10:21:32Z</time>
      </trkpt>
      <trkpt lat="45.79042" lon="5.29713">
        <ele>376.01</ele>
        <time>2015-09-27T10:21:41Z</time>
      </trkpt>
      <trkpt lat="45.79024" lon="5.29705">
        <ele>377.45</ele>
        <time>2015-09-27T10:21:51Z</time>
      </trkpt>
      <trkpt lat="45.79008" lon="5.29709">
        <ele>378.9</ele>
        <time>2015-09-27T10:22:00Z</time>
      </trkpt>
      <trkpt lat="45.78994" lon="5.29721">
        <ele>380.82</ele>
        <time>2015-09-27T10:22:10Z</time>
      </trkpt>
      <trkpt lat="45.78981" lon="5.29721">
        <ele>382.26</ele>
        <time>2015-09-27T10:22:18Z</time>
      </trkpt>
      <trkpt lat="45.78977" lon="5.29715">
        <ele>383.7</ele>
        <time>2015-09-27T10:22:23Z</time>
      </trkpt>
      <trkpt lat="45.7898" lon="5.29698">
        <ele>385.15</ele>
        <time>2015-09-27T10:22:34Z</time>
      </trkpt>
      <trkpt lat="45.7898" lon="5.29698">
        <ele>385.63</ele>
        <time>2015-09-27T10:22:35Z</time>
      </trkpt>
      <trkpt lat="45.78988" lon="5.29686">
        <ele>385.63</ele>
        <time>2015-09-27T10:22:44Z</time>
      </trkpt>
      <trkpt lat="45.78992" lon="5.2968">
        <ele>385.15</ele>
        <time>2015-09-27T10:22:48Z</time>
      </trkpt>
      <trkpt lat="45.7899" lon="5.29674">
        <ele>384.18</ele>
        <time>2015-09-27T10:22:52Z</time>
      </trkpt>
      <trkpt lat="45.78983" lon="5.29664">
        <ele>381.78</ele>
        <time>2015-09-27T10:23:00Z</time>
      </trkpt>
      <trkpt lat="45.78982" lon="5.29652">
        <ele>377.45</ele>
        <time>2015-09-27T10:23:08Z</time>
      </trkpt>
      <trkpt lat="45.78971" lon="5.2964">
        <ele>375.05</ele>
        <time>2015-09-27T10:23:15Z</time>
      </trkpt>
      <trkpt lat="45.78968" lon="5.29615">
        <ele>374.09</ele>
        <time>2015-09-27T10:23:22Z</time>
      </trkpt>
      <trkpt lat="45.78963" lon="5.29606">
        <ele>372.65</ele>
        <time>2015-09-27T10:23:28Z</time>
      </trkpt>
      <trkpt lat="45.78964" lon="5.29604">
        <ele>372.17</ele>
        <time>2015-09-27T10:23:37Z</time>
      </trkpt>
      <trkpt lat="45.78964" lon="5.29602">
        <ele>372.17</ele>
        <time>2015-09-27T10:23:46Z</time>
      </trkpt>
      <trkpt lat="45.78968" lon="5.29607">
        <ele>371.21</ele>
        <time>2015-09-27T10:23:55Z</time>
      </trkpt>
      <trkpt lat="45.78971" lon="5.29606">
        <ele>370.24</ele>
        <time>2015-09-27T10:23:58Z</time>
      </trkpt>
      <trkpt lat="45.78974" lon="5.29604">
        <ele>369.28</ele>
        <time>2015-09-27T10:24:00Z</time>
      </trkpt>
      <trkpt lat="45.78972" lon="5.29593">
        <ele>365.92</ele>
        <time>2015-09-27T10:24:07Z</time>
      </trkpt>
      <trkpt lat="45.78958" lon="5.29584">
        <ele>363.04</ele>
        <time>2015-09-27T10:24:14Z</time>
      </trkpt>
      <trkpt lat="45.7894" lon="5.29566">
        <ele>362.55</ele>
        <time>2015-09-27T10:24:23Z</time>
      </trkpt>
      <trkpt lat="45.78931" lon="5.29546">
        <ele>363.52</ele>
        <time>2015-09-27T10:24:33Z</time>
      </trkpt>
      <trkpt lat="45.78924" lon="5.29545">
        <ele>366.88</ele>
        <time>2015-09-27T10:24:42Z</time>
      </trkpt>
      <trkpt lat="45.78916" lon="5.29542">
        <ele>369.28</ele>
        <time>2015-09-27T10:24:53Z</time>
      </trkpt>
      <trkpt lat="45.7891" lon="5.29534">
        <ele>372.17</ele>
        <time>2015-09-27T10:25:03Z</time>
      </trkpt>
      <trkpt lat="45.78905" lon="5.2952">
        <ele>375.53</ele>
        <time>2015-09-27T10:25:18Z</time>
      </trkpt>
      <trkpt lat="45.78894" lon="5.29516">
        <ele>378.9</ele>
        <time>2015-09-27T10:25:32Z</time>
      </trkpt>
      <trkpt lat="45.78883" lon="5.29505">
        <ele>378.9</ele>
        <time>2015-09-27T10:25:42Z</time>
      </trkpt>
      <trkpt lat="45.78872" lon="5.29497">
        <ele>379.86</ele>
        <time>2015-09-27T10:25:48Z</time>
      </trkpt>
      <trkpt lat="45.78864" lon="5.29497">
        <ele>380.34</ele>
        <time>2015-09-27T10:25:52Z</time>
      </trkpt>
      <trkpt lat="45.78849" lon="5.29491">
        <ele>381.78</ele>
        <time>2015-09-27T10:26:03Z</time>
      </trkpt>
      <trkpt lat="45.78843" lon="5.29486">
        <ele>384.66</ele>
        <time>2015-09-27T10:26:11Z</time>
      </trkpt>
      <trkpt lat="45.78834" lon="5.29482">
        <ele>386.59</ele>
        <time>2015-09-27T10:26:21Z</time>
      </trkpt>
      <trkpt lat="45.78827" lon="5.29477">
        <ele>388.99</ele>
        <time>2015-09-27T10:26:28Z</time>
      </trkpt>
      <trkpt lat="45.78823" lon="5.2948">
        <ele>390.43</ele>
        <time>2015-09-27T10:26:37Z</time>
      </trkpt>
      <trkpt lat="45.78819" lon="5.2949">
        <ele>393.8</ele>
        <time>2015-09-27T10:26:47Z</time>
      </trkpt>
      <trkpt lat="45.7881" lon="5.29492">
        <ele>395.24</ele>
        <time>2015-09-27T10:26:58Z</time>
      </trkpt>
      <trkpt lat="45.78801" lon="5.29487">
        <ele>398.12</ele>
        <time>2015-09-27T10:27:09Z</time>
      </trkpt>
      <trkpt lat="45.7879" lon="5.29486">
        <ele>401.49</ele>
        <time>2015-09-27T10:27:22Z</time>
      </trkpt>
      <trkpt lat="45.78779" lon="5.29481">
        <ele>404.37</ele>
        <time>2015-09-27T10:27:35Z</time>
      </trkpt>
      <trkpt lat="45.78769" lon="5.2947">
        <ele>405.33</ele>
        <time>2015-09-27T10:27:49Z</time>
      </trkpt>
      <trkpt lat="45.78752" lon="5.29452">
        <ele>407.74</ele>
        <time>2015-09-27T10:28:04Z</time>
      </trkpt>
      <trkpt lat="45.78742" lon="5.29441">
        <ele>408.7</ele>
        <time>2015-09-27T10:28:16Z</time>
      </trkpt>
      <trkpt lat="45.78727" lon="5.29426">
        <ele>410.62</ele>
        <time>2015-09-27T10:28:32Z</time>
      </trkpt>
      <trkpt lat="45.78715" lon="5.29407">
        <ele>412.06</ele>
        <time>2015-09-27T10:28:46Z</time>
      </trkpt>
      <trkpt lat="45.78706" lon="5.29392">
        <ele>414.47</ele>
        <time>2015-09-27T10:28:57Z</time>
      </trkpt>
      <trkpt lat="45.78686" lon="5.29378">
        <ele>415.43</ele>
        <time>2015-09-27T10:29:11Z</time>
      </trkpt>
      <trkpt lat="45.78672" lon="5.29366">
        <ele>415.43</ele>
        <time>2015-09-27T10:29:23Z</time>
      </trkpt>
      <trkpt lat="45.78658" lon="5.29355">
        <ele>415.91</ele>
        <time>2015-09-27T10:29:32Z</time>
      </trkpt>
      <trkpt lat="45.78648" lon="5.2935">
        <ele>417.35</ele>
        <time>2015-09-27T10:29:39Z</time>
      </trkpt>
      <trkpt lat="45.78631" lon="5.29341">
        <ele>418.79</ele>
        <time>2015-09-27T10:29:49Z</time>
      </trkpt>
      <trkpt lat="45.78618" lon="5.29332">
        <ele>415.91</ele>
        <time>2015-09-27T10:29:56Z</time>
      </trkpt>
      <trkpt lat="45.78604" lon="5.29321">
        <ele>413.98</ele>
        <time>2015-09-27T10:30:03Z</time>
      </trkpt>
      <trkpt lat="45.7859" lon="5.29309">
        <ele>413.5</ele>
        <time>2015-09-27T10:30:12Z</time>
      </trkpt>
      <trkpt lat="45.78573" lon="5.29294">
        <ele>412.54</ele>
        <time>2015-09-27T10:30:21Z</time>
      </trkpt>
      <trkpt lat="45.78558" lon="5.29286">
        <ele>411.58</ele>
        <time>2015-09-27T10:30:27Z</time>
      </trkpt>
      <trkpt lat="45.78547" lon="5.29271">
        <ele>409.18</ele>
        <time>2015-09-27T10:30:34Z</time>
      </trkpt>
      <trkpt lat="45.78538" lon="5.29252">
        <ele>405.81</ele>
        <time>2015-09-27T10:30:41Z</time>
      </trkpt>
      <trkpt lat="45.78532" lon="5.29229">
        <ele>403.89</ele>
        <time>2015-09-27T10:30:49Z</time>
      </trkpt>
      <trkpt lat="45.78527" lon="5.29211">
        <ele>401.97</ele>
        <time>2015-09-27T10:30:56Z</time>
      </trkpt>
      <trkpt lat="45.78521" lon="5.29195">
        <ele>399.08</ele>
        <time>2015-09-27T10:31:03Z</time>
      </trkpt>
      <trkpt lat="45.78521" lon="5.29194">
        <ele>404.85</ele>
        <time>2015-09-27T10:31:25Z</time>
      </trkpt>
      <trkpt lat="45.78521" lon="5.29194">
        <ele>404.85</ele>
        <time>2015-09-27T10:31:26Z</time>
      </trkpt>
      <trkpt lat="45.78524" lon="5.29183">
        <ele>402.93</ele>
        <time>2015-09-27T10:31:53Z</time>
      </trkpt>
      <trkpt lat="45.78524" lon="5.29171">
        <ele>400.53</ele>
        <time>2015-09-27T10:32:03Z</time>
      </trkpt>
      <trkpt lat="45.78524" lon="5.29175">
        <ele>400.05</ele>
        <time>2015-09-27T10:32:12Z</time>
      </trkpt>
      <trkpt lat="45.78522" lon="5.29187">
        <ele>403.41</ele>
        <time>2015-09-27T10:32:23Z</time>
      </trkpt>
      <trkpt lat="45.78517" lon="5.29189">
        <ele>404.37</ele>
        <time>2015-09-27T10:32:29Z</time>
      </trkpt>
      <trkpt lat="45.78509" lon="5.29184">
        <ele>405.33</ele>
        <time>2015-09-27T10:32:35Z</time>
      </trkpt>
      <trkpt lat="45.78488" lon="5.29176">
        <ele>406.29</ele>
        <time>2015-09-27T10:32:47Z</time>
      </trkpt>
      <trkpt lat="45.78468" lon="5.29175">
        <ele>405.81</ele>
        <time>2015-09-27T10:32:56Z</time>
      </trkpt>
      <trkpt lat="45.78454" lon="5.29165">
        <ele>406.29</ele>
        <time>2015-09-27T10:33:04Z</time>
      </trkpt>
      <trkpt lat="45.78443" lon="5.29147">
        <ele>405.33</ele>
        <time>2015-09-27T10:33:13Z</time>
      </trkpt>
      <trkpt lat="45.78441" lon="5.29147">
        <ele>405.81</ele>
        <time>2015-09-27T10:33:15Z</time>
      </trkpt>
      <trkpt lat="45.78427" lon="5.29137">
        <ele>407.26</ele>
        <time>2015-09-27T10:33:24Z</time>
      </trkpt>
      <trkpt lat="45.7841" lon="5.29126">
        <ele>407.26</ele>
        <time>2015-09-27T10:33:33Z</time>
      </trkpt>
      <trkpt lat="45.78391" lon="5.29114">
        <ele>405.33</ele>
        <time>2015-09-27T10:33:42Z</time>
      </trkpt>
      <trkpt lat="45.78369" lon="5.29102">
        <ele>404.37</ele>
        <time>2015-09-27T10:33:52Z</time>
      </trkpt>
      <trkpt lat="45.78349" lon="5.29089">
        <ele>401.97</ele>
        <time>2015-09-27T10:34:02Z</time>
      </trkpt>
      <trkpt lat="45.78329" lon="5.29092">
        <ele>401.49</ele>
        <time>2015-09-27T10:34:10Z</time>
      </trkpt>
      <trkpt lat="45.78311" lon="5.2911">
        <ele>401.01</ele>
        <time>2015-09-27T10:34:20Z</time>
      </trkpt>
      <trkpt lat="45.78293" lon="5.29113">
        <ele>399.57</ele>
        <time>2015-09-27T10:34:29Z</time>
      </trkpt>
      <trkpt lat="45.78277" lon="5.29119">
        <ele>397.16</ele>
        <time>2015-09-27T10:34:37Z</time>
      </trkpt>
      <trkpt lat="45.78256" lon="5.29116">
        <ele>394.28</ele>
        <time>2015-09-27T10:34:46Z</time>
      </trkpt>
      <trkpt lat="45.78236" lon="5.29111">
        <ele>392.36</ele>
        <time>2015-09-27T10:34:54Z</time>
      </trkpt>
      <trkpt lat="45.78213" lon="5.29108">
        <ele>391.87</ele>
        <time>2015-09-27T10:35:04Z</time>
      </trkpt>
      <trkpt lat="45.78194" lon="5.29102">
        <ele>391.39</ele>
        <time>2015-09-27T10:35:12Z</time>
      </trkpt>
      <trkpt lat="45.78172" lon="5.29102">
        <ele>392.36</ele>
        <time>2015-09-27T10:35:22Z</time>
      </trkpt>
      <trkpt lat="45.78164" lon="5.29105">
        <ele>393.32</ele>
        <time>2015-09-27T10:35:29Z</time>
      </trkpt>
      <trkpt lat="45.78157" lon="5.29111">
        <ele>394.76</ele>
        <time>2015-09-27T10:35:38Z</time>
      </trkpt>
      <trkpt lat="45.78147" lon="5.2912">
        <ele>395.72</ele>
        <time>2015-09-27T10:35:48Z</time>
      </trkpt>
      <trkpt lat="45.78133" lon="5.29125">
        <ele>396.68</ele>
        <time>2015-09-27T10:35:57Z</time>
      </trkpt>
      <trkpt lat="45.78117" lon="5.29129">
        <ele>398.12</ele>
        <time>2015-09-27T10:36:05Z</time>
      </trkpt>
      <trkpt lat="45.78098" lon="5.29134">
        <ele>399.57</ele>
        <time>2015-09-27T10:36:14Z</time>
      </trkpt>
      <trkpt lat="45.78084" lon="5.29149">
        <ele>400.05</ele>
        <time>2015-09-27T10:36:22Z</time>
      </trkpt>
      <trkpt lat="45.78069" lon="5.29177">
        <ele>400.53</ele>
        <time>2015-09-27T10:36:33Z</time>
      </trkpt>
      <trkpt lat="45.78059" lon="5.29204">
        <ele>401.49</ele>
        <time>2015-09-27T10:36:43Z</time>
      </trkpt>
      <trkpt lat="45.78047" lon="5.29228">
        <ele>401.97</ele>
        <time>2015-09-27T10:36:53Z</time>
      </trkpt>
      <trkpt lat="45.78029" lon="5.29246">
        <ele>399.57</ele>
        <time>2015-09-27T10:37:02Z</time>
      </trkpt>
      <trkpt lat="45.78018" lon="5.29259">
        <ele>398.12</ele>
        <time>2015-09-27T10:37:07Z</time>
      </trkpt>
      <trkpt lat="45.78011" lon="5.29273">
        <ele>395.72</ele>
        <time>2015-09-27T10:37:11Z</time>
      </trkpt>
      <trkpt lat="45.78002" lon="5.29293">
        <ele>394.28</ele>
        <time>2015-09-27T10:37:17Z</time>
      </trkpt>
      <trkpt lat="45.7799" lon="5.29312">
        <ele>394.76</ele>
        <time>2015-09-27T10:37:25Z</time>
      </trkpt>
      <trkpt lat="45.77975" lon="5.29334">
        <ele>394.76</ele>
        <time>2015-09-27T10:37:35Z</time>
      </trkpt>
      <trkpt lat="45.77956" lon="5.29353">
        <ele>395.72</ele>
        <time>2015-09-27T10:37:45Z</time>
      </trkpt>
      <trkpt lat="45.77942" lon="5.2937">
        <ele>395.72</ele>
        <time>2015-09-27T10:37:54Z</time>
      </trkpt>
      <trkpt lat="45.7793" lon="5.2939">
        <ele>396.68</ele>
        <time>2015-09-27T10:38:03Z</time>
      </trkpt>
      <trkpt lat="45.7792" lon="5.29412">
        <ele>397.16</ele>
        <time>2015-09-27T10:38:13Z</time>
      </trkpt>
      <trkpt lat="45.77911" lon="5.29435">
        <ele>398.12</ele>
        <time>2015-09-27T10:38:22Z</time>
      </trkpt>
      <trkpt lat="45.77903" lon="5.2946">
        <ele>398.12</ele>
        <time>2015-09-27T10:38:31Z</time>
      </trkpt>
      <trkpt lat="45.77889" lon="5.29468">
        <ele>400.05</ele>
        <time>2015-09-27T10:38:40Z</time>
      </trkpt>
      <trkpt lat="45.77875" lon="5.29469">
        <ele>401.01</ele>
        <time>2015-09-27T10:38:49Z</time>
      </trkpt>
      <trkpt lat="45.77867" lon="5.29474">
        <ele>401.01</ele>
        <time>2015-09-27T10:38:56Z</time>
      </trkpt>
      <trkpt lat="45.77852" lon="5.29481">
        <ele>400.05</ele>
        <time>2015-09-27T10:39:07Z</time>
      </trkpt>
      <trkpt lat="45.77825" lon="5.29482">
        <ele>398.6</ele>
        <time>2015-09-27T10:39:19Z</time>
      </trkpt>
      <trkpt lat="45.77823" lon="5.29481">
        <ele>398.12</ele>
        <time>2015-09-27T10:39:20Z</time>
      </trkpt>
      <trkpt lat="45.77804" lon="5.29477">
        <ele>398.12</ele>
        <time>2015-09-27T10:39:29Z</time>
      </trkpt>
      <trkpt lat="45.77796" lon="5.2948">
        <ele>398.12</ele>
        <time>2015-09-27T10:39:34Z</time>
      </trkpt>
      <trkpt lat="45.77782" lon="5.29497">
        <ele>400.05</ele>
        <time>2015-09-27T10:39:46Z</time>
      </trkpt>
      <trkpt lat="45.77775" lon="5.29507">
        <ele>400.53</ele>
        <time>2015-09-27T10:39:55Z</time>
      </trkpt>
      <trkpt lat="45.77765" lon="5.29527">
        <ele>401.49</ele>
        <time>2015-09-27T10:40:06Z</time>
      </trkpt>
      <trkpt lat="45.77753" lon="5.29556">
        <ele>401.01</ele>
        <time>2015-09-27T10:40:16Z</time>
      </trkpt>
      <trkpt lat="45.7774" lon="5.29572">
        <ele>401.01</ele>
        <time>2015-09-27T10:40:24Z</time>
      </trkpt>
      <trkpt lat="45.77722" lon="5.29577">
        <ele>401.49</ele>
        <time>2015-09-27T10:40:33Z</time>
      </trkpt>
      <trkpt lat="45.77703" lon="5.2959">
        <ele>402.45</ele>
        <time>2015-09-27T10:40:44Z</time>
      </trkpt>
      <trkpt lat="45.77688" lon="5.2961">
        <ele>402.93</ele>
        <time>2015-09-27T10:40:54Z</time>
      </trkpt>
      <trkpt lat="45.77678" lon="5.2962">
        <ele>404.37</ele>
        <time>2015-09-27T10:41:01Z</time>
      </trkpt>
      <trkpt lat="45.7767" lon="5.29631">
        <ele>405.33</ele>
        <time>2015-09-27T10:41:07Z</time>
      </trkpt>
      <trkpt lat="45.77656" lon="5.29638">
        <ele>406.29</ele>
        <time>2015-09-27T10:41:16Z</time>
      </trkpt>
      <trkpt lat="45.77638" lon="5.29642">
        <ele>406.77</ele>
        <time>2015-09-27T10:41:25Z</time>
      </trkpt>
      <trkpt lat="45.77627" lon="5.29657">
        <ele>406.77</ele>
        <time>2015-09-27T10:41:32Z</time>
      </trkpt>
      <trkpt lat="45.77622" lon="5.29679">
        <ele>406.29</ele>
        <time>2015-09-27T10:41:40Z</time>
      </trkpt>
      <trkpt lat="45.77619" lon="5.29701">
        <ele>406.77</ele>
        <time>2015-09-27T10:41:48Z</time>
      </trkpt>
      <trkpt lat="45.77611" lon="5.29709">
        <ele>406.77</ele>
        <time>2015-09-27T10:41:58Z</time>
      </trkpt>
      <trkpt lat="45.77603" lon="5.29704">
        <ele>406.29</ele>
        <time>2015-09-27T10:42:04Z</time>
      </trkpt>
      <trkpt lat="45.77582" lon="5.2969">
        <ele>404.85</ele>
        <time>2015-09-27T10:42:15Z</time>
      </trkpt>
      <trkpt lat="45.77569" lon="5.29683">
        <ele>403.89</ele>
        <time>2015-09-27T10:42:21Z</time>
      </trkpt>
      <trkpt lat="45.77548" lon="5.29677">
        <ele>401.97</ele>
        <time>2015-09-27T10:42:31Z</time>
      </trkpt>
      <trkpt lat="45.77529" lon="5.29682">
        <ele>400.53</ele>
        <time>2015-09-27T10:42:39Z</time>
      </trkpt>
      <trkpt lat="45.77509" lon="5.29685">
        <ele>398.6</ele>
        <time>2015-09-27T10:42:48Z</time>
      </trkpt>
      <trkpt lat="45.7749" lon="5.29681">
        <ele>397.16</ele>
        <time>2015-09-27T10:42:57Z</time>
      </trkpt>
      <trkpt lat="45.77473" lon="5.29674">
        <ele>397.16</ele>
        <time>2015-09-27T10:43:06Z</time>
      </trkpt>
      <trkpt lat="45.77453" lon="5.29666">
        <ele>397.16</ele>
        <time>2015-09-27T10:43:15Z</time>
      </trkpt>
      <trkpt lat="45.77428" lon="5.29665">
        <ele>397.16</ele>
        <time>2015-09-27T10:43:26Z</time>
      </trkpt>
      <trkpt lat="45.77413" lon="5.29671">
        <ele>397.16</ele>
        <time>2015-09-27T10:43:34Z</time>
      </trkpt>
      <trkpt lat="45.77394" lon="5.29682">
        <ele>397.64</ele>
        <time>2015-09-27T10:43:43Z</time>
      </trkpt>
      <trkpt lat="45.77376" lon="5.29702">
        <ele>398.12</ele>
        <time>2015-09-27T10:43:54Z</time>
      </trkpt>
      <trkpt lat="45.77359" lon="5.2972">
        <ele>398.6</ele>
        <time>2015-09-27T10:44:04Z</time>
      </trkpt>
      <trkpt lat="45.77344" lon="5.29738">
        <ele>399.08</ele>
        <time>2015-09-27T10:44:14Z</time>
      </trkpt>
      <trkpt lat="45.77343" lon="5.2974">
        <ele>399.08</ele>
        <time>2015-09-27T10:44:20Z</time>
      </trkpt>
      <trkpt lat="45.77342" lon="5.29741">
        <ele>399.08</ele>
        <time>2015-09-27T10:44:24Z</time>
      </trkpt>
      <trkpt lat="45.77329" lon="5.29758">
        <ele>399.57</ele>
        <time>2015-09-27T10:44:36Z</time>
      </trkpt>
      <trkpt lat="45.7732" lon="5.2977">
        <ele>399.08</ele>
        <time>2015-09-27T10:44:42Z</time>
      </trkpt>
      <trkpt lat="45.77312" lon="5.29785">
        <ele>398.6</ele>
        <time>2015-09-27T10:44:48Z</time>
      </trkpt>
      <trkpt lat="45.77306" lon="5.29799">
        <ele>397.64</ele>
        <time>2015-09-27T10:44:53Z</time>
      </trkpt>
      <trkpt lat="45.77301" lon="5.29812">
        <ele>397.64</ele>
        <time>2015-09-27T10:44:58Z</time>
      </trkpt>
      <trkpt lat="45.77295" lon="5.29827">
        <ele>396.68</ele>
        <time>2015-09-27T10:45:03Z</time>
      </trkpt>
      <trkpt lat="45.7729" lon="5.29839">
        <ele>396.2</ele>
        <time>2015-09-27T10:45:07Z</time>
      </trkpt>
      <trkpt lat="45.77284" lon="5.29853">
        <ele>395.72</ele>
        <time>2015-09-27T10:45:12Z</time>
      </trkpt>
      <trkpt lat="45.77278" lon="5.2987">
        <ele>395.24</ele>
        <time>2015-09-27T10:45:18Z</time>
      </trkpt>
      <trkpt lat="45.77272" lon="5.29887">
        <ele>394.28</ele>
        <time>2015-09-27T10:45:24Z</time>
      </trkpt>
      <trkpt lat="45.77266" lon="5.29904">
        <ele>393.8</ele>
        <time>2015-09-27T10:45:30Z</time>
      </trkpt>
      <trkpt lat="45.77262" lon="5.29922">
        <ele>393.32</ele>
        <time>2015-09-27T10:45:36Z</time>
      </trkpt>
      <trkpt lat="45.77254" lon="5.29949">
        <ele>392.36</ele>
        <time>2015-09-27T10:45:45Z</time>
      </trkpt>
      <trkpt lat="45.77246" lon="5.2997">
        <ele>391.39</ele>
        <time>2015-09-27T10:45:52Z</time>
      </trkpt>
      <trkpt lat="45.77236" lon="5.30004">
        <ele>389.95</ele>
        <time>2015-09-27T10:46:03Z</time>
      </trkpt>
      <trkpt lat="45.77231" lon="5.30025">
        <ele>389.47</ele>
        <time>2015-09-27T10:46:10Z</time>
      </trkpt>
      <trkpt lat="45.77231" lon="5.30047">
        <ele>388.03</ele>
        <time>2015-09-27T10:46:17Z</time>
      </trkpt>
      <trkpt lat="45.77231" lon="5.30076">
        <ele>386.59</ele>
        <time>2015-09-27T10:46:26Z</time>
      </trkpt>
      <trkpt lat="45.77232" lon="5.30114">
        <ele>385.63</ele>
        <time>2015-09-27T10:46:38Z</time>
      </trkpt>
      <trkpt lat="45.77233" lon="5.30139">
        <ele>384.66</ele>
        <time>2015-09-27T10:46:46Z</time>
      </trkpt>
      <trkpt lat="45.77237" lon="5.30163">
        <ele>384.18</ele>
        <time>2015-09-27T10:46:54Z</time>
      </trkpt>
      <trkpt lat="45.77237" lon="5.30188">
        <ele>383.22</ele>
        <time>2015-09-27T10:47:03Z</time>
      </trkpt>
      <trkpt lat="45.77236" lon="5.30233">
        <ele>380.82</ele>
        <time>2015-09-27T10:47:16Z</time>
      </trkpt>
      <trkpt lat="45.7723" lon="5.30246">
        <ele>380.34</ele>
        <time>2015-09-27T10:47:21Z</time>
      </trkpt>
      <trkpt lat="45.77221" lon="5.30263">
        <ele>380.34</ele>
        <time>2015-09-27T10:47:29Z</time>
      </trkpt>
      <trkpt lat="45.77214" lon="5.30293">
        <ele>378.9</ele>
        <time>2015-09-27T10:47:39Z</time>
      </trkpt>
      <trkpt lat="45.77214" lon="5.30323">
        <ele>378.42</ele>
        <time>2015-09-27T10:47:48Z</time>
      </trkpt>
      <trkpt lat="45.77213" lon="5.3035">
        <ele>377.94</ele>
        <time>2015-09-27T10:47:56Z</time>
      </trkpt>
      <trkpt lat="45.77213" lon="5.30367">
        <ele>377.45</ele>
        <time>2015-09-27T10:48:01Z</time>
      </trkpt>
      <trkpt lat="45.77214" lon="5.30386">
        <ele>376.97</ele>
        <time>2015-09-27T10:48:06Z</time>
      </trkpt>
      <trkpt lat="45.77215" lon="5.3041">
        <ele>375.53</ele>
        <time>2015-09-27T10:48:13Z</time>
      </trkpt>
      <trkpt lat="45.77218" lon="5.3043">
        <ele>375.05</ele>
        <time>2015-09-27T10:48:19Z</time>
      </trkpt>
      <trkpt lat="45.77223" lon="5.30458">
        <ele>374.09</ele>
        <time>2015-09-27T10:48:27Z</time>
      </trkpt>
      <trkpt lat="45.77227" lon="5.3048">
        <ele>373.61</ele>
        <time>2015-09-27T10:48:34Z</time>
      </trkpt>
      <trkpt lat="45.77233" lon="5.30498">
        <ele>372.65</ele>
        <time>2015-09-27T10:48:40Z</time>
      </trkpt>
      <trkpt lat="45.77245" lon="5.30509">
        <ele>372.17</ele>
        <time>2015-09-27T10:48:47Z</time>
      </trkpt>
      <trkpt lat="45.77261" lon="5.3052">
        <ele>371.21</ele>
        <time>2015-09-27T10:48:55Z</time>
      </trkpt>
      <trkpt lat="45.77277" lon="5.30532">
        <ele>370.73</ele>
        <time>2015-09-27T10:49:03Z</time>
      </trkpt>
      <trkpt lat="45.77292" lon="5.30543">
        <ele>369.28</ele>
        <time>2015-09-27T10:49:11Z</time>
      </trkpt>
      <trkpt lat="45.77306" lon="5.30563">
        <ele>367.84</ele>
        <time>2015-09-27T10:49:20Z</time>
      </trkpt>
      <trkpt lat="45.7732" lon="5.30577">
        <ele>366.4</ele>
        <time>2015-09-27T10:49:27Z</time>
      </trkpt>
      <trkpt lat="45.7734" lon="5.30597">
        <ele>364</ele>
        <time>2015-09-27T10:49:37Z</time>
      </trkpt>
      <trkpt lat="45.77359" lon="5.30619">
        <ele>362.55</ele>
        <time>2015-09-27T10:49:47Z</time>
      </trkpt>
      <trkpt lat="45.7738" lon="5.30639">
        <ele>361.11</ele>
        <time>2015-09-27T10:49:57Z</time>
      </trkpt>
      <trkpt lat="45.77399" lon="5.30657">
        <ele>359.19</ele>
        <time>2015-09-27T10:50:07Z</time>
      </trkpt>
      <trkpt lat="45.77414" lon="5.30675">
        <ele>357.27</ele>
        <time>2015-09-27T10:50:15Z</time>
      </trkpt>
      <trkpt lat="45.77419" lon="5.30677">
        <ele>356.79</ele>
        <time>2015-09-27T10:50:17Z</time>
      </trkpt>
    </trkseg>
  </trk>
</gpx>